GFSSGP_sfc_thetae_000.txt.gz
Theta_e
336 329 329 329 317 316 309 310 317 313 313 317 317 314 312 313 309 306 330 329 328 342 349 349 355 354 353 352 352 351 351 351 349 347 344 341 340 339 339 337 336 335 335 336 338 339 343 343 343
324 326 333 326 315 309 309 316 312 314 316 317 316 315 313 311 316 319 323 330 329 338 348 348 355 354 354 353 353 353 352 351 349 346 345 343 341 341 340 339 339 338 337 337 337 338 340 342 343
335 336 326 319 315 309 308 314 313 315 317 315 314 317 314 314 318 320 330 331 332 337 340 354 355 354 355 354 354 354 353 350 347 344 343 342 343 342 341 341 341 340 339 338 337 338 339 343 344
335 330 326 313 309 313 314 314 316 314 316 317 315 311 318 322 321 324 328 328 328 328 336 353 357 356 355 353 354 354 350 349 347 343 341 341 342 343 342 340 340 340 340 339 337 338 341 342 344
333 324 314 312 311 314 318 318 316 313 313 314 315 310 314 321 325 326 327 327 327 333 335 344 353 349 347 346 348 350 347 345 343 342 341 341 340 340 339 340 340 340 340 340 337 338 340 342 342
319 320 309 307 309 314 317 318 315 313 314 314 313 312 316 324 324 325 326 328 327 331 335 341 347 346 344 347 346 341 338 336 337 337 337 338 338 337 337 337 337 337 339 339 338 337 339 341 342
317 314 309 310 309 311 315 319 315 314 312 313 316 310 318 322 324 327 328 329 332 331 333 336 337 343 344 343 339 335 331 331 332 333 333 334 334 334 335 336 336 337 339 339 338 338 339 340 340
319 315 309 310 309 310 317 318 319 316 313 319 317 310 312 322 326 326 325 324 325 326 325 332 335 330 335 336 336 335 332 332 331 332 332 331 331 332 334 336 336 337 338 338 338 337 336 339 340
323 310 307 309 309 311 316 315 319 321 316 317 317 315 319 324 324 322 323 321 322 324 329 329 329 331 334 334 334 335 336 334 332 332 330 329 330 331 332 336 337 336 337 337 337 337 337 338 339
315 309 309 315 315 312 314 314 316 315 315 315 315 318 320 321 321 319 319 319 321 323 327 329 330 333 336 330 337 337 335 335 334 332 331 331 331 331 331 333 333 335 335 336 336 336 336 334 332
315 310 314 315 317 315 313 313 316 313 311 315 313 316 318 318 320 319 318 320 322 326 328 327 332 335 337 334 335 333 333 333 334 333 332 331 330 330 331 333 333 333 334 332 332 332 332 330 329
311 315 316 316 317 314 311 314 314 314 315 318 317 317 318 318 318 319 319 324 321 326 329 333 336 336 339 337 333 332 334 333 330 332 332 331 330 330 332 331 332 332 333 331 332 331 333 330 329
314 315 316 317 315 314 314 313 314 314 318 319 318 317 317 319 320 324 327 328 325 327 328 334 335 339 341 339 336 335 335 331 332 332 332 331 329 329 330 331 330 330 330 330 330 332 331 328 329
316 316 314 315 314 314 312 313 314 315 318 316 316 316 317 318 320 323 325 326 327 329 331 334 336 339 339 338 337 336 336 334 334 333 328 330 331 329 330 330 330 330 330 331 331 331 331 331 333
315 310 312 313 314 312 315 310 310 316 317 316 316 317 318 319 319 321 324 328 330 329 333 334 335 336 337 337 338 337 336 336 334 334 330 329 332 330 331 330 330 329 330 329 331 331 332 332 335
310 310 304 311 313 314 313 305 313 316 316 316 316 316 317 319 320 323 325 329 332 331 333 335 330 336 338 341 338 338 337 338 337 337 332 328 331 332 331 330 330 330 330 329 329 330 331 330 331
307 302 304 307 313 312 311 307 313 316 316 316 317 317 317 319 322 326 325 328 331 332 334 335 337 334 339 339 333 335 339 339 340 337 330 328 329 333 333 330 331 331 329 329 330 328 329 330 330
301 302 304 305 310 311 309 309 313 315 315 316 317 318 318 319 320 324 326 328 330 332 336 337 336 339 341 336 335 331 340 340 339 335 330 329 329 332 333 330 330 332 329 328 329 329 330 330 331
306 305 305 309 312 310 309 311 312 315 314 315 316 318 320 320 323 324 326 328 329 332 335 337 337 340 338 333 334 336 336 338 335 336 334 332 331 331 333 331 330 332 329 328 328 330 328 328 330
305 304 304 308 311 309 308 308 312 313 314 315 315 316 319 320 320 322 325 328 328 330 334 336 337 339 338 337 340 338 337 337 337 337 335 334 331 333 333 331 330 330 329 330 328 331 327 327 329
305 304 305 305 308 310 308 306 309 312 315 315 317 318 319 320 319 321 323 326 327 329 333 334 337 338 339 340 338 338 336 334 337 335 332 331 333 333 333 332 331 330 332 329 328 329 327 327 329
302 308 308 306 304 299 308 298 307 309 311 313 313 316 317 320 321 322 323 325 327 326 331 335 337 337 337 339 338 337 332 329 334 334 334 330 333 332 332 332 331 332 332 329 329 330 328 327 325
305 310 308 307 304 303 303 300 303 310 308 310 312 314 318 321 321 321 323 325 325 327 330 334 337 337 340 341 339 336 335 334 335 334 332 332 329 333 332 332 333 331 330 331 330 330 329 331 329
310 308 307 306 303 297 302 300 300 305 307 309 311 313 318 320 321 322 325 326 324 326 328 334 336 336 339 340 338 338 333 332 332 330 330 331 332 330 332 332 333 332 331 333 333 332 330 332 332
308 305 297 295 294 294 303 300 303 310 310 310 310 314 319 321 320 321 322 322 323 323 327 330 333 332 335 337 337 336 334 331 332 330 328 329 329 329 330 332 333 334 333 335 335 334 332 333 332
306 305 297 292 292 295 305 299 303 310 312 312 313 316 321 320 321 321 322 322 321 323 325 327 330 330 332 333 336 338 334 333 332 330 329 329 330 330 331 332 334 334 333 333 334 332 333 332 331
305 301 306 300 301 297 300 305 310 312 310 311 313 318 320 321 321 321 323 323 323 324 326 329 331 331 332 332 336 337 335 334 335 335 332 328 332 332 332 333 333 334 333 332 332 332 332 333 331
309 308 299 300 292 292 297 300 301 306 308 312 315 318 321 321 320 321 322 323 324 325 327 331 332 330 332 333 335 334 332 336 335 337 334 329 332 333 331 332 332 332 333 333 334 333 333 331 329
305 303 304 304 300 294 293 298 311 310 313 316 316 320 321 319 318 321 321 324 323 323 324 329 330 328 330 331 333 334 333 336 334 333 333 328 329 331 331 330 332 332 332 331 334 332 331 330 329
308 305 306 299 299 301 299 300 314 315 314 317 317 319 319 319 319 320 321 323 320 321 324 326 330 325 327 329 330 334 335 336 334 333 334 330 331 332 332 333 332 332 333 334 332 330 330 328 327

GFSSGP_sfc_thetae_006.txt.gz
Theta_e
336 335 326 316 308 305 301 306 310 307 305 307 309 308 305 306 306 300 321 335 334 333 344 351 355 354 353 352 351 351 350 349 345 345 345 344 343 342 341 340 339 337 337 336 337 337 337 337 340
330 327 315 316 304 300 302 310 307 306 308 308 309 307 306 310 318 318 324 337 333 335 342 347 355 354 354 353 353 353 351 349 347 347 347 347 345 343 342 342 341 340 340 340 339 338 338 338 337
322 319 310 311 304 300 302 310 311 309 310 308 307 311 311 311 320 319 322 338 334 335 341 345 355 354 354 353 353 353 352 350 349 348 347 346 345 344 343 343 343 342 343 342 341 340 340 338 338
322 322 317 305 301 307 309 312 313 306 308 308 309 309 314 320 321 323 337 340 335 337 340 347 355 354 354 353 352 352 351 350 348 347 346 344 343 344 345 343 342 342 341 341 342 342 340 339 341
323 316 304 301 304 309 311 313 309 305 306 306 307 309 311 319 324 325 332 339 335 337 340 349 355 355 355 353 352 352 352 350 347 346 345 343 343 344 343 341 341 341 341 341 342 341 342 343 342
313 309 298 297 302 308 309 311 311 308 308 307 309 309 309 319 321 321 320 325 337 342 346 349 354 355 355 355 352 350 347 345 343 341 340 341 341 341 340 340 339 339 339 340 340 342 342 342 342
309 305 299 301 304 305 309 312 310 308 307 306 310 307 312 315 318 320 319 328 335 341 344 345 348 352 352 350 349 347 345 342 338 334 334 335 335 336 337 337 337 338 338 338 340 342 342 342 341
312 306 300 301 301 301 309 307 309 309 310 313 313 308 308 315 318 318 318 319 326 332 336 336 335 336 337 340 345 344 340 336 335 335 335 334 333 334 334 335 335 336 336 337 339 340 341 340 341
315 302 299 301 302 305 311 304 311 313 310 311 311 312 316 319 317 315 313 314 314 322 325 330 328 330 332 333 336 340 338 336 336 335 334 333 326 324 326 331 335 336 338 338 337 339 339 338 339
309 302 305 310 308 306 310 307 309 307 307 308 312 317 318 318 315 313 312 312 311 313 315 316 319 323 327 333 330 330 328 328 328 325 324 322 322 322 328 331 334 335 336 337 337 338 338 338 328
309 305 311 312 312 312 310 310 312 307 304 307 308 313 316 315 313 313 312 312 311 312 316 317 319 320 321 323 324 323 321 321 322 323 323 323 323 322 322 322 324 324 331 328 332 331 331 329 326
305 312 313 313 314 311 309 312 310 308 308 311 313 316 315 313 312 311 311 310 311 313 314 315 319 320 321 323 323 322 323 321 321 321 322 321 321 320 321 322 323 323 324 325 325 325 326 327 326
308 311 313 314 312 312 313 310 309 308 312 313 313 314 314 313 312 311 310 311 311 313 317 319 320 322 323 323 322 322 322 322 322 321 323 323 321 320 325 325 324 321 322 323 322 324 324 324 325
311 312 312 313 312 312 310 310 308 310 313 312 310 311 311 311 311 309 311 311 312 316 319 319 320 323 324 322 322 323 322 324 323 323 323 323 322 323 324 319 320 319 320 322 322 322 322 323 324
307 305 309 310 308 307 310 305 306 311 311 309 308 308 310 311 311 312 313 313 314 315 319 318 320 322 322 322 322 322 323 325 323 324 323 323 322 322 321 319 319 320 320 320 321 321 322 322 323
300 298 295 303 306 308 305 300 308 310 309 308 309 308 309 309 312 312 313 314 312 315 317 319 324 321 321 319 321 323 324 324 323 323 323 324 324 323 320 319 320 320 319 319 319 319 319 320 320
296 293 295 299 306 307 304 302 308 311 309 308 308 309 310 309 310 312 314 315 313 316 316 318 319 319 319 321 322 323 324 323 324 323 323 322 323 322 320 320 320 320 318 317 318 317 319 318 319
293 293 296 298 303 304 303 302 307 309 309 308 308 309 309 309 310 313 315 315 313 316 317 319 320 319 321 322 321 323 322 324 325 325 323 323 322 323 321 320 320 320 317 316 317 316 319 319 319
299 296 296 301 305 302 302 303 306 308 307 307 306 306 308 308 312 314 317 316 315 317 318 318 319 320 321 318 319 318 319 322 323 326 326 325 322 323 321 320 320 319 317 316 317 317 318 317 319
297 297 296 300 304 301 301 301 306 307 306 305 306 306 306 308 312 315 315 314 314 317 319 319 320 319 320 318 322 320 321 322 323 324 325 327 325 326 323 321 320 319 317 317 318 318 316 317 319
297 296 298 298 302 303 300 298 301 306 307 308 307 307 309 309 310 313 315 313 314 316 318 320 320 320 318 321 321 320 320 321 322 323 324 323 324 327 324 322 320 319 318 317 317 318 317 316 318
294 301 301 301 298 292 300 289 296 301 302 304 305 305 307 309 311 314 314 312 313 314 317 320 320 318 320 320 319 319 318 317 319 320 321 321 323 324 324 322 321 320 318 317 318 320 319 319 317
297 302 300 300 298 294 296 290 294 299 300 303 304 305 307 309 311 312 313 314 314 317 317 320 317 320 321 319 320 320 317 319 319 319 319 320 322 325 324 323 321 319 318 318 321 319 319 319 319
303 300 299 299 296 289 295 293 295 296 300 302 304 307 307 308 310 312 315 314 314 315 317 317 316 318 320 320 320 319 318 318 317 317 318 318 319 323 322 323 320 318 318 319 319 319 320 319 321
300 294 287 283 285 287 295 292 295 300 303 304 303 305 307 309 311 314 314 313 312 314 315 316 316 317 318 319 320 319 320 318 316 316 317 316 316 317 318 320 321 319 319 321 321 320 323 320 321
294 293 289 282 283 287 296 290 295 303 305 306 307 308 308 308 312 313 314 313 312 314 315 316 315 314 314 317 319 319 320 318 317 318 318 317 317 317 319 321 321 322 322 323 321 323 323 322 321
294 292 297 290 291 287 290 295 302 303 303 306 307 308 307 308 311 313 314 312 310 312 314 314 316 315 313 317 319 320 321 320 319 319 319 318 318 320 321 321 321 322 323 322 323 324 323 324 325
296 298 291 289 284 282 288 291 293 297 300 306 306 306 306 308 311 313 313 311 310 312 311 311 316 314 316 317 317 322 325 322 322 319 319 319 319 320 321 321 321 322 322 322 324 323 322 326 327
293 292 293 293 290 285 282 288 298 300 300 306 306 307 308 309 311 313 312 312 310 310 309 311 315 313 314 317 317 323 324 323 323 322 319 320 320 320 322 322 323 322 322 323 323 321 323 325 326
297 294 295 291 287 289 288 290 301 302 303 308 307 309 309 311 312 312 312 311 310 309 310 313 314 314 314 316 316 323 324 323 322 321 321 321 320 321 322 324 324 324 322 323 324 323 324 324 324

GFSSGP_sfc_thetae_009.txt.gz
Theta_e
337 334 324 315 307 304 300 304 308 309 303 307 307 305 304 305 304 298 318 333 330 328 337 351 354 353 352 351 350 349 348 347 344 342 340 340 341 340 340 339 339 338 337 337 337 337 336 336 336
331 326 317 315 303 298 300 309 308 308 307 307 306 305 305 307 316 320 325 334 333 333 340 347 354 354 352 352 351 350 348 346 345 344 344 344 344 343 342 341 341 341 340 340 340 339 338 337 337
324 318 309 310 302 299 301 308 308 311 311 306 305 309 310 310 319 320 325 334 331 334 341 345 354 353 353 352 352 351 349 348 346 346 346 345 345 344 343 342 342 343 343 342 341 341 340 340 338
319 320 315 305 302 306 308 311 313 311 306 306 307 307 311 318 319 320 333 332 331 332 339 347 355 354 354 353 352 352 350 349 347 348 346 345 344 343 343 343 343 342 342 341 342 342 342 341 340
322 314 305 300 303 307 310 312 308 307 305 305 307 307 308 316 322 328 335 332 328 331 336 344 354 354 354 353 351 350 350 350 349 348 346 345 344 343 342 342 341 341 341 340 340 341 343 342 342
312 308 297 295 300 305 308 310 308 307 308 305 307 307 308 316 321 330 336 333 333 334 336 343 353 354 354 354 352 352 352 350 348 346 344 343 342 342 341 341 341 339 339 340 340 342 343 342 342
308 304 299 298 303 304 307 309 306 306 306 307 309 306 309 314 319 322 325 331 334 337 340 344 347 351 354 353 353 352 348 346 344 342 338 336 335 336 336 337 337 338 338 338 339 340 342 342 341
311 305 299 300 299 301 307 307 306 306 307 311 314 307 307 313 317 317 325 330 333 338 341 342 342 344 342 343 350 348 345 343 340 336 335 335 335 334 334 334 335 336 336 336 338 338 341 341 340
312 300 298 300 300 303 307 304 310 312 308 309 310 312 315 317 316 315 315 317 322 331 331 333 333 332 333 335 338 343 342 338 336 335 336 334 327 325 327 329 332 334 336 337 337 337 340 339 338
308 300 301 306 306 304 307 308 311 308 309 306 309 314 318 316 315 314 312 313 314 321 323 326 326 328 329 333 330 329 328 327 327 328 325 323 321 320 325 329 333 334 335 335 336 337 338 337 329
307 303 308 309 310 309 308 309 313 309 307 310 307 309 313 313 313 314 314 314 315 319 317 318 320 324 325 325 324 325 324 321 321 323 322 320 322 321 321 321 321 322 328 326 328 330 330 330 327
303 309 311 311 312 310 309 313 310 311 310 314 312 313 313 311 311 313 312 312 309 311 314 316 318 319 319 321 322 322 320 320 319 320 321 319 319 319 319 319 321 321 322 322 323 324 325 325 326
305 308 310 312 311 312 312 309 309 310 314 315 311 313 313 313 312 313 314 313 309 310 313 316 317 318 319 320 320 320 320 321 320 319 320 321 319 319 319 321 323 323 322 321 320 322 323 324 325
308 308 310 311 311 312 309 310 311 312 315 313 310 310 312 313 313 311 308 309 309 312 314 316 318 320 321 320 320 320 320 320 320 321 321 323 321 319 320 321 321 318 318 319 320 321 321 321 322
302 299 303 306 308 308 310 305 305 311 311 309 309 308 310 313 313 311 312 311 311 314 316 318 319 321 321 319 320 320 321 322 321 322 322 322 321 320 320 318 317 318 318 318 319 319 320 320 321
296 295 293 301 305 308 304 299 306 310 308 308 309 308 308 310 311 313 311 311 312 316 317 318 323 320 320 319 319 320 321 321 321 321 321 323 322 321 319 317 317 319 318 317 317 317 317 317 318
292 291 292 297 303 303 301 299 306 309 307 306 307 308 306 307 307 309 311 311 312 317 317 317 319 318 318 317 318 320 321 321 322 321 321 322 324 323 319 317 318 319 317 316 316 315 317 316 317
289 289 294 295 299 301 300 300 305 308 307 306 307 309 307 308 307 309 311 311 313 315 316 317 317 317 317 318 318 319 320 320 322 322 322 323 322 323 318 317 318 319 316 315 314 314 316 316 316
295 293 293 297 301 300 298 299 303 306 304 305 307 307 306 307 308 310 312 312 315 315 316 317 316 316 318 317 316 317 317 318 320 323 324 324 325 322 320 318 319 318 316 315 315 315 315 315 317
295 293 294 298 302 299 298 298 302 304 304 306 307 306 305 306 309 311 311 312 314 315 316 316 317 318 318 316 318 318 317 320 320 321 326 327 325 323 323 320 319 317 315 314 315 315 314 315 316
295 293 294 295 299 300 298 296 299 304 304 306 305 305 306 307 308 311 311 311 313 316 316 317 317 318 318 318 318 318 318 319 319 319 320 321 323 324 324 322 319 317 316 314 314 315 316 314 317
292 299 298 296 294 290 297 287 295 299 301 302 304 303 305 307 309 312 312 310 313 315 317 318 318 317 317 319 317 316 316 315 316 317 318 319 322 323 323 321 319 317 316 314 315 317 316 316 315
295 300 298 297 294 291 294 289 293 297 298 300 302 302 303 306 309 311 311 312 313 314 317 317 318 316 318 318 317 318 315 316 317 317 316 317 319 322 322 320 319 317 316 315 317 317 317 317 316
300 296 295 294 291 286 293 290 292 295 298 300 302 304 305 305 308 310 311 312 312 314 316 316 316 317 318 318 318 317 316 315 314 315 315 315 317 320 320 321 318 317 316 318 317 317 318 318 318
296 290 283 280 283 284 293 290 294 299 301 303 303 303 304 306 309 310 310 310 311 313 315 314 314 315 317 319 319 317 317 316 314 314 315 314 315 315 316 318 317 317 318 318 318 318 318 317 319
293 293 285 280 281 285 293 289 295 301 304 305 305 303 306 306 309 310 311 311 311 313 314 315 314 315 314 316 318 316 318 315 314 318 316 315 315 315 316 319 319 320 321 320 319 319 319 319 319
292 290 295 287 289 286 289 294 299 301 302 304 304 305 304 306 309 311 311 310 311 312 312 314 313 312 312 316 318 317 318 316 316 316 316 316 316 318 318 319 319 321 320 320 320 320 323 324 323
292 295 286 284 280 279 287 289 291 296 299 303 303 303 304 306 309 311 311 309 310 312 312 312 315 313 312 315 317 320 321 319 317 317 317 316 317 318 318 319 319 320 320 321 321 322 325 326 326
289 290 288 290 288 282 281 287 296 298 300 303 303 304 305 307 310 311 310 309 310 310 310 310 314 312 313 315 315 322 321 321 319 318 318 318 317 319 319 319 320 319 320 320 320 323 325 326 325
295 292 292 287 285 287 287 290 300 299 300 304 304 305 305 308 310 311 310 308 307 308 307 309 313 312 313 315 315 321 322 321 319 318 318 318 318 319 321 321 321 321 320 320 322 323 324 325 324

GFSSGP_sfc_thetae_015.txt.gz
Theta_e
338 332 325 321 311 311 307 311 314 314 314 313 313 312 312 314 315 308 330 337 338 332 337 351 355 353 351 350 348 347 347 346 343 341 340 339 339 339 339 338 338 338 338 338 338 337 337 336 336
332 326 326 322 311 304 308 315 314 318 318 320 315 312 311 311 318 324 331 337 336 334 341 345 355 353 352 351 350 349 348 346 344 343 342 341 341 341 341 341 341 340 340 339 340 340 341 340 338
327 322 322 319 313 308 309 314 317 318 321 316 312 314 313 315 322 327 335 339 334 336 342 349 355 353 352 352 352 351 349 348 346 343 342 342 343 343 345 343 343 342 341 340 342 343 342 341 341
323 325 322 310 308 313 314 317 319 319 318 313 312 312 317 322 323 328 337 339 333 335 342 349 355 353 353 352 352 352 350 349 346 344 344 344 344 345 345 345 344 343 343 342 343 342 343 342 343
329 325 310 309 308 313 317 320 319 316 315 314 312 311 315 320 326 329 337 338 335 335 339 347 354 354 353 354 353 352 351 350 349 347 346 347 346 345 345 344 343 343 342 342 342 342 344 342 344
318 320 307 302 305 311 315 318 317 314 314 314 311 311 315 322 325 330 337 340 339 338 340 346 354 354 353 353 352 352 351 351 351 350 349 349 346 345 344 343 342 342 342 342 341 341 343 343 343
314 313 304 304 303 307 310 316 314 314 313 313 315 310 317 321 325 331 337 340 339 341 342 346 350 354 354 353 352 352 352 351 351 350 350 347 344 342 338 337 337 338 338 339 340 340 341 341 340
318 315 306 306 303 304 311 313 314 314 313 317 317 312 315 322 325 333 337 337 337 339 342 345 350 350 350 350 353 352 352 352 351 350 346 344 339 336 336 336 335 335 336 337 338 339 339 340 341
317 308 303 304 304 307 312 311 314 317 316 317 317 319 321 323 325 330 334 334 335 336 339 343 344 348 348 348 349 352 352 350 348 344 342 340 336 337 336 334 334 334 333 334 336 337 337 339 339
314 308 306 310 311 309 311 312 313 313 314 315 317 321 320 322 323 324 329 329 332 334 336 339 343 346 347 346 349 349 347 344 342 341 339 338 339 338 334 333 333 333 334 335 336 337 337 336 337
313 307 312 312 313 313 312 312 315 312 310 314 314 318 321 323 322 323 326 329 330 334 337 339 343 346 346 345 345 345 342 341 341 340 339 338 336 335 333 332 333 334 331 331 332 333 332 332 337
307 312 313 313 315 313 311 314 311 314 315 319 319 321 321 321 322 322 324 328 330 332 336 340 343 344 346 344 342 339 338 337 335 336 338 337 334 335 333 331 332 333 332 333 334 333 335 335 336
309 311 313 315 315 314 315 312 312 313 316 319 320 320 321 321 322 323 324 327 330 330 333 339 342 342 343 341 338 336 336 334 335 335 335 334 333 333 333 332 332 332 332 333 332 333 333 334 336
309 310 310 313 313 313 311 310 312 313 318 317 318 318 319 320 320 321 323 324 327 330 330 335 338 342 339 337 337 335 335 334 335 334 334 334 333 333 332 332 332 332 333 331 332 331 331 331 334
309 305 309 309 310 310 309 304 305 312 314 313 314 317 318 319 320 319 324 326 328 328 328 331 337 338 336 336 335 334 333 334 333 334 336 334 335 334 334 333 332 332 333 332 332 331 332 331 333
301 301 297 303 305 306 305 299 307 312 312 312 314 315 315 318 320 322 324 327 328 327 324 329 330 333 334 334 333 332 332 333 333 334 335 335 336 336 335 332 332 333 331 330 330 329 328 329 330
298 294 295 298 304 304 305 301 307 311 310 310 312 313 314 316 320 324 323 325 326 325 326 327 330 331 331 333 332 333 334 333 334 335 335 336 335 335 334 333 332 333 330 329 329 329 328 327 329
293 293 296 296 301 302 301 301 306 308 308 309 311 313 314 315 317 322 323 323 323 324 329 330 330 331 332 331 331 331 332 333 334 334 335 335 335 335 334 332 331 331 328 328 329 329 328 328 330
298 298 297 300 302 300 300 300 304 308 309 309 310 312 315 317 320 318 318 320 322 324 326 328 329 331 330 327 327 328 329 332 333 334 336 335 336 335 335 330 329 327 326 329 330 328 327 326 330
296 295 296 299 301 300 300 300 305 307 307 309 310 312 314 316 318 318 317 319 322 324 326 328 329 330 330 330 331 332 333 334 334 335 336 336 336 336 334 332 329 329 328 329 328 327 324 327 329
295 293 294 295 299 301 300 298 301 305 309 310 311 313 315 315 317 317 316 318 322 323 325 327 329 330 331 332 331 333 334 333 332 334 335 335 334 333 333 332 332 332 330 329 328 327 326 322 326
292 298 297 296 295 291 300 291 299 303 304 307 310 312 314 316 316 317 317 318 321 323 326 329 330 331 331 333 332 332 331 330 331 333 333 334 332 332 333 333 333 332 330 329 327 328 327 327 323
295 299 298 297 295 295 296 293 297 302 301 304 308 312 315 314 315 317 317 319 322 324 326 328 331 331 332 332 332 332 333 332 333 333 331 332 333 332 331 332 332 332 330 330 329 328 328 328 328
301 299 299 299 297 289 294 293 293 298 301 305 310 313 312 313 315 316 318 321 322 325 327 328 330 331 331 331 332 334 332 330 329 330 330 331 331 332 332 330 332 331 331 331 329 330 330 330 332
300 296 289 287 287 287 296 293 294 303 305 306 309 313 313 315 315 316 318 319 322 324 326 328 329 328 330 330 331 332 330 329 328 328 330 329 329 330 331 331 331 332 332 332 332 331 330 331 330
297 296 289 283 285 289 295 290 294 305 308 309 311 313 313 315 316 317 318 320 322 324 326 327 328 328 329 330 332 332 331 330 329 329 330 330 329 330 332 331 332 333 332 332 332 331 331 331 331
297 294 299 293 294 292 294 297 303 307 307 309 310 310 313 315 316 317 318 321 322 324 327 328 328 328 329 329 331 331 331 328 330 330 331 330 331 330 331 331 333 333 333 332 333 331 331 330 332
298 301 291 293 285 284 291 293 296 302 305 309 310 311 313 315 316 316 318 321 323 325 327 329 328 327 329 328 331 331 331 329 330 330 329 330 331 331 331 330 332 332 333 331 330 328 330 331 332
294 295 296 296 293 287 286 291 306 307 309 310 312 312 314 315 316 317 318 321 322 325 325 326 326 326 325 327 330 331 331 331 330 330 329 330 331 331 330 330 330 331 331 328 330 328 329 329 330
298 296 296 290 288 293 291 292 306 309 310 311 311 312 314 316 317 318 318 320 321 323 325 325 325 325 325 329 329 330 332 332 330 329 330 330 330 331 330 330 330 330 330 328 327 327 328 328 327

GFSSGP_sfc_thetae_018.txt.gz
Theta_e
336 329 329 328 313 310 307 311 320 317 317 319 320 318 317 318 315 312 335 344 344 338 344 352 354 353 352 351 349 348 347 346 343 342 341 340 339 338 337 338 338 338 337 338 338 338 338 337 336
326 324 327 325 309 306 310 318 316 320 322 325 324 322 318 316 321 323 330 342 343 338 344 347 355 353 353 351 350 349 348 347 344 343 342 341 341 340 340 340 341 341 340 340 340 341 341 341 340
324 329 323 316 314 310 312 318 321 321 323 319 318 319 318 318 324 326 338 343 343 339 341 347 355 354 353 352 350 350 349 348 345 344 343 343 342 342 343 342 343 343 342 342 342 342 343 342 342
325 326 324 312 312 315 318 320 321 321 321 319 318 316 321 326 326 330 338 343 340 339 341 348 355 354 353 352 352 351 350 348 347 345 343 343 343 345 346 344 345 346 345 343 343 343 344 343 343
329 325 312 309 309 313 318 323 325 320 319 319 318 316 318 325 329 331 337 342 338 339 341 346 355 354 354 353 353 352 352 350 349 346 345 345 347 348 346 346 345 345 345 344 344 344 346 345 344
320 320 308 305 308 313 316 319 320 319 319 319 317 317 319 326 328 330 336 342 341 339 343 348 355 355 353 353 353 352 352 351 350 349 349 349 350 347 346 345 344 344 344 343 343 343 343 342 342
317 314 308 308 308 310 313 319 317 318 318 318 321 316 322 324 330 332 335 340 343 342 342 347 354 355 354 353 353 352 351 351 351 351 350 350 348 346 344 342 339 339 339 339 340 341 342 341 341
318 316 310 311 309 308 314 316 318 318 316 323 321 316 318 326 330 332 335 336 340 343 342 345 352 353 350 350 354 353 352 352 352 352 351 349 346 343 338 338 337 336 335 336 338 339 339 342 341
322 311 308 310 310 312 317 315 319 321 319 320 322 321 325 327 329 330 332 335 335 337 342 344 345 350 350 347 349 353 352 352 352 350 348 344 339 339 340 340 334 334 335 335 335 336 337 338 338
317 311 311 315 316 315 316 316 317 316 317 317 320 324 326 327 327 327 328 329 333 336 337 342 346 348 349 343 349 352 347 348 346 345 343 343 341 341 338 337 334 334 334 335 335 337 337 338 336
317 311 316 316 318 318 316 316 319 316 314 317 318 321 324 325 326 326 328 330 330 334 337 340 347 350 348 344 346 347 345 344 344 344 343 342 340 340 338 337 336 337 336 334 334 335 335 334 335
312 316 317 317 318 317 316 319 316 317 317 321 322 323 323 323 324 326 328 329 329 332 336 341 345 349 351 345 345 345 342 342 340 340 343 341 339 339 339 336 335 336 335 334 335 334 335 336 336
312 315 317 318 318 318 318 316 316 316 320 322 322 322 322 323 324 327 330 331 332 331 336 340 345 349 350 350 345 343 341 338 338 337 341 340 337 338 338 337 335 334 335 334 333 333 335 335 335
313 313 314 316 316 317 314 314 315 316 318 320 320 319 320 320 322 325 328 329 332 334 336 341 345 349 349 350 349 343 341 338 338 336 339 341 339 338 337 336 334 335 336 335 333 332 333 333 334
312 308 311 312 314 312 315 310 311 316 317 317 317 318 319 321 322 324 327 329 333 335 338 340 345 348 350 348 346 342 338 337 335 337 341 341 341 340 340 337 337 337 336 338 336 334 334 332 333
307 308 303 311 312 313 312 305 312 316 315 315 315 316 317 320 321 324 327 330 334 337 337 340 340 345 348 347 343 338 337 335 336 338 339 342 342 341 340 339 338 337 337 336 335 332 330 330 330
305 299 303 305 312 310 307 304 311 316 315 314 315 316 317 319 320 325 327 329 333 337 338 337 340 342 346 345 341 339 339 336 337 338 339 341 341 341 341 340 337 339 336 334 333 330 332 330 329
299 301 302 303 309 307 306 305 311 314 313 313 314 315 316 318 319 323 328 330 331 334 338 337 338 343 344 340 338 335 334 336 337 338 338 340 341 340 338 339 338 338 333 332 330 332 331 330 330
303 303 302 306 309 307 306 306 310 314 312 312 314 315 316 318 323 326 328 329 329 332 334 335 337 341 338 334 331 331 330 333 335 337 340 341 340 340 338 340 337 335 329 328 333 334 329 329 331
301 300 301 305 308 307 306 305 309 311 312 313 314 315 316 319 321 325 327 328 329 331 333 335 337 339 337 334 333 332 331 332 335 337 340 341 340 339 337 336 336 335 330 331 332 332 329 329 334
300 299 300 300 304 307 304 301 305 310 313 314 315 316 318 318 318 324 326 327 330 331 333 335 337 338 337 338 336 336 336 337 332 335 336 338 339 338 337 336 336 336 337 333 333 332 330 327 331
297 302 301 300 299 295 304 295 303 308 309 311 313 315 316 318 322 324 326 327 330 330 333 335 336 337 337 339 335 335 329 327 333 335 338 336 337 335 335 336 335 335 337 335 333 331 331 332 328
299 302 300 300 298 298 299 296 301 306 305 308 312 315 317 319 323 324 326 327 329 330 332 334 337 337 338 337 337 333 333 333 336 334 335 337 337 335 333 335 335 335 335 334 334 332 331 330 331
303 300 300 301 299 292 298 297 298 302 306 309 313 314 316 320 322 325 327 328 328 331 332 334 335 336 337 337 337 336 336 335 332 333 332 335 337 336 335 333 334 336 335 334 333 333 332 333 335
301 298 292 291 292 291 300 298 300 307 310 311 311 314 319 322 323 324 325 325 327 329 331 333 334 334 335 335 335 338 337 336 334 333 333 332 334 335 333 335 336 336 337 336 335 334 334 334 335
298 299 294 287 290 293 301 295 301 308 311 313 313 315 318 321 324 324 325 326 327 329 331 331 332 332 333 333 335 338 338 334 334 334 334 334 334 332 335 335 335 336 335 336 336 336 333 335 336
299 297 303 297 298 295 299 302 307 309 309 313 314 314 318 322 324 324 326 327 328 329 331 332 332 331 331 333 337 337 338 336 334 334 337 333 335 332 334 335 335 336 335 335 336 337 336 334 333
302 304 296 297 291 289 295 298 301 305 307 310 314 316 320 323 323 324 325 327 329 331 332 333 332 330 331 334 335 335 337 336 335 335 333 333 334 333 333 334 335 335 335 336 335 334 334 332 333
299 299 300 301 298 292 292 296 306 307 311 312 315 319 320 322 322 323 325 327 329 330 331 332 329 329 331 332 335 336 336 336 335 335 333 333 334 334 332 332 335 334 334 334 332 331 331 331 332
303 301 301 295 294 297 296 296 310 311 314 315 315 318 321 323 323 324 325 326 327 329 329 329 328 328 330 332 333 335 336 336 335 334 335 333 333 333 332 332 333 333 333 331 329 329 330 330 328

GFSSGP_sfc_thetae_021.txt.gz
Theta_e
336 328 330 327 314 312 310 311 319 317 319 322 323 320 319 320 315 312 336 340 340 340 350 351 354 353 352 350 349 349 348 346 343 341 340 339 337 336 335 336 336 336 336 336 337 338 338 339 337
324 323 328 323 310 307 309 316 317 320 323 325 324 323 320 317 323 324 331 341 341 340 351 347 354 354 353 352 350 350 348 346 344 343 342 341 340 339 338 339 340 340 340 339 340 340 341 341 341
332 326 322 316 312 308 310 317 320 323 324 323 320 321 320 319 326 327 339 341 341 340 350 349 354 353 353 352 351 350 350 348 345 344 343 342 342 342 341 342 342 343 343 343 342 342 342 343 343
323 325 323 314 311 316 316 321 322 321 324 322 321 317 323 329 326 330 336 339 339 338 345 353 354 354 354 353 352 351 350 348 347 345 344 343 343 344 344 343 344 345 345 346 344 344 343 344 344
326 322 313 310 310 314 318 321 324 322 322 321 321 317 319 328 330 332 335 338 338 338 340 352 355 354 354 354 352 352 351 350 349 346 345 344 346 346 346 345 346 346 346 346 345 345 345 344 344
319 320 311 307 310 314 317 320 319 320 322 321 319 319 321 329 329 332 334 337 339 338 341 347 356 355 354 354 353 352 351 350 350 349 348 348 349 348 347 347 346 346 344 344 343 343 344 343 342
317 316 310 310 309 312 315 320 317 318 318 319 322 316 323 326 332 333 335 337 340 340 340 343 357 356 354 354 352 352 352 352 351 350 349 350 349 349 348 346 344 342 339 339 339 340 341 342 341
319 316 311 312 310 309 317 318 321 318 318 324 324 316 319 327 331 331 333 334 337 340 340 342 350 356 354 350 354 353 353 352 352 351 350 350 348 348 346 343 340 338 337 336 336 338 339 340 342
320 311 308 311 311 312 318 317 321 322 320 321 323 323 325 329 330 329 329 330 332 335 340 342 341 350 353 348 349 353 352 351 351 349 349 349 344 339 343 342 338 336 336 335 335 335 336 338 339
314 311 311 317 317 315 318 318 319 319 318 319 320 324 327 328 328 327 326 326 329 331 336 340 344 347 350 345 350 352 347 347 347 346 345 346 343 342 340 342 335 336 336 336 335 336 337 338 335
315 311 317 318 319 320 318 318 321 318 316 319 318 322 325 325 326 326 326 326 328 332 334 339 352 355 351 346 344 349 346 345 347 347 350 347 340 341 340 340 339 339 337 337 336 336 336 335 333
313 317 318 319 320 318 318 320 318 319 320 323 323 324 324 324 324 325 325 326 328 332 334 339 345 355 357 349 343 346 346 346 344 345 349 345 340 342 341 338 339 340 337 340 336 334 341 336 336
313 315 317 319 319 318 319 317 317 318 322 324 324 324 323 324 324 325 326 327 329 332 334 336 347 355 358 359 346 347 348 343 344 342 343 342 340 342 339 340 338 338 336 335 339 337 335 338 336
315 315 315 316 316 317 315 316 318 319 323 322 321 321 323 323 323 324 326 326 329 335 336 338 348 356 354 355 359 353 352 344 341 339 339 344 342 343 339 341 337 338 337 336 335 335 336 336 334
315 311 314 315 315 314 316 312 313 319 320 319 320 320 321 322 323 323 326 330 330 335 341 344 352 356 357 357 355 352 345 342 339 338 342 342 344 343 342 338 339 343 347 340 339 337 337 332 333
309 311 306 312 314 315 314 306 314 319 318 318 319 319 320 321 322 325 326 330 336 338 342 343 340 348 356 356 353 349 342 340 337 337 339 343 344 343 342 339 339 345 342 342 339 334 332 331 330
308 302 305 307 314 313 312 308 315 318 317 317 318 319 319 320 322 328 327 328 336 342 345 342 348 345 353 356 351 350 351 339 336 337 338 341 342 341 342 339 341 343 340 337 336 335 333 331 330
300 302 304 304 310 311 310 309 314 316 315 315 317 318 319 319 321 326 328 329 333 337 342 347 346 353 356 351 350 342 338 337 336 337 337 341 340 339 343 339 342 343 337 336 334 335 331 330 335
305 304 304 307 312 309 308 309 312 314 314 314 316 318 318 319 323 325 327 331 334 336 339 344 343 352 350 345 339 336 333 336 335 336 339 339 340 342 342 341 340 340 336 334 335 332 332 332 335
303 302 303 307 311 309 309 308 312 314 314 315 315 317 318 319 322 323 326 334 334 336 339 340 341 347 348 343 342 337 337 334 334 336 339 340 340 341 339 339 340 339 338 336 332 335 332 334 336
302 301 302 303 307 310 307 305 307 312 314 315 316 317 318 319 320 323 324 334 334 335 338 339 341 345 346 347 342 339 337 337 334 333 334 338 339 340 340 338 338 338 339 336 336 334 331 329 333
298 305 304 304 302 298 306 296 305 309 310 312 314 317 318 319 321 323 325 332 334 335 337 339 342 342 342 346 343 344 334 329 332 336 334 337 338 337 337 337 336 336 339 335 334 336 332 333 329
301 305 304 304 301 301 301 298 302 308 307 310 314 316 318 319 320 321 328 332 334 335 336 339 341 340 342 342 344 335 336 331 333 333 336 339 339 337 336 336 336 337 338 337 335 333 333 335 333
305 303 304 304 301 294 299 298 300 304 308 311 314 316 318 319 321 325 331 332 333 334 336 338 338 338 340 338 339 339 337 334 332 333 335 337 340 338 337 334 336 337 338 335 333 335 334 334 336
303 300 293 292 292 293 301 299 302 309 312 313 314 315 317 321 324 327 329 329 331 333 334 335 336 337 337 337 336 336 337 337 336 335 336 335 335 337 337 335 337 337 337 337 337 336 335 336 335
300 300 294 288 291 294 302 297 303 312 312 314 316 317 321 323 326 327 328 329 330 332 333 334 335 334 335 335 335 337 338 335 336 336 334 337 335 337 336 336 337 336 336 336 337 342 339 337 338
300 298 303 298 301 297 301 304 310 312 312 312 314 315 320 324 326 327 328 330 330 332 333 334 334 334 334 333 336 337 338 336 336 336 337 335 336 333 335 336 336 335 335 336 336 337 335 335 336
302 305 296 299 291 292 298 301 302 307 309 312 314 315 320 325 326 327 328 330 331 332 334 335 334 333 332 334 335 335 337 337 337 335 334 336 334 333 334 335 336 335 335 336 337 336 335 334 335
298 299 300 301 300 294 294 299 311 310 311 312 316 319 322 324 325 327 328 329 331 332 333 334 332 331 331 334 334 337 336 336 336 334 333 334 334 333 332 332 334 334 334 335 334 334 333 331 330
302 301 301 297 297 299 300 299 311 312 314 315 316 321 324 325 325 326 327 329 330 331 332 332 330 329 331 332 333 334 336 337 336 335 336 334 333 332 331 330 330 332 332 333 332 330 331 330 328

GFSSGP_sfc_thetae_024.txt.gz
Theta_e
335 330 324 320 310 309 306 310 316 318 318 322 321 319 317 319 315 311 337 337 344 347 346 349 353 352 351 350 349 348 347 346 345 344 342 341 339 336 335 335 335 335 335 335 336 337 338 338 338
325 320 322 318 306 304 306 314 314 318 322 323 322 322 318 316 323 329 332 341 344 349 347 345 353 352 352 350 349 348 348 347 346 346 344 342 339 338 337 337 338 338 339 338 339 339 341 341 342
330 322 316 311 310 305 307 316 317 322 324 322 319 322 319 319 325 329 338 341 344 349 349 348 354 353 353 352 350 350 349 348 348 345 344 342 342 341 341 340 341 342 343 343 343 342 342 342 344
323 320 317 310 309 312 313 319 321 321 324 324 321 316 323 328 327 330 335 337 338 344 348 353 353 353 353 352 351 351 350 349 349 346 346 345 344 345 345 343 343 343 345 346 346 345 345 345 347
322 317 309 306 308 313 316 320 319 320 322 322 322 317 320 327 330 332 336 339 338 337 347 353 353 354 354 353 352 351 350 349 349 348 347 347 347 347 346 346 345 346 346 346 346 346 346 344 344
313 316 306 305 309 313 316 318 317 316 318 319 319 319 320 329 330 332 334 339 337 341 345 355 354 354 353 353 352 351 350 350 350 349 349 348 348 348 348 349 348 347 346 345 344 344 345 344 344
311 311 307 308 309 311 314 319 316 316 316 317 322 316 323 326 331 335 342 338 339 340 343 355 353 353 354 353 352 351 350 350 350 349 350 350 349 350 350 349 348 345 344 341 340 340 341 344 343
314 312 308 311 309 309 316 318 319 317 316 323 323 316 318 328 331 331 330 330 332 338 340 354 353 351 351 351 353 352 351 351 351 351 351 350 349 349 349 349 347 343 341 338 337 337 338 340 342
316 306 305 308 309 312 318 315 320 322 319 320 322 321 324 327 328 328 330 329 329 329 338 351 354 354 352 349 350 353 352 352 352 351 351 349 344 340 344 346 346 344 341 339 338 336 336 337 338
311 306 307 313 314 314 317 317 318 318 318 318 320 325 326 326 326 325 325 325 327 327 330 339 343 353 352 349 348 350 349 348 347 345 345 347 343 344 340 342 345 340 340 338 337 337 337 336 333
314 308 311 314 317 318 316 317 321 318 316 319 319 322 324 324 327 326 324 325 326 329 330 339 346 349 351 348 347 349 346 346 344 344 346 347 345 344 341 339 339 337 339 335 335 334 333 334 333
310 314 314 315 317 317 316 319 317 318 319 323 324 325 325 324 325 325 324 325 325 329 336 343 346 350 350 349 346 349 348 345 344 345 348 346 345 343 343 340 340 336 338 335 338 334 336 335 336
310 313 316 317 317 318 319 316 316 317 321 323 324 324 324 324 325 327 327 327 330 333 335 342 348 349 352 354 346 347 349 345 345 346 348 345 342 341 344 342 343 342 341 336 337 336 336 335 335
314 312 313 315 315 316 314 315 316 317 320 321 322 322 323 324 324 325 327 331 335 337 339 347 350 350 352 348 355 349 351 348 346 346 345 345 343 344 343 343 341 339 339 338 337 335 335 334 334
312 309 312 313 314 313 316 311 313 319 320 318 320 321 322 323 325 323 326 333 344 338 345 347 353 352 350 352 350 360 352 351 346 345 346 344 344 345 345 342 341 340 342 339 337 336 336 333 333
307 307 303 311 314 315 314 305 314 319 318 317 318 320 322 323 323 326 330 337 342 343 343 348 338 351 353 354 351 351 351 347 346 344 345 345 347 345 344 341 339 342 341 339 336 334 332 332 331
305 300 302 306 313 312 311 307 314 319 317 317 318 319 320 321 323 330 332 331 332 342 344 348 348 351 352 354 353 351 355 346 346 345 343 344 344 344 342 339 339 343 339 337 335 333 332 331 329
298 299 302 303 309 310 309 309 314 317 316 316 318 319 318 319 322 327 333 332 337 345 352 352 351 355 353 353 352 350 347 345 344 343 343 346 343 343 342 340 341 341 337 335 334 332 332 330 328
302 302 301 306 310 308 308 309 311 315 315 315 317 317 318 320 326 329 330 333 339 341 347 352 354 358 351 349 346 344 339 340 340 342 344 343 344 342 343 340 340 338 336 334 333 332 330 328 329
299 299 300 305 308 308 307 307 312 314 315 316 317 317 318 320 322 325 330 334 341 342 345 350 350 351 351 349 347 344 341 337 338 340 343 343 342 342 336 339 337 338 335 333 330 330 328 327 330
299 298 300 300 305 307 306 304 308 312 315 316 317 318 319 319 319 322 325 337 338 340 343 344 347 351 350 351 347 349 341 344 339 341 340 341 341 340 340 339 337 336 334 332 330 330 328 324 329
296 302 301 301 300 297 305 295 306 309 310 313 315 316 318 319 321 322 326 335 337 337 340 343 346 348 349 347 343 341 336 335 338 337 338 339 341 339 339 338 336 336 335 333 333 332 330 327 323
298 303 301 301 300 300 300 298 302 308 306 309 313 316 318 320 321 323 326 335 336 337 339 342 345 345 346 344 343 341 340 339 341 339 340 341 341 339 338 338 337 336 335 334 333 332 330 329 326
304 301 301 301 300 294 299 298 298 303 306 309 314 316 318 319 321 323 332 334 334 336 338 341 341 342 341 345 345 341 340 341 338 337 338 338 339 340 338 337 336 336 335 334 333 332 331 330 329
300 299 291 290 291 290 300 298 300 307 310 312 314 316 318 320 321 329 330 331 332 334 337 338 338 337 340 342 340 343 342 341 339 339 336 337 336 336 337 337 335 335 336 335 333 333 331 332 328
298 299 292 285 288 292 300 295 300 310 313 315 314 317 319 322 327 329 330 330 331 334 335 335 337 336 338 338 338 342 343 338 340 340 337 335 335 336 337 337 336 336 336 335 335 334 333 332 329
297 294 301 296 297 293 298 302 307 310 312 313 312 317 321 324 328 328 329 330 332 333 335 336 336 336 336 337 340 341 341 339 338 341 340 336 338 335 337 336 336 336 335 334 333 332 333 333 331
299 302 294 297 289 289 295 298 300 307 310 312 312 316 323 326 326 327 328 330 332 334 336 336 336 335 335 335 338 338 334 339 338 336 336 336 337 332 336 336 336 334 335 335 332 333 332 333 331
296 296 298 300 297 291 291 296 313 311 312 313 315 316 323 324 325 326 328 331 332 333 333 335 334 333 333 336 338 337 337 338 333 335 332 336 337 331 333 334 334 334 333 334 333 332 331 327 326
300 297 299 294 293 297 297 298 314 315 314 316 316 319 324 325 325 327 328 329 330 332 332 333 333 330 333 334 336 336 338 337 336 335 333 335 334 334 331 331 333 333 332 331 331 329 331 327 324

GFSSGP_sfc_thetae_027.txt.gz
Theta_e
334 332 323 317 303 302 298 304 310 314 315 315 318 316 312 313 313 309 327 339 341 343 347 351 354 353 351 350 349 348 347 346 345 344 342 340 340 337 337 336 336 336 335 335 335 335 336 337 338
326 320 314 311 300 296 299 307 310 316 320 321 319 316 313 316 325 326 329 343 343 342 345 347 354 352 351 351 349 348 347 347 346 345 342 340 340 339 337 337 337 337 338 338 338 339 339 340 341
329 324 305 304 302 299 299 309 313 320 324 322 316 318 317 317 327 328 333 345 342 340 343 344 353 352 351 351 350 349 348 348 347 345 343 341 341 341 342 340 340 341 342 343 342 342 342 342 342
318 316 309 302 302 308 308 312 319 320 323 323 320 315 319 328 325 327 342 345 342 341 341 349 353 353 352 351 350 349 349 349 348 346 345 344 343 343 344 342 342 342 343 344 345 346 345 344 344
317 310 299 300 304 310 312 314 319 318 320 320 320 317 316 323 328 330 331 345 342 341 340 349 353 353 352 352 351 350 350 349 349 349 347 346 347 347 346 344 343 344 345 346 345 346 346 345 345
307 308 298 297 304 310 313 315 313 313 314 315 316 317 316 325 325 327 331 329 340 342 341 347 352 353 352 352 352 351 349 349 349 349 349 349 349 348 347 345 346 347 347 345 345 344 344 345 344
304 300 299 301 303 307 312 315 311 310 311 314 317 313 317 322 325 327 326 329 328 342 343 346 347 350 354 353 351 350 350 349 349 349 349 349 349 349 349 349 348 348 347 345 343 341 341 342 343
309 302 298 302 303 306 315 315 311 313 313 321 320 312 312 321 327 326 324 323 325 340 346 345 345 346 345 347 353 351 350 350 349 349 349 350 349 350 350 349 349 347 345 343 340 339 338 339 342
315 298 296 301 304 307 314 312 317 320 316 318 320 319 320 322 321 319 317 318 318 329 345 345 345 345 344 344 348 351 352 351 350 349 350 348 342 341 343 346 348 347 344 343 341 340 338 337 337
314 299 300 306 309 309 311 313 315 315 316 315 317 323 324 324 319 318 315 314 314 317 342 345 345 344 344 346 345 346 345 344 345 344 343 342 339 334 337 342 350 348 347 346 343 340 338 337 330
312 305 307 308 310 312 312 312 316 314 312 316 316 319 322 321 318 318 317 315 315 317 322 344 345 345 344 344 344 345 344 343 344 340 338 340 339 335 337 333 340 336 343 333 337 333 332 330 329
306 311 311 310 312 311 310 314 313 315 314 319 318 319 320 319 317 317 316 317 317 317 319 337 346 347 345 345 342 343 342 342 341 341 337 339 337 335 333 331 333 331 331 330 328 329 330 329 331
306 307 310 314 313 313 314 312 312 313 318 320 319 318 317 317 318 319 319 319 318 316 319 325 340 346 345 341 343 342 341 340 339 338 338 339 336 331 331 330 331 330 330 329 329 331 331 329 329
306 310 309 310 311 313 311 312 313 314 317 316 316 315 315 316 317 317 318 318 318 318 319 326 339 343 344 342 341 342 342 341 339 339 339 340 335 332 332 333 332 330 329 329 329 328 327 327 327
305 301 305 308 310 308 311 306 308 313 315 314 315 316 317 317 318 317 317 318 320 322 321 328 336 340 341 341 339 341 343 341 339 339 341 339 335 333 334 331 330 330 330 330 328 328 328 327 327
300 300 296 303 307 309 308 300 309 313 314 313 315 316 316 315 317 318 318 317 323 321 323 328 342 341 342 340 341 343 342 339 338 336 338 337 335 335 334 330 330 330 331 329 328 327 326 326 325
298 292 295 299 307 306 306 302 310 314 313 312 313 315 315 316 315 316 319 319 318 319 324 329 337 342 342 342 341 342 340 336 334 333 333 338 337 338 333 331 330 331 331 329 328 327 325 323 324
292 294 297 296 303 305 303 303 308 311 311 311 313 313 313 315 314 316 317 320 318 319 326 330 335 341 342 344 341 340 337 334 334 332 333 335 336 337 333 332 331 330 329 328 326 325 325 324 323
297 298 296 300 304 303 302 302 306 309 309 309 310 310 312 313 315 316 321 320 318 328 333 335 338 342 344 342 340 336 332 331 331 333 333 335 335 335 333 330 329 330 328 328 326 325 323 323 323
295 293 293 299 304 302 301 301 306 308 308 309 310 311 310 311 313 316 317 319 325 326 333 336 342 343 343 342 338 336 331 330 331 330 331 333 334 333 330 330 328 328 326 326 325 325 322 321 322
293 292 293 293 298 300 299 297 300 305 307 309 310 310 311 312 312 313 314 322 327 330 333 336 338 341 340 340 338 333 329 328 327 327 329 331 332 333 330 330 327 327 326 325 322 322 321 318 319
290 297 296 296 294 289 298 288 297 301 303 307 309 308 309 309 312 312 313 325 327 330 333 334 339 339 339 337 332 329 324 324 325 325 327 329 332 334 332 329 328 326 326 324 324 325 321 320 317
293 299 297 296 293 292 294 290 295 300 300 302 305 307 308 310 312 312 313 327 329 331 331 335 337 336 335 332 330 327 323 325 326 328 327 328 328 330 331 329 328 326 325 325 324 323 322 321 318
298 296 296 295 292 286 292 291 292 296 299 303 306 308 309 310 312 315 327 329 329 332 334 335 334 332 332 331 330 326 325 326 323 325 326 325 327 328 329 330 326 325 325 325 325 325 323 321 320
294 289 283 282 284 283 293 292 294 299 303 305 305 307 309 311 316 324 325 326 328 330 333 332 331 328 330 332 328 330 325 326 326 325 324 325 325 325 326 326 325 325 327 327 326 324 324 324 321
289 290 284 278 281 285 294 288 293 303 306 308 308 307 313 321 322 323 324 325 328 331 331 330 329 328 329 327 328 329 327 326 327 326 325 324 323 325 325 327 327 328 330 330 328 326 325 326 324
289 286 293 288 290 285 289 294 299 302 303 306 306 309 317 320 321 322 323 326 328 329 327 329 328 328 328 327 328 328 328 327 327 326 326 325 325 325 328 327 327 328 328 329 327 325 326 324 326
293 294 286 288 281 280 288 290 292 298 302 304 306 309 317 319 321 322 324 326 327 328 329 328 328 327 327 328 328 328 328 328 327 325 325 325 325 327 327 327 328 327 328 328 327 325 327 323 323
290 288 288 289 288 284 283 288 300 302 303 303 306 316 317 318 320 322 324 326 327 328 328 327 326 326 325 327 327 328 325 327 326 326 328 324 324 329 326 327 328 328 327 326 326 326 326 323 322
293 291 290 285 285 289 288 289 304 308 306 306 314 317 318 320 320 323 324 325 325 326 326 325 325 324 325 328 328 330 328 326 326 325 328 324 323 324 325 328 329 328 326 324 328 325 326 323 323

GFSSGP_sfc_thetae_030.txt.gz
Theta_e
334 328 320 315 302 301 297 302 307 311 311 317 319 315 311 312 312 307 324 337 341 341 347 352 355 353 352 350 349 348 347 347 345 343 341 339 339 337 337 336 335 335 336 336 335 335 335 336 337
324 321 312 310 298 294 297 304 304 313 318 321 321 314 317 317 323 325 331 340 341 342 346 348 354 353 352 350 349 348 347 347 346 344 342 340 339 338 338 337 337 337 338 337 337 338 338 339 340
324 323 304 303 299 295 297 306 312 318 320 319 319 322 318 319 327 327 335 341 341 341 345 347 354 352 352 351 349 348 347 347 347 344 343 341 341 341 341 338 338 339 340 341 341 342 342 342 342
317 314 308 299 299 304 306 310 313 317 320 320 320 317 319 324 325 330 342 341 338 341 344 350 353 352 352 351 350 348 347 347 347 346 345 343 342 343 343 341 341 342 342 343 344 345 345 344 344
314 307 297 297 301 307 312 315 314 316 318 317 320 316 315 325 329 342 341 341 337 338 340 347 353 352 352 352 351 349 348 348 348 348 347 345 345 345 343 343 343 343 343 344 345 345 347 345 345
306 305 296 295 300 307 311 312 312 318 319 319 318 315 314 323 328 339 342 340 339 336 336 344 352 352 352 351 350 349 348 348 348 349 349 348 348 347 345 345 344 344 346 347 346 345 345 344 343
302 298 296 299 302 305 310 315 310 310 312 313 316 312 315 320 323 330 340 340 340 339 336 341 345 349 352 351 350 349 349 348 348 349 349 349 349 349 348 347 346 346 347 348 346 344 343 342 342
306 300 296 298 300 302 312 312 312 311 313 319 319 311 311 319 324 323 324 328 339 339 338 341 342 343 345 345 351 350 349 349 348 349 349 349 349 349 348 347 349 348 348 348 345 343 341 340 340
311 297 294 298 301 304 311 309 315 318 315 316 318 316 318 324 324 320 317 317 323 337 339 341 341 340 342 343 346 350 351 349 349 348 349 347 342 342 344 347 347 348 348 348 345 343 342 339 338
310 300 298 303 306 305 308 309 311 313 313 314 316 321 323 323 317 316 317 315 318 333 339 340 341 341 339 342 342 344 343 343 343 342 341 342 338 337 342 343 348 349 349 348 346 343 341 338 329
311 306 307 306 307 308 307 308 312 310 308 312 314 317 320 320 318 316 315 316 315 320 339 341 341 341 340 339 340 343 341 340 341 340 339 340 339 336 336 333 336 343 347 338 341 337 334 329 328
304 312 314 313 313 310 308 310 309 311 311 316 317 317 317 317 317 316 315 315 315 316 333 341 341 341 340 340 339 340 340 339 339 340 338 338 335 332 331 330 330 333 333 331 329 329 328 328 328
301 307 310 311 312 312 312 309 309 310 315 317 318 318 315 314 315 315 316 316 315 314 315 338 341 340 341 339 340 340 339 338 339 339 338 337 334 332 331 330 329 330 328 328 327 326 327 327 327
299 300 304 308 307 308 308 310 311 313 317 316 316 314 313 313 314 314 314 315 315 316 316 329 340 340 341 340 339 340 340 338 338 338 336 336 336 333 331 329 327 329 328 328 327 326 326 327 327
300 296 300 302 303 306 309 305 306 313 314 312 312 312 313 314 315 314 316 315 316 316 317 322 336 342 341 341 339 340 339 339 337 336 336 337 336 333 331 330 330 329 327 327 327 326 325 324 325
296 295 293 300 303 304 304 298 308 311 310 310 312 313 314 315 316 317 316 314 315 316 317 317 335 340 341 341 338 340 340 338 337 336 337 338 337 333 331 329 328 329 328 327 325 324 324 324 324
293 291 292 296 304 303 303 299 306 310 309 308 310 311 313 314 315 314 316 316 317 318 318 318 332 335 338 339 337 339 339 338 335 335 338 337 336 334 332 330 329 329 328 326 326 325 322 321 322
290 291 294 294 300 302 300 300 305 308 308 308 309 311 312 313 314 317 317 316 316 317 317 319 333 333 336 336 336 336 333 331 331 333 335 335 335 336 331 330 329 328 327 325 324 324 323 322 321
295 294 294 297 301 300 299 300 303 306 307 306 307 309 310 310 313 316 316 315 316 316 316 323 333 335 339 337 337 334 330 329 329 331 334 333 333 334 331 329 328 327 327 326 324 323 323 323 324
292 290 290 294 298 299 299 298 303 305 306 307 307 308 309 309 310 312 313 315 318 323 327 327 333 338 339 340 336 333 330 327 329 329 334 335 333 333 330 329 327 326 324 323 322 321 319 320 324
291 289 291 291 295 297 294 293 296 301 303 304 306 308 308 309 309 310 312 314 318 323 329 333 336 337 337 336 334 328 327 326 324 324 326 329 332 331 329 328 326 325 324 323 321 319 319 316 318
287 294 294 292 291 286 294 285 293 297 299 302 304 304 307 308 309 311 311 316 321 326 332 336 337 337 337 337 332 329 323 322 323 324 325 327 330 330 330 328 327 325 323 321 321 322 319 317 314
289 295 294 294 290 289 290 286 292 296 296 300 303 305 307 308 307 308 310 319 325 329 330 336 336 336 334 332 331 327 322 323 322 324 324 326 326 328 330 327 326 324 323 322 322 322 320 318 316
293 293 292 292 288 282 288 287 289 292 296 299 303 304 306 306 306 314 317 326 326 329 332 334 333 329 330 329 326 323 323 322 323 322 323 323 324 326 327 327 324 324 323 323 322 323 322 320 318
289 283 279 278 279 281 290 287 291 295 298 300 301 304 306 305 308 320 322 325 328 330 332 331 330 327 327 325 325 324 324 323 323 322 322 323 323 322 323 324 323 323 325 326 325 323 322 321 319
285 284 279 275 277 282 291 285 290 299 302 304 305 305 306 312 317 320 323 326 329 330 330 328 327 327 326 326 324 324 324 324 323 323 322 322 322 323 324 324 324 325 327 327 326 324 323 322 322
287 282 287 282 286 282 286 290 295 300 300 302 302 305 314 316 318 320 324 327 328 327 327 326 326 325 324 326 325 324 325 324 323 322 322 322 322 322 325 325 325 326 327 327 326 325 323 322 321
290 292 281 281 277 276 284 286 289 294 297 300 300 311 314 316 319 322 324 326 326 326 326 326 325 323 324 325 325 325 324 325 324 324 323 323 322 324 324 325 325 325 325 326 326 325 325 322 320
285 285 285 284 283 280 279 284 294 296 298 299 300 314 315 317 319 322 324 325 325 327 326 324 324 323 324 325 324 324 324 325 323 322 323 323 322 324 325 326 326 326 325 325 324 325 324 322 321
290 287 286 280 279 284 284 286 299 300 300 304 307 316 316 318 320 322 323 324 325 326 325 323 323 322 323 325 324 323 324 323 322 323 323 321 321 322 324 326 327 327 324 323 323 324 324 322 322

GFSSGP_sfc_thetae_033.txt.gz
Theta_e
336 329 317 312 300 299 294 299 305 307 311 315 317 311 312 313 312 305 323 334 337 340 346 351 355 353 352 351 350 349 348 347 346 343 341 340 339 337 336 335 335 335 335 335 335 334 334 335 335
323 320 312 308 296 293 293 302 303 310 317 318 315 314 314 315 321 325 325 338 339 342 346 348 354 353 352 351 350 349 347 347 346 344 341 339 339 338 337 337 336 337 337 337 336 337 338 338 338
323 319 305 302 297 293 294 304 309 317 319 317 315 317 317 318 326 327 331 339 340 342 346 347 354 353 352 352 350 348 347 347 346 344 342 341 340 340 340 338 338 338 339 339 339 340 340 341 341
316 313 306 298 297 301 301 306 310 314 318 317 316 313 317 327 327 329 340 339 339 340 345 348 354 353 352 352 350 349 348 347 347 345 344 342 341 342 342 339 339 339 340 341 342 343 343 344 344
313 306 295 295 298 304 309 311 310 308 314 315 316 314 314 322 329 339 339 339 335 339 343 346 354 353 353 352 351 349 348 347 347 347 345 344 345 344 341 340 341 341 342 343 343 344 346 346 346
305 304 294 293 297 304 308 310 310 310 315 317 315 313 314 321 332 337 339 337 336 337 339 343 353 353 352 352 350 348 347 347 347 347 347 346 346 345 342 342 343 343 343 344 345 345 346 345 345
301 298 295 298 300 303 309 310 308 311 309 313 315 311 313 320 326 337 338 337 335 336 337 341 347 349 352 351 350 348 348 347 347 347 347 347 347 347 346 345 343 344 344 346 347 346 346 345 344
303 300 294 297 299 301 310 309 310 309 311 316 319 310 309 320 323 330 334 334 334 334 333 337 342 343 344 345 351 349 348 348 347 348 348 348 348 348 348 346 347 344 346 347 348 347 345 344 343
306 295 293 297 299 302 309 308 314 316 313 314 315 315 318 322 321 320 318 319 329 335 332 334 338 339 341 341 344 349 349 349 348 348 348 346 342 342 343 345 346 345 347 348 348 346 345 342 340
304 295 296 302 304 303 305 305 308 310 310 310 312 318 320 321 318 318 316 316 318 331 333 336 337 336 338 339 338 342 341 341 342 341 341 342 337 336 341 343 345 345 347 348 348 347 343 341 330
309 303 304 305 306 307 306 305 309 308 306 310 311 314 317 317 315 315 315 316 316 323 332 337 338 337 335 336 337 339 340 339 340 339 337 337 337 336 339 334 336 338 346 340 343 340 336 332 328
305 310 312 310 310 309 308 310 308 308 308 313 315 316 315 315 314 314 313 314 313 313 328 337 339 338 336 334 336 335 338 337 337 338 336 336 335 331 331 331 329 332 336 336 333 333 330 328 328
301 307 309 312 311 313 314 310 309 310 313 315 315 315 315 315 314 313 314 314 313 312 318 334 338 338 338 335 335 335 337 336 335 336 337 336 334 331 330 329 328 329 330 331 329 327 326 326 326
298 300 302 305 306 306 306 307 308 310 315 315 315 314 313 312 312 312 312 313 314 314 313 325 337 338 338 337 335 335 336 336 334 336 337 335 334 331 330 329 328 327 327 328 327 326 325 325 325
297 294 298 299 299 299 305 302 303 310 312 311 313 312 312 311 313 312 313 313 315 315 316 317 333 337 337 337 336 337 337 336 334 336 336 335 333 331 330 329 326 327 327 326 325 325 324 323 324
294 292 290 298 300 301 302 296 305 310 310 309 310 310 311 312 312 313 314 313 314 314 313 314 328 337 337 337 337 337 338 337 335 335 335 335 334 332 329 331 328 328 326 325 324 323 322 322 321
291 289 291 294 301 301 300 297 305 308 308 307 308 309 310 311 311 313 315 315 315 314 314 314 325 335 337 337 337 336 335 336 335 334 334 334 335 333 332 330 328 327 325 324 324 322 322 320 321
287 289 291 292 297 299 298 298 303 305 305 305 306 307 308 309 311 314 315 316 314 313 314 314 322 329 335 334 331 332 334 331 333 334 336 336 335 334 331 329 328 327 325 324 323 322 321 321 321
290 290 290 294 298 297 296 297 300 303 304 304 306 307 308 309 311 313 313 314 313 313 313 314 321 327 333 333 332 331 332 330 329 334 334 334 334 334 331 328 327 325 325 325 322 321 321 320 322
290 287 287 293 296 294 295 295 298 301 303 304 305 305 306 307 309 311 311 311 312 314 314 312 319 329 333 335 334 329 328 326 329 332 334 334 333 332 329 327 326 325 323 323 321 324 318 320 322
288 287 288 289 294 295 292 291 294 298 299 302 303 305 305 305 307 308 309 310 311 313 317 320 323 331 332 331 329 327 326 325 324 325 328 329 331 331 329 328 326 324 322 322 320 318 319 315 320
283 291 292 291 288 284 291 283 291 295 296 299 300 301 303 305 306 307 309 309 310 314 325 328 331 332 333 332 328 328 326 324 321 323 324 326 330 330 329 331 328 326 324 321 320 321 317 316 314
287 291 290 291 288 285 286 283 289 292 292 295 298 300 302 304 305 305 307 307 313 325 328 331 333 333 332 330 329 326 323 322 321 322 323 323 325 328 329 329 328 325 321 321 321 321 318 317 316
291 288 288 288 285 278 286 284 286 289 293 295 299 301 302 303 304 304 307 310 320 326 331 332 332 328 329 328 326 325 323 321 321 320 321 321 322 324 327 326 324 323 322 321 321 321 320 318 317
287 281 276 275 276 278 288 285 288 292 295 296 297 299 301 302 302 306 317 319 324 327 328 330 330 326 326 325 323 323 322 322 321 320 321 320 321 321 323 323 321 321 322 322 321 321 321 320 317
284 282 276 274 276 279 288 283 288 295 299 300 301 300 300 301 305 308 318 322 326 327 327 328 327 323 323 323 322 322 322 322 321 321 321 321 321 321 322 322 321 322 323 323 323 323 323 321 320
285 280 286 279 281 278 284 288 293 297 298 298 298 298 298 304 314 317 322 325 326 326 323 326 325 323 323 322 322 322 322 322 321 321 321 321 320 322 322 323 323 323 325 324 324 324 325 324 321
287 290 279 278 275 275 281 283 286 291 295 296 297 298 301 313 316 321 324 324 325 325 323 324 324 323 323 323 324 323 322 322 321 321 320 320 320 322 322 322 322 323 324 324 323 324 324 322 319
284 283 284 282 280 276 277 281 291 293 295 296 297 301 307 313 317 321 323 323 324 323 324 322 323 323 322 323 322 322 322 322 322 321 321 321 320 323 322 324 324 324 323 323 323 323 323 321 320
288 286 285 279 279 281 280 282 295 293 294 297 300 306 313 315 318 321 322 323 324 323 323 321 322 323 323 322 322 321 322 321 320 320 321 320 321 322 323 324 325 325 323 322 322 323 323 321 321

GFSSGP_sfc_thetae_036.txt.gz
Theta_e
336 330 315 310 299 298 293 296 302 302 308 312 314 311 313 312 311 305 323 333 336 337 347 352 355 355 352 351 351 350 349 348 347 345 344 343 342 340 338 338 336 335 335 335 336 335 334 334 335
325 319 311 306 294 291 291 299 301 305 314 318 316 315 313 312 318 320 322 335 336 339 346 348 355 354 353 352 351 350 349 348 347 346 344 342 342 341 337 337 336 336 337 336 335 335 336 336 336
319 316 305 301 295 292 293 302 305 310 317 316 313 316 316 316 324 323 328 337 339 341 345 345 355 354 353 352 351 350 349 348 347 346 344 343 342 343 341 338 338 338 339 338 338 339 339 339 339
317 310 305 297 296 299 299 305 307 309 312 317 315 313 316 325 326 327 336 339 338 340 343 348 354 353 353 353 352 350 349 349 348 347 346 345 342 343 342 339 339 339 340 341 340 341 341 342 343
312 304 296 294 296 302 304 308 307 306 309 314 315 312 312 321 328 335 337 338 336 338 341 345 354 353 353 353 353 351 349 349 348 348 346 345 345 343 342 340 340 340 341 342 343 343 344 345 346
304 302 293 292 296 302 304 307 307 307 310 314 315 312 312 319 330 334 337 335 336 338 341 343 353 353 352 352 352 350 349 349 348 348 347 346 346 345 343 341 341 341 342 343 344 344 345 345 344
301 296 293 296 299 302 305 308 307 307 308 312 315 310 312 317 325 335 335 335 333 336 339 340 348 350 353 352 351 350 349 348 348 347 347 347 346 346 345 344 343 343 344 344 345 346 346 346 344
303 298 293 296 298 299 307 307 308 308 309 315 317 308 307 316 324 335 334 332 331 332 335 335 342 345 346 346 352 350 349 348 348 347 347 347 347 347 346 345 346 344 344 345 347 347 346 345 344
304 293 291 295 299 300 306 302 310 313 311 311 314 314 317 320 321 324 325 324 331 333 330 332 338 340 342 342 345 350 350 349 348 348 348 346 342 342 342 345 345 345 346 346 348 348 347 344 341
302 293 295 300 303 303 305 303 305 308 307 308 311 316 317 319 318 318 320 323 322 330 332 330 333 337 339 340 340 343 342 342 342 342 342 342 339 340 342 343 345 345 347 348 349 349 346 342 336
307 299 300 301 304 306 305 305 307 305 303 307 307 311 313 315 315 315 317 319 324 324 331 333 332 335 336 337 336 338 340 339 340 339 339 340 338 340 342 338 341 340 345 342 346 345 343 337 334
303 309 309 307 309 307 305 308 306 307 306 311 311 312 312 313 312 313 313 314 315 315 320 331 334 334 334 335 334 335 337 336 337 339 337 337 338 336 337 336 335 335 337 340 339 338 337 335 334
306 307 310 313 313 311 313 311 310 311 315 315 315 315 314 312 312 312 313 313 313 312 314 319 334 335 335 333 332 333 334 335 335 336 337 337 336 333 333 334 332 330 333 336 336 335 334 332 331
297 300 305 307 307 307 306 307 306 309 314 313 314 313 314 313 312 312 311 311 312 313 313 315 331 336 336 333 332 333 333 334 333 334 336 336 335 332 332 331 329 329 330 332 333 332 331 329 329
296 293 295 297 299 302 306 302 303 309 311 309 310 311 312 314 311 310 312 312 313 313 314 313 324 334 335 336 334 333 333 334 333 333 335 336 334 331 331 330 328 330 330 330 330 329 329 328 328
292 291 289 297 297 299 302 296 305 308 309 308 309 310 311 312 310 311 312 312 313 312 312 314 321 333 335 335 336 335 334 334 334 333 336 335 334 332 329 329 329 330 329 329 328 327 326 326 326
289 288 288 292 299 299 298 296 303 306 306 305 306 306 308 309 309 310 312 312 312 313 313 313 315 328 333 335 336 335 334 335 334 334 335 335 334 333 330 329 330 330 329 328 327 326 327 325 325
285 286 290 290 295 297 295 296 301 303 304 304 305 306 306 307 308 310 311 312 313 313 313 312 313 320 330 332 331 331 333 334 333 333 334 334 334 334 331 330 330 330 328 327 326 326 325 326 325
289 287 287 292 296 295 295 296 299 301 301 302 303 305 306 307 310 311 311 312 312 312 312 313 313 320 332 332 330 329 332 332 332 334 335 335 335 334 332 331 330 330 328 328 327 325 325 324 326
288 285 285 290 294 292 291 291 294 297 298 300 302 303 304 304 305 308 309 311 310 311 312 312 313 323 332 333 330 330 330 331 332 333 335 336 335 334 332 331 330 328 327 327 326 326 323 322 324
286 285 286 287 292 293 291 289 293 297 297 299 300 301 303 305 306 307 308 308 308 309 311 313 313 324 329 330 328 326 326 326 326 329 331 333 334 334 332 330 328 327 327 326 324 324 322 319 323
282 289 290 290 287 282 289 281 290 294 295 297 297 298 301 301 304 305 305 306 308 310 312 319 322 327 330 329 327 328 325 325 324 328 329 331 333 332 331 329 329 328 328 326 325 324 322 321 318
285 290 288 289 285 283 285 281 288 289 290 292 296 298 299 301 302 302 303 306 308 308 319 325 328 330 330 329 329 326 323 322 323 325 326 327 328 330 331 331 330 328 327 326 324 324 321 321 320
291 288 286 285 283 277 284 283 285 287 290 293 295 297 298 298 299 301 303 304 306 319 327 330 329 327 328 328 326 325 323 323 323 322 323 324 325 327 330 330 329 327 326 325 325 325 324 322 321
285 280 275 274 274 276 285 283 286 289 293 294 296 297 298 299 299 300 301 311 317 325 328 330 328 325 326 325 325 325 324 324 324 323 322 322 322 324 325 327 325 325 325 325 325 324 324 323 322
282 281 275 274 274 276 285 281 286 293 296 297 297 297 298 298 298 299 303 315 324 327 329 327 326 324 324 325 324 324 324 324 323 322 323 322 323 325 326 326 325 325 326 325 325 325 325 323 323
284 279 285 278 279 276 280 285 290 294 295 296 296 297 297 298 298 311 320 323 325 326 326 325 324 323 323 323 323 322 323 323 322 322 323 323 323 325 325 325 324 326 326 327 327 326 326 324 323
286 287 278 276 273 273 278 281 283 289 291 295 296 296 297 299 312 319 322 323 323 323 324 323 324 323 322 323 324 323 323 323 322 323 322 323 323 324 324 325 326 327 327 327 327 326 327 324 323
284 281 282 279 278 275 276 279 289 290 292 293 295 303 304 304 315 320 322 324 321 323 322 322 322 322 322 323 323 323 322 322 322 322 323 323 322 324 324 326 327 326 326 326 326 325 326 324 321
286 284 284 279 278 279 278 279 291 291 293 295 298 305 312 311 318 320 321 323 321 321 321 322 322 322 323 323 323 322 322 322 321 322 323 322 323 325 325 327 327 327 326 324 325 324 325 321 321

GFSSGP_sfc_thetae_039.txt.gz
Theta_e
335 333 321 317 305 306 299 301 307 308 313 319 319 321 319 321 316 315 335 339 342 343 350 353 355 354 354 353 352 351 351 350 350 350 349 348 346 344 342 342 340 337 337 337 337 336 336 336 336
333 320 319 314 301 296 298 305 307 309 317 322 322 318 320 320 324 327 330 340 342 347 351 348 355 354 354 353 351 350 350 350 349 348 348 347 346 344 342 340 338 338 338 338 338 337 337 338 338
323 318 312 309 300 296 298 305 308 312 317 321 320 322 321 321 328 330 336 341 343 347 349 351 356 354 354 353 352 351 350 349 348 348 347 346 346 344 343 342 340 338 339 338 338 339 340 340 341
320 317 312 302 300 302 303 309 314 313 315 321 320 318 322 329 331 333 340 341 341 344 347 350 355 355 354 354 352 351 350 349 349 348 348 347 346 345 344 343 343 340 341 340 340 341 341 342 343
319 312 301 300 299 304 309 311 313 311 313 316 319 316 319 327 333 338 341 342 341 343 346 346 356 355 354 354 353 352 350 349 349 348 348 347 346 345 345 344 342 341 342 342 342 343 344 344 345
307 309 299 295 298 303 308 312 312 311 314 316 318 318 320 328 335 340 342 344 343 344 348 346 354 354 354 354 353 352 350 350 349 349 348 348 347 346 345 345 344 343 343 344 344 345 345 344 344
306 305 297 299 299 301 305 311 308 310 315 316 322 317 322 325 333 342 342 344 345 345 347 347 349 353 354 353 352 352 350 350 349 348 348 347 347 346 346 345 345 345 346 347 346 347 347 345 344
309 307 299 300 298 299 309 313 315 316 314 320 322 315 317 325 335 342 342 341 341 343 345 345 348 349 348 348 353 352 351 350 349 349 348 348 347 347 346 344 345 346 346 346 347 347 347 346 345
310 300 297 298 299 301 310 309 315 317 316 316 319 319 321 325 336 339 338 338 340 340 342 344 343 348 349 347 348 352 352 350 349 349 349 346 342 343 342 343 346 347 347 347 347 347 349 346 344
307 301 300 303 304 305 307 309 311 312 313 313 316 319 321 322 324 328 334 335 337 339 341 340 343 346 348 345 348 349 347 345 344 344 346 344 343 344 341 343 345 347 347 348 348 348 348 346 342
310 303 305 304 305 307 307 308 311 309 309 314 314 316 319 320 322 323 325 328 331 337 339 341 343 346 346 345 345 345 348 347 348 347 350 348 344 343 342 341 342 343 346 343 346 347 345 344 342
304 309 309 309 307 307 305 308 308 309 310 315 316 319 319 319 321 321 322 324 326 329 333 341 344 344 348 346 344 344 344 345 344 345 349 346 344 343 341 339 340 342 340 342 345 345 346 346 343
306 306 311 312 312 311 312 311 311 312 316 319 321 321 320 320 321 323 325 325 327 326 330 333 342 347 348 347 345 344 344 343 343 342 346 345 340 343 341 341 339 340 340 340 342 345 345 344 343
306 307 308 310 313 314 312 312 314 315 319 317 317 317 319 319 320 322 324 325 327 329 330 333 334 346 346 345 347 345 345 343 342 341 343 347 342 344 340 340 338 338 338 338 339 343 343 343 342
302 299 302 304 308 309 312 307 308 315 316 314 315 316 317 319 320 321 324 329 329 330 334 335 337 338 347 348 346 345 343 342 341 341 343 343 344 342 342 337 338 338 340 340 340 341 342 341 340
297 298 294 302 302 304 306 299 309 313 312 312 313 315 316 318 320 322 323 328 330 330 330 334 327 329 344 347 345 344 342 342 341 341 341 342 343 343 341 337 337 339 338 338 338 339 338 338 339
295 291 294 297 304 302 302 300 307 311 311 311 313 314 315 316 319 323 323 324 329 332 334 334 332 330 341 346 344 345 345 342 342 342 341 342 342 341 340 337 339 340 337 336 338 339 337 340 339
289 290 293 294 300 301 300 300 305 309 308 309 311 312 314 315 317 321 323 325 326 330 334 335 332 333 339 340 344 343 343 343 343 342 342 342 342 341 341 339 339 339 336 335 338 336 339 338 337
294 292 292 296 300 299 299 300 303 306 307 307 309 310 312 314 317 319 322 325 327 332 333 337 332 334 332 336 337 338 338 339 339 341 343 343 343 342 341 339 339 339 335 338 337 339 337 335 334
292 291 291 294 298 297 299 298 302 303 304 306 307 308 310 312 314 318 321 324 327 329 331 334 331 332 335 337 340 341 341 338 337 341 344 345 343 341 340 341 339 338 335 338 339 338 334 332 330
291 290 291 291 295 297 295 294 298 302 304 305 307 308 309 310 311 316 317 322 325 327 330 332 332 331 337 341 342 342 341 335 335 338 338 340 342 342 342 341 340 339 340 339 340 337 334 327 326
286 292 292 292 291 287 296 287 296 299 300 303 305 306 307 309 311 313 316 319 323 324 326 326 330 333 337 342 341 341 338 335 338 339 342 341 344 343 343 342 342 342 340 337 338 335 332 328 327
288 293 291 291 290 290 290 287 292 298 297 300 302 304 307 310 310 310 312 315 317 321 321 326 334 336 338 341 342 340 341 340 341 341 341 343 344 343 342 342 343 342 339 336 334 336 334 332 329
293 291 291 291 289 283 288 287 289 293 297 300 303 305 306 308 309 310 312 314 315 318 324 334 338 339 339 340 342 343 341 338 338 340 340 340 340 340 342 341 340 340 339 335 336 337 335 332 331
290 288 281 279 280 280 289 287 290 297 299 300 301 305 307 308 309 311 313 313 316 325 332 335 339 338 340 341 340 341 341 341 341 341 338 337 336 337 339 341 340 338 338 338 336 336 334 333 331
288 287 282 276 278 281 288 284 290 299 301 303 304 306 307 309 311 311 312 313 320 329 332 336 339 338 339 339 338 339 341 339 338 339 337 336 336 337 340 339 339 338 337 336 336 334 333 334 328
288 284 290 284 286 283 286 289 295 297 298 301 302 306 311 314 315 316 323 326 329 330 331 339 339 338 338 338 337 338 338 338 336 338 338 337 339 337 338 338 337 337 336 336 336 334 335 334 326
291 292 284 285 278 277 284 286 289 295 296 301 303 306 310 317 320 320 326 326 329 332 338 340 339 337 337 337 337 336 337 337 336 337 337 337 337 336 336 335 335 335 336 337 337 335 335 332 326
288 287 288 288 286 281 282 286 297 297 299 299 302 304 309 318 319 323 324 327 331 335 336 336 336 335 335 335 335 335 334 335 336 336 336 336 336 335 334 334 335 336 335 335 335 335 333 332 326
290 288 289 284 282 285 284 285 298 299 300 301 302 303 306 320 320 322 325 327 332 334 334 335 335 334 334 334 334 334 335 335 335 334 335 334 333 334 334 335 334 334 333 334 332 332 331 327 323

GFSSGP_sfc_thetae_042.txt.gz
Theta_e
333 331 323 321 309 307 304 305 312 316 317 322 323 323 323 324 321 319 339 343 343 344 350 355 357 356 356 355 354 352 352 354 354 355 354 353 351 350 348 345 341 339 337 336 337 336 336 336 336
332 326 321 316 304 301 303 310 310 317 320 324 324 325 322 321 329 329 333 343 345 347 351 347 356 355 355 355 353 353 353 352 352 352 352 351 350 349 346 344 341 339 339 338 339 338 337 337 338
331 319 313 309 304 301 305 309 314 315 320 322 322 325 325 324 331 331 339 344 346 349 351 348 356 354 355 354 353 352 352 352 352 352 351 350 349 347 346 344 344 340 340 340 339 338 340 341 341
321 317 314 305 303 306 308 314 315 317 319 323 323 319 324 331 332 335 342 342 345 348 350 351 355 354 354 354 353 352 352 351 351 351 350 349 348 347 346 345 344 344 341 341 340 342 342 342 343
322 315 304 303 304 308 311 313 316 316 316 319 322 319 322 332 337 338 342 341 342 345 349 349 355 354 355 355 354 352 351 351 350 350 349 348 348 347 346 345 344 345 343 342 342 343 343 344 345
311 312 302 300 304 308 311 313 313 314 316 318 319 321 324 335 337 338 341 342 342 344 349 348 356 355 355 354 353 352 351 350 350 350 349 349 348 347 346 346 345 346 347 345 344 344 345 345 346
310 304 301 302 303 304 308 313 311 313 315 319 324 320 326 330 337 340 342 345 345 348 349 349 353 355 355 354 353 352 351 350 349 349 349 349 348 347 347 346 346 347 347 348 348 347 346 345 344
315 311 305 305 302 303 310 313 314 313 314 324 326 321 323 331 337 343 342 344 346 348 347 350 352 349 349 349 354 353 352 351 350 350 349 348 349 348 347 346 346 347 347 348 348 348 347 347 345
317 307 304 304 304 304 309 310 315 318 319 322 323 324 326 330 338 340 339 339 340 342 348 350 348 350 349 346 347 353 353 352 351 350 350 348 342 343 343 342 345 347 348 348 348 348 348 348 346
312 307 307 311 310 305 307 310 313 314 315 320 321 324 325 327 334 335 336 335 337 340 345 348 351 350 350 345 348 351 347 349 346 343 344 344 342 343 340 342 347 348 349 348 348 348 348 348 344
314 307 312 313 312 309 307 310 314 312 312 320 321 322 324 324 326 328 332 334 336 339 340 346 352 354 351 349 346 347 348 346 346 346 350 348 341 343 341 339 342 343 347 344 346 347 347 345 343
308 313 313 314 314 309 307 310 311 312 313 320 321 322 322 324 325 326 327 329 331 332 333 339 350 353 355 350 348 349 347 347 346 346 353 349 345 345 343 338 340 341 340 342 344 343 347 346 345
307 309 313 314 314 314 312 310 311 313 317 319 319 320 322 324 326 327 329 330 331 332 334 336 342 354 356 356 351 352 352 348 349 348 350 346 343 346 343 343 339 340 340 340 341 343 345 345 345
308 308 309 312 313 314 311 313 315 316 320 320 322 323 324 323 324 326 327 329 330 332 334 338 339 350 354 356 357 354 354 351 350 348 347 351 346 348 341 341 340 338 339 340 340 341 343 343 343
305 302 306 308 310 311 313 309 311 317 319 319 320 322 322 324 325 325 327 329 332 333 336 339 342 344 351 352 353 354 350 350 347 348 351 349 350 350 348 340 340 338 342 341 340 341 344 342 342
300 301 297 305 308 309 309 303 313 317 317 317 318 320 320 323 324 326 327 330 333 335 336 339 336 335 344 351 349 347 346 347 348 347 349 349 350 349 347 342 339 339 341 339 338 338 336 339 339
299 294 297 300 307 307 305 303 311 315 315 315 317 318 319 321 323 326 327 329 331 334 337 337 340 338 341 348 346 350 353 349 347 348 348 350 349 349 346 343 340 346 338 337 336 336 337 337 344
292 295 297 297 303 305 304 303 308 312 313 313 315 317 318 319 321 324 326 328 330 332 337 339 340 348 345 341 345 345 346 348 348 347 348 350 349 348 347 344 344 343 338 336 336 337 338 343 341
295 295 296 300 303 302 302 303 306 310 311 312 313 315 316 317 321 323 324 326 328 331 338 342 342 350 342 336 338 341 341 345 346 348 350 349 349 348 346 345 343 343 338 337 339 338 343 341 339
294 293 294 299 301 301 301 301 306 308 309 311 312 314 315 317 318 320 322 325 327 332 337 343 344 347 343 338 343 342 344 345 347 347 349 349 348 348 344 347 344 343 339 339 339 344 338 337 339
292 291 292 294 299 301 300 298 302 307 309 311 312 313 314 315 315 318 319 323 325 329 336 338 342 343 344 344 344 347 348 346 341 343 345 346 347 345 344 346 346 344 341 338 343 342 341 333 337
288 294 293 293 294 290 300 290 299 303 305 307 309 311 313 314 316 317 318 320 324 325 328 335 340 339 340 346 349 351 343 339 341 345 344 342 344 345 348 348 346 345 342 345 343 342 340 339 332
291 295 293 294 292 293 294 291 297 303 301 305 308 310 312 313 315 315 317 319 321 323 324 331 335 337 342 346 349 346 347 344 346 346 342 343 345 346 347 348 347 346 344 345 343 343 343 339 335
296 293 293 293 292 286 292 292 293 297 301 304 308 309 311 312 313 315 318 319 320 322 324 327 332 340 344 347 348 349 349 348 345 346 342 343 345 347 348 347 347 347 345 345 344 343 342 339 334
293 289 283 282 283 283 293 291 294 301 303 304 305 307 310 313 314 315 317 318 321 323 327 334 339 343 346 346 347 349 350 350 350 348 346 345 343 344 347 348 346 344 345 344 343 342 339 337 334
290 289 283 277 281 284 291 287 293 302 305 306 307 309 311 313 317 319 321 321 320 322 331 338 341 344 346 347 348 350 351 349 349 350 347 344 343 341 347 346 347 345 343 342 342 339 336 337 336
291 286 293 285 287 285 289 293 298 302 303 305 306 307 312 316 320 325 326 327 327 331 337 341 344 345 346 348 348 350 350 350 347 349 347 341 344 343 345 345 344 343 342 340 340 335 336 337 338
293 295 286 287 279 279 287 289 290 297 299 302 305 307 310 315 323 326 327 331 333 336 340 344 345 346 346 347 347 346 347 347 347 345 342 343 344 343 344 343 342 339 339 339 339 338 338 337 338
291 289 290 289 288 281 283 289 300 301 303 304 305 308 310 318 326 328 330 330 333 341 343 345 345 345 345 345 345 345 344 343 342 342 343 343 343 342 339 337 336 336 337 339 339 338 336 335 332
293 289 288 285 284 288 286 289 303 304 305 305 306 307 310 318 326 325 327 331 338 340 342 343 344 343 344 344 342 341 341 342 342 341 342 342 339 337 336 335 335 335 335 338 337 333 333 332 326

GFSSGP_sfc_thetae_045.txt.gz
Theta_e
335 330 327 320 309 308 305 307 314 314 315 321 324 321 321 325 321 318 342 337 339 342 357 353 358 358 357 355 356 358 360 360 361 361 360 358 356 354 351 349 344 342 341 339 337 336 336 337 336
325 325 321 316 306 303 305 311 310 317 322 326 326 325 325 323 330 332 336 338 340 345 354 346 358 357 358 355 354 355 357 358 359 359 357 356 354 352 348 346 343 341 339 338 338 338 338 337 337
336 326 313 309 307 303 306 312 314 319 322 324 323 327 325 325 331 332 338 340 342 347 352 351 357 357 357 356 354 353 354 355 356 355 354 353 352 351 349 346 344 341 340 339 340 339 338 340 341
326 319 314 306 304 309 309 314 317 319 322 325 326 320 327 334 333 337 340 339 341 345 350 356 356 356 356 356 355 354 353 353 353 353 353 352 350 350 348 346 345 343 341 341 341 339 342 342 342
324 316 306 304 305 310 313 315 319 318 322 324 325 322 324 332 336 339 338 338 341 343 348 355 356 356 356 356 355 354 354 353 353 353 352 350 350 349 347 346 345 344 344 342 341 342 343 343 344
313 311 303 302 305 310 313 316 315 317 322 323 323 323 326 334 335 337 337 338 339 342 348 356 356 355 355 354 354 353 352 352 352 352 351 350 349 349 348 346 346 346 347 346 344 345 344 344 345
313 309 303 302 305 309 312 316 313 315 318 320 324 320 327 330 336 336 335 338 338 343 346 357 357 354 355 355 354 352 351 351 351 350 350 349 349 349 348 347 347 347 348 348 348 348 347 346 346
317 313 307 307 303 303 311 313 315 314 315 323 326 320 322 331 336 336 336 338 338 342 345 347 358 352 348 349 355 353 352 352 351 350 351 350 349 349 348 346 347 348 348 349 349 349 349 347 346
321 309 306 307 307 308 313 311 315 319 318 320 324 325 328 334 338 336 335 336 337 339 344 347 348 352 350 346 348 353 353 353 351 351 351 348 342 343 342 342 345 348 348 349 349 349 349 349 348
315 309 308 312 312 310 312 312 313 314 315 317 323 327 327 332 333 333 332 333 334 337 341 346 350 352 351 345 350 352 347 347 346 343 346 344 342 341 338 341 345 348 349 349 349 350 348 348 344
313 309 314 314 315 315 312 311 314 313 312 318 320 325 327 327 332 333 333 334 334 337 339 343 356 357 353 349 346 347 349 348 349 350 350 348 341 341 340 340 340 342 346 341 345 346 346 344 344
309 312 314 315 316 316 312 313 311 313 315 319 322 327 326 326 328 331 333 334 335 338 340 340 349 360 363 353 349 349 348 351 350 349 354 348 346 347 346 341 340 345 341 343 343 341 346 345 345
307 310 313 314 315 316 317 313 311 313 317 320 320 324 325 326 327 330 331 333 334 334 336 338 342 360 365 364 352 353 353 350 351 352 355 351 346 347 343 346 341 343 340 341 342 343 345 347 344
308 309 309 311 312 314 313 314 314 316 319 318 319 318 322 324 325 329 330 331 333 335 336 338 340 360 361 362 365 362 361 351 351 350 354 357 351 351 345 346 343 342 341 340 341 342 342 344 345
307 303 305 308 310 310 314 309 311 317 319 318 319 320 322 324 327 328 329 331 333 335 338 341 346 349 364 365 363 360 351 351 349 350 361 360 357 354 352 346 344 344 344 349 346 348 344 342 344
301 303 298 305 307 309 308 303 312 317 317 317 319 320 322 324 326 328 329 331 337 339 342 347 337 341 359 359 356 351 347 349 348 349 352 359 360 357 355 345 345 346 344 341 339 338 338 342 339
297 294 298 300 307 306 305 304 310 315 316 316 319 320 321 323 326 330 329 331 335 339 343 341 347 340 350 357 349 350 356 348 346 348 349 358 356 354 353 347 346 352 343 341 340 339 340 337 338
293 294 297 297 303 305 303 304 309 312 313 315 317 318 320 321 323 327 329 331 334 339 345 349 345 351 357 347 353 342 342 345 348 348 349 357 353 352 353 348 351 349 342 340 340 342 339 337 337
297 295 294 299 304 303 302 304 307 310 311 311 315 317 320 321 324 326 328 329 330 339 343 347 346 352 346 337 336 336 338 343 347 349 355 353 353 352 353 347 350 349 343 345 348 340 341 335 343
295 293 294 298 301 302 302 302 306 309 310 312 313 315 317 319 321 323 326 329 334 337 342 344 347 350 352 341 344 339 344 342 346 349 354 353 352 353 351 352 350 350 344 348 346 344 334 338 343
294 293 293 293 298 301 300 299 302 307 310 311 313 315 316 318 319 321 323 329 330 334 339 341 346 350 353 352 346 350 349 350 345 349 350 350 350 351 350 350 351 349 348 340 345 343 344 342 340
291 297 295 294 292 289 299 290 300 304 306 309 311 313 315 317 318 320 323 326 330 330 332 339 344 349 351 357 345 352 344 342 346 347 348 348 349 347 347 348 348 348 345 346 343 344 345 345 334
293 297 295 295 292 292 293 291 296 303 302 306 310 312 314 315 317 317 319 322 323 327 331 337 342 347 350 352 350 343 350 345 346 346 350 347 347 346 347 348 348 348 345 351 350 347 345 339 338
298 295 295 294 292 285 291 291 293 298 302 306 309 311 313 315 316 318 319 321 321 323 325 333 339 345 348 349 354 357 356 355 346 348 342 342 344 347 347 348 349 351 350 349 345 345 343 346 341
296 291 284 282 284 283 292 290 294 301 305 307 307 310 313 314 315 316 317 318 320 323 324 327 333 337 344 346 349 352 359 362 359 347 344 344 344 345 346 351 349 347 349 347 345 344 343 341 337
293 292 284 277 280 283 292 287 292 303 307 309 309 310 312 313 315 316 318 320 322 324 325 328 333 339 344 346 348 353 357 349 351 351 349 346 346 347 353 351 348 345 344 344 344 342 340 343 336
293 291 294 285 288 283 287 292 299 301 304 306 307 310 311 314 317 320 323 325 327 325 327 332 338 342 346 347 350 352 352 357 351 359 358 349 350 347 348 347 345 344 343 343 343 339 338 339 341
296 297 287 288 280 278 286 289 290 296 299 304 306 308 311 314 318 323 325 327 331 330 335 340 344 345 347 349 350 350 354 355 353 353 353 352 351 345 344 342 343 342 342 341 342 340 342 339 341
292 291 291 291 288 282 281 287 298 300 301 304 307 309 311 316 324 328 332 335 336 336 338 343 345 346 347 348 351 350 348 349 349 346 344 345 345 343 341 341 341 338 337 339 342 339 337 335 337
296 293 292 284 283 289 287 287 301 300 307 306 308 309 311 314 327 329 329 333 336 338 341 343 345 345 346 347 346 346 346 344 345 343 343 343 342 341 338 337 335 334 335 339 337 335 335 334 333

GFSSGP_sfc_thetae_048.txt.gz
Theta_e
333 325 327 319 306 306 302 305 311 311 313 317 319 319 319 322 322 318 335 337 352 347 350 354 358 358 356 357 360 361 362 362 362 362 361 360 359 356 354 352 349 345 341 339 337 335 335 335 335
323 323 322 313 303 299 302 309 309 312 318 321 323 322 322 321 331 333 332 338 353 350 348 350 358 357 357 356 358 360 360 361 362 361 360 358 357 356 353 350 346 343 340 338 336 336 336 336 336
330 326 314 306 303 300 302 310 311 315 324 323 322 326 325 325 332 334 336 338 355 353 345 352 358 357 357 355 356 358 359 359 360 360 359 358 356 354 351 349 347 342 340 338 338 338 338 337 338
327 322 314 303 301 306 308 311 314 315 321 324 324 321 328 335 334 336 337 337 347 348 346 356 357 357 357 356 354 355 357 358 358 358 358 356 354 353 350 349 347 346 342 341 340 342 340 341 342
326 315 304 301 302 307 311 314 314 315 319 320 323 321 324 332 338 337 338 337 341 346 348 354 357 357 357 356 355 354 354 355 356 356 356 354 353 351 350 348 347 346 346 344 343 344 345 345 344
313 312 302 300 303 308 311 314 314 315 319 322 322 323 325 334 334 336 337 338 340 343 351 354 356 356 356 356 355 353 353 353 353 354 354 353 351 351 349 348 347 347 347 347 347 346 347 347 347
314 308 301 301 301 304 308 314 311 313 314 318 324 320 326 330 334 338 335 338 340 345 355 354 352 354 356 355 354 354 352 352 352 352 352 351 351 350 349 347 347 347 347 347 347 347 348 348 348
316 311 305 306 304 303 310 311 313 313 313 321 325 317 321 332 336 336 334 335 337 343 354 355 354 349 349 351 354 353 352 352 352 351 351 350 350 349 349 347 347 347 348 348 348 348 348 349 348
318 307 304 305 306 308 313 311 315 316 313 315 319 321 328 334 334 332 330 332 333 339 349 355 354 351 346 345 349 353 353 352 352 351 351 348 344 343 342 345 344 348 348 349 349 349 349 349 349
310 306 307 312 312 310 313 313 313 313 312 314 317 323 328 332 332 330 329 330 332 336 340 345 353 351 346 342 346 350 349 348 348 346 345 346 342 340 340 342 345 347 348 349 349 349 350 348 343
309 306 312 313 314 315 313 313 315 311 309 313 316 320 327 328 332 332 330 331 333 336 338 344 356 354 349 346 347 349 346 346 345 345 343 345 341 339 339 337 339 341 346 342 345 345 345 342 341
304 309 312 313 316 315 313 316 313 313 313 317 318 323 326 326 328 330 331 332 333 335 339 346 356 359 357 352 348 352 350 348 345 345 343 341 341 339 336 336 339 336 338 339 338 339 341 341 342
303 306 310 312 313 314 315 313 314 313 317 318 318 320 321 327 328 331 335 337 333 330 335 342 356 359 363 364 359 352 350 351 348 347 346 343 342 340 339 340 338 338 337 339 336 339 339 340 342
306 305 306 308 309 313 311 311 314 316 320 318 318 318 319 326 327 329 332 336 344 352 348 349 355 363 362 361 361 364 359 353 352 350 350 347 343 344 341 340 342 341 339 339 338 337 339 341 342
305 301 304 305 306 307 309 306 308 315 318 318 318 319 319 321 326 326 329 337 341 343 356 349 354 364 362 361 361 361 360 358 353 353 358 351 348 344 345 343 338 341 344 340 341 339 340 343 344
298 299 296 303 305 307 305 299 309 313 315 315 317 319 320 321 323 325 330 339 343 343 345 348 339 356 362 361 360 359 356 354 353 354 354 358 351 350 349 344 344 342 343 342 341 341 340 339 340
296 290 293 297 305 305 304 300 308 313 312 313 316 318 320 321 324 327 329 333 342 343 346 349 350 346 358 361 358 357 353 351 352 352 353 358 355 351 350 347 345 348 343 340 341 340 338 338 339
291 293 294 294 299 301 301 302 307 309 309 311 313 316 319 320 323 328 330 332 337 343 347 345 346 350 356 355 356 350 349 348 349 350 353 356 355 354 350 350 347 351 342 342 340 338 340 338 338
297 295 294 297 301 299 299 301 305 309 309 308 311 314 317 319 324 327 329 332 333 343 345 347 348 351 353 352 344 342 341 342 345 349 355 357 355 353 352 347 350 347 344 341 344 342 340 336 336
295 293 293 296 299 298 298 297 303 307 308 311 311 311 314 317 322 323 325 335 339 344 344 347 346 350 352 346 344 342 342 341 343 350 355 357 355 353 352 348 347 346 345 345 345 341 336 335 337
294 292 292 292 296 298 296 294 299 304 308 310 312 314 315 315 316 322 326 332 336 340 341 344 345 344 346 344 345 348 346 348 349 353 355 354 354 353 351 348 347 347 346 342 343 340 337 332 338
290 296 295 293 292 287 296 286 296 300 303 307 309 311 314 316 318 320 324 330 335 337 340 343 345 344 345 349 345 344 339 338 343 352 353 352 353 351 350 348 348 347 344 344 340 341 338 339 332
293 297 295 294 292 291 291 288 292 298 298 303 308 310 313 316 317 318 320 324 326 327 330 334 340 345 344 345 345 342 345 345 355 354 352 352 351 347 347 347 348 345 344 345 341 339 341 340 335
298 295 294 294 292 285 289 289 290 294 298 301 307 311 313 315 316 317 320 321 322 326 327 332 335 337 344 347 348 347 346 344 347 346 347 345 344 343 344 345 346 345 345 346 344 344 341 339 337
295 291 284 282 283 283 291 288 292 298 300 303 304 309 312 315 316 317 318 319 322 324 325 331 340 340 344 345 347 345 343 349 354 349 345 342 340 340 344 345 344 346 348 346 343 343 341 340 337
292 291 284 278 280 283 290 285 291 300 303 305 306 310 311 313 314 316 318 321 320 323 326 328 335 337 343 343 343 348 347 349 352 347 343 341 342 343 345 347 345 347 346 344 344 342 340 339 337
292 288 293 286 287 284 287 290 295 299 301 303 305 307 311 313 315 318 320 327 329 329 337 332 337 337 339 340 347 348 351 354 350 350 346 345 346 347 346 348 345 345 345 343 342 340 339 338 337
294 297 288 289 278 278 284 285 287 295 299 302 303 308 310 313 315 317 319 323 328 330 336 338 342 342 347 348 349 350 353 355 352 352 348 348 349 348 347 345 345 344 342 342 340 338 338 336 336
291 291 292 289 287 280 279 284 297 297 299 298 301 307 311 312 314 320 325 334 334 336 332 342 343 346 346 348 349 350 351 353 352 349 345 347 347 345 344 343 342 341 341 340 338 337 336 333 333
294 292 291 286 284 287 286 286 299 297 298 300 298 307 311 313 314 326 328 331 334 336 337 340 344 344 347 346 347 346 347 346 346 345 344 345 343 342 341 341 339 338 337 337 336 334 334 332 331

GFSSGP_sfc_thetae_051.txt.gz
Theta_e
329 323 317 315 297 295 292 297 304 304 305 310 312 315 314 321 320 314 331 345 343 346 352 355 357 358 360 361 362 362 362 361 361 361 361 360 359 356 353 352 349 346 343 341 338 336 336 336 336
323 319 313 307 294 289 292 302 301 306 309 314 318 316 318 320 329 327 339 344 343 345 348 348 357 357 358 360 361 361 361 361 361 361 361 359 358 355 353 350 346 343 342 340 337 337 337 337 337
328 325 306 299 293 293 293 302 304 308 312 318 316 321 321 324 331 326 341 343 343 343 344 349 356 356 357 360 360 360 360 361 361 361 360 358 357 356 353 350 347 343 341 339 338 338 339 338 339
320 317 310 294 292 298 301 305 307 309 316 319 319 317 325 333 330 330 348 344 341 340 345 354 356 355 356 357 359 359 360 360 361 361 359 357 356 355 352 350 348 346 342 341 341 341 340 340 342
325 312 295 292 296 301 305 307 308 306 310 315 317 318 321 331 332 342 347 346 341 337 347 352 356 356 355 356 357 358 359 358 360 360 359 358 356 354 352 350 348 347 347 344 343 345 345 346 346
310 308 295 292 297 303 306 307 307 305 308 314 316 317 319 331 330 332 342 342 343 339 348 350 357 356 355 355 354 355 357 357 358 358 358 357 355 353 352 350 348 348 348 347 347 346 347 347 347
310 303 296 296 297 300 304 307 305 305 307 310 317 318 319 326 329 331 335 340 342 346 346 346 351 354 356 354 353 352 353 354 355 355 355 354 353 352 351 349 348 348 348 348 348 347 348 348 348
312 307 302 304 301 301 308 308 306 305 307 313 316 312 313 327 330 330 330 332 342 348 347 345 346 349 350 350 354 353 352 352 352 352 353 352 352 351 350 348 347 348 348 348 348 348 348 348 348
312 302 299 301 303 305 311 309 314 314 310 312 313 315 326 330 331 328 323 328 345 347 346 345 344 344 345 346 351 353 353 353 352 351 352 349 344 343 344 346 346 348 348 349 349 349 349 349 349
304 298 301 308 309 308 310 310 312 311 309 309 311 317 326 329 327 322 322 322 338 344 346 345 344 342 339 343 344 345 345 345 346 345 344 343 338 335 342 343 348 347 348 348 349 350 350 348 342
303 299 305 307 311 312 311 311 314 310 307 308 309 312 321 326 326 325 322 323 333 344 348 348 345 343 339 337 340 344 343 343 343 341 340 340 339 335 339 335 339 337 345 340 344 344 344 341 340
297 303 306 307 310 310 309 312 311 312 311 314 314 314 315 316 322 324 323 324 328 333 340 346 346 342 338 337 341 342 340 341 340 341 338 338 337 334 333 333 331 332 336 336 335 338 340 338 338
298 300 303 307 309 309 310 308 309 310 315 317 317 316 314 314 318 324 325 331 331 333 334 337 345 345 341 340 342 342 341 340 339 339 339 338 338 334 333 331 331 332 333 336 333 333 336 337 337
297 300 301 303 303 304 306 308 309 311 315 316 317 315 314 315 316 320 321 326 329 332 337 336 336 339 349 345 343 344 344 344 342 341 341 339 337 336 333 331 332 332 332 335 334 331 333 335 336
297 293 297 300 302 301 304 301 303 311 313 312 313 315 316 316 316 317 321 322 328 330 334 332 332 336 351 347 347 350 346 344 345 343 343 341 338 337 335 334 333 333 334 332 334 331 332 334 336
292 291 285 295 300 302 301 294 303 307 308 310 313 314 316 316 316 316 321 322 328 331 329 335 337 348 351 350 349 349 351 350 347 345 345 345 341 338 338 336 334 335 334 333 333 332 331 333 335
289 283 287 291 297 298 298 295 302 306 306 307 309 310 314 315 317 317 320 320 326 328 328 329 338 350 352 353 351 350 349 347 345 343 342 348 344 342 340 339 337 333 335 333 333 333 332 331 330
285 286 289 289 293 294 293 294 300 304 305 305 307 308 312 314 316 317 321 322 323 329 329 333 334 337 349 353 350 348 345 344 340 340 341 345 347 345 340 340 338 339 335 334 332 329 331 329 331
293 291 290 293 297 294 293 294 296 300 301 303 305 306 308 311 314 317 319 321 322 328 330 330 331 332 340 338 341 337 336 334 335 338 339 342 350 347 344 342 340 339 335 333 332 331 328 328 329
292 289 288 292 296 294 293 292 296 298 299 301 301 305 307 310 312 315 317 318 324 324 332 331 332 334 334 335 333 331 329 330 331 333 339 343 347 347 344 341 340 339 337 334 333 332 328 327 327
290 288 289 289 293 294 292 290 292 297 299 301 303 304 307 307 309 312 313 317 322 327 329 331 331 333 334 332 333 332 331 330 332 335 338 344 347 347 346 342 340 339 337 335 333 332 327 324 326
287 294 293 292 289 283 291 281 289 293 295 298 300 302 303 305 307 311 311 313 322 326 328 329 330 331 333 333 330 330 330 327 327 331 342 343 345 345 344 343 340 340 341 337 336 334 330 329 325
291 295 292 291 288 286 287 283 288 292 292 294 297 300 302 305 306 308 310 314 318 323 326 329 332 331 330 333 332 331 329 330 331 336 341 341 341 343 345 343 340 341 341 339 336 334 330 330 327
296 292 291 289 286 280 285 285 285 289 292 295 298 300 302 304 308 308 310 312 314 317 317 321 328 331 331 331 335 333 332 332 335 337 339 337 336 338 341 342 341 342 341 338 334 333 332 332 330
291 285 278 276 277 278 287 284 286 292 296 297 298 299 302 303 304 308 309 310 311 310 312 315 321 322 330 332 333 333 330 332 335 337 338 336 334 334 337 338 339 341 341 338 337 337 333 331 328
287 287 281 274 275 278 288 283 286 294 297 301 302 301 302 302 304 305 308 311 312 313 314 315 318 322 327 332 337 336 334 338 338 341 338 337 336 335 338 342 341 341 340 338 338 334 332 331 329
287 285 290 285 284 282 283 287 292 297 297 299 299 301 301 301 305 307 308 308 311 311 312 314 316 327 332 334 333 337 335 336 340 338 338 337 337 338 340 343 340 339 338 336 333 332 331 330 328
289 292 283 282 277 275 280 282 284 291 293 296 296 298 300 304 306 306 309 310 313 315 318 319 322 325 327 328 333 337 339 344 342 339 336 338 339 339 339 340 339 337 335 334 332 330 330 328 327
288 285 289 287 284 278 277 280 293 292 294 294 296 298 300 304 305 308 308 316 327 326 318 322 326 332 333 336 339 341 342 345 344 340 339 340 341 340 340 338 336 334 333 332 330 328 329 328 327
293 289 286 282 280 285 282 280 296 294 295 296 296 299 301 303 306 305 309 321 325 327 327 328 334 337 338 340 340 341 342 345 342 341 341 340 339 338 338 336 335 334 332 330 329 327 328 326 325

GFSSGP_sfc_thetae_057.txt.gz
Theta_e
324 318 313 310 296 291 287 292 296 298 300 302 304 303 306 313 317 311 328 333 338 338 351 359 362 363 363 362 361 360 359 359 360 359 358 358 357 355 354 353 351 348 345 343 341 339 337 336 335
324 318 308 301 291 285 287 294 294 298 302 305 306 306 309 314 325 329 330 334 337 340 349 353 361 362 362 361 360 359 359 359 359 359 358 357 357 355 352 351 349 346 343 342 340 338 338 337 336
326 319 302 297 289 288 289 294 297 302 304 304 303 308 317 320 329 331 334 335 336 341 346 351 361 362 362 361 360 359 359 359 359 359 358 357 356 355 353 352 349 345 344 342 340 339 339 339 338
318 314 305 296 292 294 295 296 299 302 305 304 304 304 321 329 330 332 334 334 336 340 343 355 359 360 361 361 360 359 359 359 359 359 359 357 355 355 353 351 350 347 344 341 341 341 341 340 340
320 309 298 291 294 297 299 299 300 300 302 304 305 304 318 326 337 335 332 335 333 339 340 351 357 359 361 361 360 359 359 358 359 359 359 358 357 355 353 351 348 347 346 343 342 344 345 344 343
310 304 293 294 296 301 303 303 302 300 303 305 305 306 318 333 334 333 333 330 334 336 338 347 356 358 358 359 359 359 358 358 359 359 359 358 357 355 353 351 349 348 348 347 346 346 346 346 346
308 298 294 295 298 300 303 305 303 303 304 306 307 306 317 329 335 333 328 328 331 334 338 343 347 353 358 358 357 358 357 357 358 357 357 357 357 355 354 352 350 349 348 348 347 347 347 346 347
309 305 299 298 299 298 306 307 306 307 308 312 311 304 308 323 334 332 329 327 329 331 336 338 342 346 348 351 357 357 357 357 357 357 357 356 356 355 354 351 350 349 348 348 348 348 348 347 347
308 300 297 300 301 302 308 306 310 314 310 311 311 310 314 330 335 331 332 334 334 334 334 338 341 340 341 342 352 356 358 357 357 357 357 354 351 350 349 349 348 349 348 348 349 349 349 347 347
300 295 300 307 307 305 308 307 308 308 308 309 310 315 315 324 328 329 328 327 329 330 334 338 340 341 340 343 342 345 348 351 351 351 351 350 344 342 345 347 348 348 348 347 348 349 349 346 338
296 295 303 305 306 307 306 306 309 306 304 307 307 311 314 313 319 324 322 330 329 330 333 336 339 340 339 337 340 340 340 341 341 341 341 343 339 339 341 336 339 337 345 337 342 341 341 337 336
291 297 300 301 304 304 303 306 305 306 306 311 311 313 312 312 311 312 318 326 333 337 335 334 336 337 337 335 339 339 338 338 338 338 337 337 334 332 333 334 333 333 333 332 332 334 336 336 336
291 294 297 299 299 300 304 303 304 305 309 312 312 313 312 312 311 313 321 323 332 337 338 336 334 333 335 329 334 335 334 336 336 336 336 335 333 332 331 330 329 330 330 330 330 331 334 334 336
292 293 295 296 296 297 298 299 301 303 307 306 307 307 312 312 312 316 324 325 330 338 341 340 337 334 331 330 329 331 332 332 332 334 334 335 334 332 330 327 328 327 330 330 331 330 331 332 334
293 289 292 294 295 296 300 296 297 304 305 305 306 307 310 312 313 315 323 325 328 335 341 342 340 338 333 331 331 332 333 333 333 332 332 335 334 330 329 328 326 328 329 328 329 328 327 328 330
288 286 282 290 295 296 297 291 299 301 301 302 304 305 307 308 312 313 313 324 328 331 335 341 344 340 336 334 332 334 335 336 335 335 335 336 335 332 330 329 327 326 328 328 329 326 324 326 326
285 280 282 287 293 293 293 289 295 299 298 298 299 301 303 305 307 312 314 316 326 330 329 333 341 340 339 338 337 337 338 338 339 339 338 337 336 334 333 331 330 327 327 327 328 326 326 324 325
282 282 285 285 291 292 290 290 294 297 297 297 298 299 300 302 304 307 312 317 320 329 330 329 329 329 333 337 339 339 340 340 340 340 340 339 338 337 334 334 330 329 328 327 325 326 326 324 326
288 286 285 288 292 289 288 290 293 294 294 294 295 297 299 300 304 307 309 314 316 317 323 326 327 326 327 334 336 337 338 341 343 343 342 340 340 339 335 334 332 330 328 329 328 326 325 323 325
287 284 285 288 293 291 289 289 292 293 293 294 295 296 297 299 301 304 306 308 312 314 319 322 325 328 328 333 336 336 338 341 342 342 339 340 342 341 338 335 334 331 330 327 328 327 323 325 326
287 286 286 287 291 291 288 287 289 292 294 295 296 296 297 297 298 301 303 305 307 310 312 320 323 325 328 334 334 328 329 328 332 331 333 336 338 340 341 337 335 333 333 329 329 329 329 326 327
284 292 291 289 286 279 288 278 285 289 291 292 294 294 295 296 298 299 300 301 303 305 309 315 321 325 328 337 337 334 335 333 327 329 335 332 333 336 339 339 336 336 335 332 330 331 332 329 325
287 293 289 289 284 281 283 278 283 289 288 290 292 295 298 300 300 301 303 304 305 304 305 309 320 323 326 331 338 337 335 330 323 321 325 327 330 336 340 340 338 337 335 334 332 331 331 330 328
293 288 286 284 282 275 281 280 280 283 286 289 294 298 300 300 301 302 304 306 306 307 305 306 315 322 325 328 334 334 333 324 321 322 323 324 330 334 339 339 338 338 336 334 333 332 331 331 330
287 281 275 273 273 275 283 281 283 289 293 295 295 297 299 299 299 300 301 304 306 307 308 307 310 319 323 326 329 329 329 326 324 324 325 327 329 332 336 337 336 336 336 335 334 333 332 330 329
284 282 275 271 273 276 283 277 283 293 297 297 298 298 299 298 297 298 301 303 305 307 307 307 305 314 321 324 326 328 326 325 323 324 328 330 332 334 337 338 336 336 336 335 333 334 332 331 328
284 281 284 278 278 274 278 283 289 293 294 296 295 296 296 296 297 298 300 302 304 306 307 306 310 309 318 323 324 321 324 323 324 326 331 333 333 335 336 336 336 336 336 335 334 332 330 331 329
286 288 277 277 273 272 277 279 281 287 290 294 294 294 295 296 297 299 300 302 305 306 306 313 315 307 315 321 322 322 324 325 326 331 332 333 331 335 335 334 334 334 334 334 334 329 331 329 324
283 281 283 280 278 271 271 278 288 289 292 293 294 295 295 295 297 299 301 303 304 304 306 311 316 309 308 313 317 322 324 327 330 332 333 333 334 334 335 335 334 333 333 334 331 327 327 325 323
287 284 283 273 273 281 277 279 291 292 292 293 294 296 297 297 298 300 302 303 304 302 306 307 311 318 311 314 319 324 327 330 331 332 333 333 334 335 336 335 335 335 333 331 328 327 327 325 322

GFSSGP_sfc_thetae_060.txt.gz
Theta_e
333 318 312 307 295 291 286 290 294 296 298 301 302 301 304 306 315 308 327 332 334 336 353 360 362 363 362 361 360 360 359 358 359 358 358 358 358 358 357 356 354 351 349 346 343 340 338 336 335
331 317 308 300 291 285 286 292 293 297 301 303 303 302 302 302 311 319 326 331 333 336 351 357 362 362 362 361 360 359 359 359 358 358 357 357 356 356 355 354 352 349 346 344 342 340 339 338 337
326 317 302 297 289 286 288 293 295 299 302 301 301 306 305 314 326 326 331 332 332 338 350 355 362 361 361 361 359 359 359 359 358 358 358 357 356 355 354 353 351 347 344 343 341 340 340 339 339
317 314 306 295 292 294 295 296 297 299 303 302 302 303 308 326 329 332 332 333 332 339 348 356 361 361 361 361 360 359 359 359 359 358 357 357 356 355 354 353 351 349 345 343 341 342 342 341 341
318 307 296 292 294 298 299 299 300 299 300 302 303 303 306 325 335 332 331 332 330 339 345 354 360 360 361 361 360 359 359 359 358 359 358 357 356 355 353 352 351 350 349 345 343 344 345 344 343
310 303 293 290 294 300 302 302 301 299 301 305 304 304 310 333 332 329 331 329 332 337 340 352 360 359 359 359 359 358 357 358 358 358 358 357 356 355 353 352 350 350 349 348 346 346 346 345 346
307 300 294 294 298 300 303 305 301 300 303 306 307 302 307 317 330 328 326 328 331 335 338 346 352 357 360 359 358 357 357 357 357 357 356 357 356 355 354 352 350 350 349 348 348 347 347 346 346
307 302 295 296 298 298 306 307 306 306 306 311 311 304 306 323 330 329 329 328 328 331 336 340 344 350 353 354 358 358 357 357 356 356 356 356 356 355 354 351 350 350 350 349 349 348 348 346 347
308 300 296 299 300 302 307 305 308 313 310 309 310 310 312 331 332 329 329 330 330 331 332 335 339 342 346 348 354 357 357 358 357 357 356 354 352 352 351 351 349 350 349 349 349 349 348 347 346
298 293 298 306 306 304 307 306 307 306 306 306 308 312 314 317 328 327 325 323 327 327 332 334 336 338 340 347 349 350 351 353 354 353 352 352 350 348 348 350 350 350 350 348 349 349 349 346 342
292 292 301 304 306 305 304 304 307 304 302 306 305 308 311 313 314 325 325 326 325 328 330 335 336 337 338 339 339 345 346 347 349 346 348 350 346 345 347 342 346 343 347 340 345 345 344 341 340
289 294 299 301 303 301 301 303 302 303 303 308 309 310 310 311 311 311 322 327 329 331 331 333 336 336 335 334 338 340 341 340 342 341 341 340 338 336 337 337 337 338 337 337 336 337 339 340 338
289 291 294 297 298 298 300 299 299 301 305 308 308 308 308 310 311 311 313 319 329 331 333 334 335 335 335 331 335 335 336 337 337 336 336 337 335 333 332 334 333 334 334 333 333 334 335 337 338
291 291 292 294 296 297 297 298 299 301 305 305 306 305 305 308 310 310 317 322 324 334 335 335 333 334 333 332 332 334 335 334 335 334 335 336 334 331 330 330 330 330 332 332 332 332 333 334 336
291 287 290 292 294 295 297 294 296 301 304 303 303 304 305 307 309 310 314 319 324 331 338 336 334 332 332 332 330 331 334 333 332 333 334 336 334 332 331 329 329 330 330 331 331 331 331 332 333
286 285 281 287 292 294 296 289 297 299 299 299 301 301 302 303 304 307 311 311 321 327 336 339 340 335 331 331 330 330 331 332 331 331 332 335 335 333 331 330 328 329 329 330 330 329 329 329 329
284 278 281 287 291 291 291 288 295 298 298 298 299 301 301 301 303 305 307 309 312 321 328 337 340 337 334 331 330 330 331 332 332 332 332 333 334 334 331 330 329 328 328 328 329 328 329 326 328
281 281 283 284 289 291 288 288 293 296 296 296 297 298 300 301 303 305 307 309 311 314 323 329 337 340 338 336 333 333 334 336 336 337 337 336 335 334 332 332 331 329 328 327 327 328 328 328 329
286 284 284 286 290 289 288 289 291 295 294 293 295 296 298 301 304 305 307 309 309 312 314 319 326 329 331 331 334 334 334 336 337 339 340 339 338 337 334 334 332 330 329 329 328 328 328 327 329
286 283 283 288 291 289 288 288 291 293 293 294 294 295 296 298 301 303 304 306 306 308 309 313 319 325 325 332 336 337 338 339 341 342 342 341 340 339 336 335 333 331 330 329 329 328 326 328 329
285 284 285 286 289 289 287 283 286 291 293 294 295 295 296 296 296 301 302 303 304 305 306 309 313 318 322 328 330 331 332 331 334 335 340 341 341 341 340 337 336 333 332 329 329 329 328 327 328
282 290 290 287 284 278 286 276 282 287 288 291 292 292 294 297 300 301 303 304 305 307 305 305 309 314 319 323 327 330 332 332 335 337 338 339 341 341 341 339 337 335 334 332 331 331 331 332 327
285 291 288 287 282 280 281 277 281 286 285 288 291 293 297 299 300 300 301 303 305 307 306 305 306 310 316 321 326 330 330 332 334 328 334 334 334 336 339 339 337 336 335 335 333 332 332 333 330
291 287 284 281 280 274 279 279 277 282 286 289 293 296 297 299 299 300 302 303 303 305 306 307 306 307 314 320 325 330 332 333 325 325 326 328 329 333 336 338 338 337 336 335 334 334 334 332 332
285 280 274 273 273 273 281 279 280 287 290 291 294 296 297 297 297 298 298 300 302 303 305 306 307 306 309 318 322 327 332 334 330 330 328 325 327 331 334 337 336 337 338 337 336 335 335 331 332
282 281 274 271 272 273 281 276 280 289 292 295 297 297 298 298 297 296 297 299 301 303 304 306 306 305 309 312 320 325 330 333 332 330 326 326 327 331 336 337 338 338 339 338 337 336 335 334 332
282 280 282 277 276 272 277 281 287 291 291 293 295 296 295 297 297 296 298 298 301 302 304 306 305 306 314 311 319 324 328 329 327 324 326 326 331 333 336 338 338 338 339 338 336 335 335 333 331
285 287 277 276 272 272 275 277 279 285 288 290 292 293 295 296 296 297 299 301 303 304 305 306 305 310 314 314 315 323 325 326 325 324 327 330 332 336 336 337 338 338 338 337 335 335 333 332 331
282 281 282 279 275 270 270 276 285 286 289 289 290 293 295 296 296 296 298 302 303 303 305 305 305 308 311 315 313 320 322 324 325 327 329 332 333 336 336 337 337 337 336 335 335 334 332 331 328
286 283 282 274 273 281 278 279 290 290 288 291 291 294 297 298 297 297 299 301 304 308 309 306 305 307 312 319 312 318 322 325 326 329 331 333 334 336 337 337 337 337 336 334 334 331 330 329 327

GFSSGP_sfc_thetae_063.txt.gz
Theta_e
336 324 320 318 304 303 298 299 303 304 304 309 310 309 309 311 312 310 338 342 337 344 357 361 362 362 362 361 360 360 360 361 362 362 362 361 361 361 360 360 358 355 353 349 346 342 340 337 336
333 320 317 311 300 296 298 301 302 305 308 310 310 309 309 309 315 319 330 339 337 348 359 360 362 361 362 360 359 358 358 359 360 360 361 361 360 360 359 358 355 353 350 346 343 340 339 338 338
327 319 312 308 300 295 298 301 304 306 309 307 308 313 311 314 325 323 339 337 337 346 354 360 362 361 361 361 359 358 358 357 358 358 359 358 358 357 356 356 355 352 346 344 342 341 341 340 340
322 320 312 302 298 298 300 305 305 306 309 309 310 311 316 330 329 340 341 336 337 344 350 360 361 361 360 360 359 358 358 358 358 358 358 357 357 356 355 355 354 351 348 345 344 345 343 342 342
323 316 301 299 298 301 303 306 307 306 308 309 312 311 314 323 338 338 338 335 336 342 347 358 361 361 361 360 360 359 358 358 358 358 358 357 356 355 355 354 353 351 350 349 347 346 347 346 344
314 314 302 297 298 302 305 308 308 308 309 312 314 313 315 330 336 336 336 336 337 343 348 354 361 360 359 359 359 358 358 357 358 358 358 357 356 355 354 354 352 351 351 349 348 347 347 347 347
310 308 302 302 301 303 306 309 308 309 312 312 316 309 317 321 335 335 335 336 339 344 346 354 357 361 360 359 358 358 358 357 357 356 356 356 356 355 354 353 352 351 351 349 348 348 348 347 347
316 310 302 303 300 301 309 310 313 311 311 317 317 311 312 319 336 335 335 335 337 341 343 350 355 355 357 357 358 358 357 357 356 357 356 356 356 355 354 351 351 351 351 350 349 349 348 347 347
316 304 299 302 302 304 310 308 313 315 313 313 315 315 317 320 335 334 333 333 334 336 341 346 350 353 354 353 356 357 358 358 357 357 357 355 353 354 353 350 351 351 351 350 350 349 349 347 346
306 301 301 308 309 307 309 309 310 309 310 311 312 315 317 318 322 329 331 331 331 332 336 343 348 351 353 351 355 356 355 356 356 356 357 355 355 355 351 352 350 351 351 350 350 350 350 346 340
303 299 305 308 311 310 309 306 309 306 306 311 308 311 313 316 319 321 330 332 331 333 335 340 347 350 350 348 350 353 353 355 356 356 357 356 353 352 352 351 351 350 349 344 344 344 341 339 340
297 301 303 306 309 306 307 305 304 305 307 309 310 311 313 313 315 317 321 328 332 332 334 338 343 345 348 347 347 349 350 351 351 353 355 354 348 348 351 348 348 350 346 345 344 340 342 342 341
297 298 300 302 302 303 304 303 303 303 306 308 309 311 311 312 315 319 321 326 332 335 335 336 341 344 346 346 344 347 349 347 349 350 353 352 349 348 348 348 347 345 345 343 341 340 340 340 341
298 298 299 300 301 300 300 301 302 304 306 306 308 309 310 312 314 318 321 325 331 336 340 339 341 344 345 345 346 346 345 345 346 346 348 351 349 348 345 345 344 343 343 341 339 338 339 338 338
297 295 297 298 300 299 300 297 298 301 304 303 305 307 308 309 311 312 316 320 324 333 339 344 341 343 341 340 344 343 342 341 341 341 346 345 346 345 345 342 341 340 341 341 340 340 339 337 338
294 293 290 295 296 298 299 294 299 301 302 301 303 304 306 308 310 313 315 318 321 326 336 346 343 341 343 343 343 340 340 340 340 340 340 342 342 342 342 337 338 338 339 337 336 336 335 336 336
292 287 289 292 298 297 296 293 298 301 301 300 302 303 304 307 310 314 315 316 319 323 327 335 346 346 342 343 342 340 343 339 339 339 339 339 340 340 338 337 340 341 337 335 336 336 337 336 337
288 288 290 290 294 297 295 294 298 300 299 300 301 302 304 306 308 311 313 315 318 322 325 330 340 348 349 342 341 338 337 337 340 338 339 341 339 338 339 338 340 341 337 337 337 338 338 338 339
291 290 289 292 295 294 294 294 296 299 299 299 300 301 303 304 309 310 312 315 316 320 322 324 326 340 349 345 342 340 335 336 337 339 341 342 342 339 340 340 340 341 340 341 341 340 338 338 339
291 289 289 293 295 294 293 293 296 298 299 300 300 300 302 303 304 306 311 314 317 318 320 323 324 327 336 343 347 346 346 343 341 341 346 346 344 344 340 337 341 341 340 343 342 340 338 339 340
291 290 290 289 293 294 292 290 292 296 298 299 301 302 302 302 302 308 310 312 314 316 319 320 322 324 326 333 340 346 347 347 346 346 346 348 348 348 347 346 345 345 343 342 343 341 342 338 338
289 295 292 290 289 284 292 282 290 293 295 297 300 302 303 304 306 308 309 310 312 313 316 318 321 323 324 327 332 342 337 338 343 347 348 351 349 348 349 350 347 346 345 347 345 343 343 342 338
290 295 292 291 289 287 287 284 289 293 292 295 298 301 305 306 306 307 308 309 310 313 314 316 320 322 325 326 328 330 337 337 343 344 352 350 349 351 350 352 349 348 347 348 346 343 341 342 341
295 292 290 289 288 282 285 285 286 289 292 295 298 300 303 306 307 308 310 310 310 313 314 315 317 320 323 323 325 330 336 339 337 341 340 344 345 348 351 351 350 350 348 347 346 345 343 343 343
292 289 283 281 281 280 287 284 287 293 296 297 297 299 303 306 306 306 307 308 310 312 313 314 316 317 321 321 321 326 333 338 340 341 339 340 338 342 346 349 349 347 348 349 347 345 344 345 342
290 289 284 275 278 281 286 282 288 295 297 299 300 302 304 304 306 306 307 308 309 312 314 314 315 316 319 319 322 327 331 331 337 342 341 337 337 343 349 347 348 348 348 348 347 345 344 345 342
289 286 290 285 284 281 284 288 292 295 296 297 298 301 301 303 306 306 307 308 310 314 315 316 315 316 318 318 323 326 329 334 336 344 346 341 344 343 346 346 346 348 348 348 348 346 346 345 343
292 293 284 286 277 276 282 283 285 291 293 296 298 299 301 303 306 307 307 308 311 314 316 319 319 317 318 319 321 323 327 333 337 342 343 343 344 343 344 345 347 348 349 349 349 348 348 347 343
289 288 288 288 286 279 278 283 292 292 295 296 297 299 301 303 305 307 307 309 312 314 315 317 321 320 320 322 322 324 327 331 334 337 338 340 343 343 343 345 346 348 349 349 349 348 346 343 337
292 290 290 284 282 285 284 283 295 296 296 297 298 300 302 304 306 306 308 311 312 313 313 314 318 320 323 324 323 324 330 332 332 334 337 339 340 342 342 344 345 348 348 349 347 345 343 340 336

GFSSGP_sfc_thetae_066.txt.gz
Theta_e
336 325 325 323 308 307 306 306 310 308 309 314 315 313 313 316 314 314 342 344 340 343 357 362 362 362 363 364 364 364 363 363 363 362 362 362 363 363 362 361 359 358 355 352 348 344 341 338 336
332 323 322 317 304 302 305 308 306 310 311 314 315 314 314 313 320 326 327 344 340 348 356 357 361 361 362 363 363 362 363 363 363 363 362 363 362 362 361 360 358 356 353 349 345 342 340 338 338
327 324 314 309 305 301 302 307 309 310 312 313 313 317 316 316 326 331 341 343 341 350 355 357 361 361 362 362 361 361 362 362 362 363 363 362 362 361 360 359 358 354 351 347 344 342 342 341 340
326 319 314 305 302 303 303 309 310 310 312 314 314 314 320 327 330 341 344 345 341 348 352 361 360 360 361 361 360 360 361 361 361 362 362 361 361 359 358 357 356 355 351 346 345 346 345 343 342
326 319 306 304 304 304 307 309 310 309 311 312 314 314 318 326 333 342 345 345 339 345 349 362 360 360 361 361 360 359 359 359 359 360 360 360 358 357 356 356 355 354 352 350 348 347 347 347 344
316 316 305 302 304 305 307 310 311 311 311 313 314 316 319 327 331 338 343 343 340 343 348 359 362 360 359 360 359 358 357 357 357 358 358 357 357 356 356 355 354 353 352 351 349 348 348 348 347
313 310 305 306 306 306 309 313 310 312 313 313 318 314 321 324 330 339 341 341 340 343 346 357 360 362 360 359 358 358 357 357 357 356 356 356 356 355 355 354 354 353 352 351 350 349 349 348 347
315 312 306 307 305 306 312 312 314 314 313 319 320 316 317 322 326 335 341 339 339 342 344 352 356 358 359 358 359 358 358 358 357 357 357 357 356 355 355 353 352 353 352 351 350 350 349 348 348
316 307 304 306 306 309 314 311 315 317 315 317 318 319 321 323 325 329 335 336 337 340 343 348 350 353 355 353 356 358 359 359 358 358 357 355 350 354 353 350 352 352 353 352 351 350 349 348 346
309 305 306 311 312 311 314 313 313 311 312 314 317 320 321 321 322 324 326 335 334 337 340 345 349 350 351 347 353 356 355 356 355 355 356 354 350 351 348 351 353 352 352 352 351 351 350 346 337
308 303 308 310 313 315 313 313 315 311 308 312 313 316 318 319 321 321 324 329 336 335 338 342 350 353 351 348 349 351 350 351 353 356 357 356 350 353 352 349 352 350 350 344 345 345 341 339 338
302 306 308 309 312 312 311 314 312 312 312 313 313 314 316 317 318 319 321 324 330 337 335 339 347 353 355 349 348 349 347 349 350 353 358 356 353 353 352 347 348 349 346 347 345 342 343 342 341
302 304 305 308 309 310 312 310 310 311 313 311 312 313 314 316 317 320 322 327 328 333 339 339 343 350 353 354 348 349 349 348 351 352 356 355 352 351 350 349 347 346 346 344 344 342 341 342 342
303 303 304 305 305 307 304 306 307 309 310 309 314 315 313 313 316 318 321 324 328 333 336 341 341 349 350 352 355 351 350 349 348 348 350 356 352 352 347 348 347 345 344 342 342 341 340 341 340
303 299 301 302 303 303 306 301 302 309 309 309 310 316 315 313 314 315 318 321 324 327 333 341 346 348 350 349 350 349 346 347 345 345 353 353 355 355 353 346 345 344 345 346 343 342 342 340 341
298 299 295 302 303 303 303 297 304 307 306 307 308 311 312 312 313 315 317 320 324 326 329 338 343 345 350 351 349 347 343 343 342 343 345 350 354 353 351 343 343 344 342 340 340 340 339 340 341
298 292 295 297 301 301 300 298 305 305 305 304 305 308 310 310 312 315 316 318 322 325 327 333 339 348 349 351 347 345 349 343 341 342 343 345 347 348 345 340 342 347 340 339 339 338 341 341 343
293 293 294 295 300 300 299 299 303 304 304 304 304 306 308 310 310 313 316 319 320 324 327 329 333 346 352 349 350 345 343 343 341 340 341 348 345 344 346 340 343 346 340 339 340 338 345 344 345
296 295 294 296 299 298 298 299 301 304 304 303 305 305 305 309 311 312 314 317 320 324 326 328 329 334 346 346 343 345 344 344 341 340 346 346 345 342 345 341 344 346 343 336 345 345 347 346 347
296 294 294 296 299 298 298 297 301 303 303 304 305 305 306 307 308 310 313 317 319 322 325 326 329 329 333 339 350 351 350 348 347 346 347 348 346 345 346 348 344 344 341 347 346 349 345 347 349
295 294 294 294 297 298 296 295 298 300 302 303 305 305 305 305 305 310 313 314 317 318 320 323 326 329 332 335 336 345 350 350 350 350 347 349 347 348 350 348 347 348 348 346 350 351 349 345 346
292 297 295 294 293 289 296 288 295 298 299 301 304 305 306 308 308 309 311 312 314 316 320 323 326 327 329 331 333 339 336 339 342 349 354 354 352 350 349 352 350 352 353 355 352 352 352 350 344
294 297 295 294 292 292 292 289 294 297 296 299 301 303 306 308 309 310 310 313 314 317 319 321 325 328 329 331 334 330 335 332 335 340 352 362 362 357 352 354 355 357 354 357 357 355 353 350 345
298 296 295 295 293 286 291 290 292 294 297 299 301 301 303 307 309 310 311 313 313 316 318 322 324 325 328 329 332 333 333 336 332 336 337 341 348 353 355 354 356 359 357 355 355 357 353 351 351
297 293 286 286 286 285 292 288 292 296 298 299 299 302 305 308 309 309 310 311 313 315 317 320 321 324 326 327 329 330 332 335 337 340 335 341 338 344 354 359 360 356 360 358 357 355 354 351 349
294 293 287 281 283 286 292 286 292 298 301 300 302 305 306 306 309 310 311 313 313 315 318 319 321 323 324 326 327 329 331 330 332 338 336 334 338 342 355 358 360 359 356 356 355 353 350 352 349
293 289 295 289 290 286 289 292 297 299 299 300 302 304 304 306 308 309 312 314 315 316 318 321 322 324 326 327 328 329 331 332 333 343 349 340 348 343 348 353 355 356 356 355 354 348 350 351 351
294 297 288 289 281 280 287 288 291 294 296 298 300 301 304 306 307 309 310 313 315 317 319 320 321 321 326 328 329 329 330 331 334 337 343 346 350 349 350 350 353 354 353 352 353 352 353 352 351
292 290 292 292 290 284 282 288 298 297 298 299 300 302 305 306 307 309 310 312 314 316 317 319 319 320 321 326 330 332 331 332 334 336 339 343 350 347 345 347 350 350 350 352 354 355 353 352 352
296 292 292 287 285 289 288 287 300 300 300 301 302 304 306 307 308 309 310 311 312 313 315 317 319 319 319 322 325 329 332 333 334 337 339 342 343 345 345 346 348 348 348 353 354 353 352 351 349

GFSSGP_sfc_thetae_069.txt.gz
Theta_e
334 332 323 321 310 310 308 311 314 311 311 316 318 315 317 319 316 314 338 341 340 350 353 359 362 364 366 366 365 364 363 362 362 362 362 362 362 363 363 362 360 359 357 353 350 346 343 340 338
329 327 322 316 307 305 307 315 310 314 315 316 316 316 314 315 324 328 336 343 340 352 355 354 362 363 365 365 364 364 363 363 362 362 362 363 363 363 362 361 360 357 354 350 346 343 340 338 337
330 324 315 311 307 304 308 312 313 315 314 314 314 317 318 318 328 331 341 345 341 351 355 355 361 362 364 364 364 363 363 363 363 362 362 363 363 362 361 361 359 355 352 348 344 341 340 339 338
325 323 316 306 305 310 310 313 313 313 314 315 315 314 321 328 328 335 343 347 343 348 353 359 360 362 363 364 364 363 363 363 363 363 363 363 362 361 360 360 358 356 351 347 344 343 343 341 340
324 319 310 306 306 310 311 312 315 312 313 313 315 314 318 327 332 338 345 346 345 345 351 360 360 360 362 363 363 362 363 363 363 363 363 362 361 360 359 358 357 355 353 349 346 346 347 346 344
317 318 307 305 306 310 311 313 312 314 315 314 313 315 320 329 328 336 345 346 346 344 350 361 359 360 360 361 361 361 360 361 362 362 362 361 360 358 357 357 356 355 353 352 349 349 348 348 346
313 312 307 307 308 310 310 314 310 312 314 314 318 314 322 326 327 334 344 345 345 344 347 361 357 360 360 360 359 359 359 358 358 359 359 358 358 357 356 356 355 354 353 352 351 350 349 349 347
315 313 308 308 307 308 315 314 314 311 312 320 320 314 318 324 327 331 340 342 343 342 345 357 355 355 356 357 360 359 358 358 357 357 357 357 357 356 356 354 354 354 354 353 351 351 350 349 349
317 307 304 307 307 310 316 314 316 318 314 318 319 320 323 324 326 327 332 339 340 339 344 352 350 352 352 352 356 358 358 358 358 357 357 354 349 351 351 350 353 354 354 353 352 351 350 349 347
310 305 305 311 313 312 314 315 316 314 313 313 317 322 324 324 324 324 325 331 337 339 341 346 350 350 351 347 354 354 352 353 352 351 354 352 349 351 347 351 354 353 353 353 352 352 351 346 335
309 304 309 310 313 314 314 314 317 315 312 313 313 318 321 321 323 322 323 328 338 339 341 343 354 359 351 346 348 351 348 349 352 353 358 357 349 350 349 347 349 349 351 343 345 343 342 338 337
306 309 310 311 312 311 311 315 314 315 316 319 316 320 319 319 321 321 322 325 330 339 339 342 349 358 359 349 346 349 345 349 349 350 363 360 352 357 356 348 349 354 346 347 346 343 347 343 341
306 307 309 311 310 311 312 312 313 314 318 320 319 316 318 318 318 321 323 325 329 331 340 340 347 356 360 364 348 350 350 347 349 351 358 355 353 357 354 355 348 349 347 346 346 345 346 343 343
306 306 306 308 309 309 308 309 311 313 318 318 315 315 318 320 317 318 320 324 328 332 335 342 343 356 355 358 364 359 361 350 351 351 354 361 356 360 351 352 348 346 345 343 344 346 345 344 344
305 302 304 305 307 306 308 304 305 311 313 313 313 314 317 321 320 317 318 324 325 329 333 338 349 349 356 355 358 358 351 351 349 351 361 361 362 361 358 348 348 346 349 350 347 345 346 342 344
301 302 297 304 305 306 305 298 306 310 310 310 311 313 315 320 322 320 319 321 325 328 329 334 340 345 354 353 353 352 349 348 349 348 352 357 363 362 360 350 348 349 348 344 342 342 341 342 340
300 295 297 299 305 305 304 300 306 310 310 309 310 312 313 317 320 320 319 320 322 326 330 331 339 345 353 353 352 353 355 348 345 347 345 355 356 357 356 351 349 357 345 345 343 343 343 342 346
295 297 298 297 302 303 301 301 305 308 308 308 309 310 311 315 317 318 319 319 323 325 329 332 332 342 354 353 356 348 346 347 345 344 345 351 348 351 356 348 352 349 343 340 339 345 342 343 344
299 297 297 301 302 300 300 301 304 307 308 307 308 309 310 313 316 318 318 318 320 325 328 329 332 337 343 350 347 347 345 344 343 343 348 350 348 349 354 347 348 347 344 347 344 341 346 343 349
298 296 296 300 302 300 300 299 303 305 306 307 308 309 309 311 313 315 316 318 321 321 329 328 330 333 335 339 352 349 352 350 348 346 346 346 349 351 351 351 346 349 346 349 349 350 344 345 350
297 295 296 296 300 301 299 297 300 303 306 307 308 309 310 310 310 312 314 318 319 320 320 327 327 329 336 335 340 346 352 350 351 350 349 350 349 351 353 351 349 350 351 344 349 355 355 342 348
294 300 298 296 295 291 300 290 299 301 302 304 306 307 309 310 311 312 313 315 317 317 320 321 330 329 332 335 339 347 338 337 340 348 358 356 350 350 347 348 350 353 350 348 355 357 354 355 345
296 300 298 298 296 295 295 292 296 301 300 301 304 306 309 311 312 312 312 313 316 316 318 323 325 329 334 339 339 333 337 331 335 342 355 355 347 353 349 340 342 352 354 354 357 358 357 353 349
300 298 297 297 295 288 293 292 293 297 299 302 304 306 307 308 312 313 314 315 314 317 318 321 324 327 330 332 335 339 337 338 334 336 340 340 348 355 356 351 350 352 358 357 361 364 363 357 356
298 293 286 286 287 287 296 293 295 299 301 303 304 304 306 308 310 312 312 313 314 315 318 320 321 324 327 329 331 332 337 339 338 340 335 339 338 342 361 362 360 359 362 362 363 363 363 361 354
296 295 287 281 284 287 294 289 295 302 304 303 304 305 307 308 310 310 312 313 314 315 316 319 320 322 325 327 329 333 335 329 331 337 334 334 336 339 351 365 362 365 364 362 365 359 358 359 355
295 292 298 290 292 287 291 296 300 301 301 302 302 305 307 308 309 310 311 313 315 316 318 319 321 322 323 326 330 331 333 336 334 341 344 336 344 341 344 355 361 361 362 365 365 357 358 358 357
298 299 291 292 283 281 287 290 290 297 299 301 302 304 307 308 309 310 311 312 314 317 318 320 321 320 322 323 326 328 332 333 336 339 341 343 346 349 352 352 353 358 360 363 364 358 358 355 353
294 293 294 294 290 285 284 288 299 298 300 301 303 304 306 307 309 310 312 313 314 315 316 318 319 320 320 322 323 326 328 331 334 338 339 342 346 348 348 350 352 353 357 361 361 357 353 354 355
298 292 294 287 288 291 289 289 300 301 303 303 303 305 307 309 310 311 312 313 313 314 315 315 317 318 319 320 321 322 325 328 335 336 338 343 344 346 345 346 347 349 352 358 356 353 349 353 352

GFSSGP_sfc_thetae_072.txt.gz
Theta_e
330 329 328 318 307 308 304 309 316 312 312 317 317 316 316 317 315 316 340 339 352 349 357 360 365 366 367 365 364 363 361 361 362 362 362 362 362 363 363 361 361 359 357 354 351 347 344 340 337
324 327 322 314 304 301 305 313 312 314 314 316 316 316 314 316 326 329 337 343 353 350 357 357 364 365 366 365 364 362 361 361 361 362 362 362 362 362 362 361 361 358 355 351 347 344 341 339 337
324 327 313 310 305 302 305 312 312 313 315 314 313 317 316 320 326 329 338 344 354 352 355 359 363 364 365 365 364 362 361 361 362 362 362 362 363 362 361 360 360 357 352 349 345 344 343 341 339
321 321 317 305 303 308 309 313 314 313 314 315 315 312 320 327 327 332 340 343 345 351 350 360 362 363 364 365 364 363 363 362 362 362 362 362 362 362 360 360 359 357 353 349 347 346 345 344 342
320 316 308 305 304 308 312 315 313 312 313 313 315 312 318 326 329 333 341 343 343 349 350 358 361 363 364 365 364 363 363 363 362 362 362 363 362 361 359 359 358 356 353 351 348 347 347 347 346
311 314 304 302 306 310 312 314 312 311 313 315 313 313 317 328 327 329 341 344 344 347 354 358 360 362 362 363 363 362 363 363 363 363 363 362 361 360 359 358 357 356 353 351 350 348 348 348 348
309 308 304 305 305 308 312 316 311 310 311 314 318 311 320 323 326 329 340 344 346 346 357 359 356 360 362 361 361 361 361 362 362 361 361 360 360 358 357 357 356 355 353 352 351 350 349 348 348
312 310 304 306 305 306 313 313 315 311 310 319 320 313 315 323 327 328 332 341 343 343 358 358 354 353 357 359 361 360 360 360 359 359 359 359 358 357 356 354 354 354 353 353 352 351 350 349 349
313 304 302 303 305 308 314 313 316 317 313 316 319 319 322 325 325 325 327 337 339 339 356 355 349 353 353 354 358 359 359 359 358 358 358 355 353 353 352 351 353 354 353 353 352 351 350 350 349
307 303 302 308 309 309 312 313 315 314 313 313 317 321 323 323 323 322 322 327 337 337 343 352 348 350 350 347 355 355 356 356 356 355 355 353 350 350 345 350 353 354 353 353 352 352 351 348 338
307 303 307 308 310 311 310 311 315 313 311 314 313 318 321 321 323 321 321 325 329 340 342 351 350 353 349 346 354 352 351 351 352 352 353 352 348 349 348 349 346 350 352 344 347 345 343 337 335
303 307 308 309 310 310 308 311 310 313 315 319 319 319 319 319 324 319 319 321 329 340 344 350 353 353 352 348 350 352 347 349 349 350 354 355 350 351 353 347 347 347 347 345 342 340 340 339 339
304 306 308 310 310 310 311 308 309 310 316 320 320 319 318 318 324 327 323 324 335 332 342 346 353 357 355 360 354 352 346 348 349 352 354 352 352 351 353 354 351 351 349 346 344 342 345 342 342
305 305 306 308 308 308 307 307 308 311 315 316 318 319 317 318 319 321 325 328 335 334 339 344 354 359 359 364 367 365 353 349 350 352 352 355 354 355 355 356 354 351 352 349 346 346 346 344 342
305 301 303 304 306 305 307 303 304 310 313 313 314 317 317 318 318 321 321 331 334 333 339 344 346 357 355 355 361 362 361 357 353 353 358 354 356 357 354 354 351 350 350 352 351 349 348 344 345
301 301 296 302 304 305 304 298 305 310 309 309 310 312 314 317 318 322 323 326 331 336 335 342 341 348 353 356 355 357 357 356 358 357 358 358 356 359 360 353 350 350 353 350 346 345 342 341 340
298 293 296 298 304 303 303 299 305 308 308 309 310 311 312 314 318 324 323 327 329 334 336 337 340 348 352 350 353 354 353 352 353 351 355 356 358 356 354 352 350 354 349 349 347 343 341 340 342
294 295 297 296 302 303 301 300 304 307 307 308 309 310 311 312 315 323 325 326 329 334 336 337 340 344 353 349 348 347 348 349 348 345 347 351 352 355 354 352 353 355 348 345 343 340 343 342 341
299 297 296 299 303 301 300 300 302 306 307 306 308 310 311 313 316 321 323 324 326 333 336 338 337 339 346 351 345 344 343 345 344 347 345 347 350 351 352 351 349 351 346 344 342 341 342 340 340
298 296 296 299 302 301 300 299 302 304 305 307 308 309 310 312 314 319 323 323 326 329 334 334 338 341 337 349 353 345 344 347 344 342 341 344 350 347 348 348 347 345 343 344 344 345 337 339 344
297 295 295 295 299 301 299 296 299 303 305 307 309 311 312 312 312 316 318 322 324 328 329 328 334 334 338 342 340 347 349 350 347 350 343 341 341 345 345 347 344 347 345 340 346 344 343 336 342
293 299 298 296 294 290 299 289 298 302 303 305 307 308 309 310 314 315 317 320 323 323 328 332 332 337 331 336 339 340 338 335 336 334 350 351 347 342 344 345 345 345 341 345 345 344 341 343 340
295 300 297 297 294 294 294 290 294 300 299 302 305 306 309 310 312 312 313 317 318 322 325 330 331 334 335 332 335 337 337 335 337 342 342 343 350 346 345 346 343 342 344 340 344 341 344 346 344
301 297 297 296 293 286 292 291 292 296 299 302 306 306 307 309 311 313 316 317 318 319 321 325 330 335 337 338 334 334 336 337 335 336 338 340 344 346 350 345 346 345 346 344 341 345 347 347 345
298 294 286 285 285 284 294 290 295 300 303 304 304 305 308 309 309 312 313 313 316 317 321 323 327 329 333 333 332 335 334 337 336 336 332 334 334 340 344 346 343 341 342 343 342 347 348 348 345
296 294 287 280 282 285 294 288 294 302 304 304 306 307 307 307 308 311 313 314 314 318 321 322 326 326 329 331 330 335 333 333 333 332 331 331 331 333 340 352 348 347 348 348 351 352 352 353 351
295 290 297 290 292 287 290 293 299 303 303 303 303 304 305 307 311 310 311 315 317 320 323 326 325 326 328 330 334 335 337 337 332 334 336 333 336 336 340 339 344 357 355 355 354 353 354 355 355
296 298 288 290 281 280 287 289 290 297 299 302 302 302 305 309 309 310 310 314 317 319 324 325 325 324 325 327 330 330 335 337 336 337 337 336 337 338 339 340 344 356 355 356 356 356 356 354 354
293 292 294 294 292 283 282 287 298 298 301 301 302 304 306 308 308 309 311 314 315 317 316 324 324 324 324 326 326 328 331 333 336 336 338 338 339 340 339 339 341 342 347 353 354 354 354 352 352
298 294 294 285 286 290 288 287 301 301 302 304 303 304 306 307 308 310 311 313 313 315 316 318 323 321 319 324 325 327 330 331 332 332 333 338 338 339 339 339 341 342 345 347 348 350 354 351 349

GFSSGP_sfc_thetae_075.txt.gz
Theta_e
327 322 321 316 298 298 294 300 308 308 307 307 310 311 318 322 320 313 334 346 351 354 361 364 365 365 364 363 363 361 360 361 361 361 361 362 362 362 361 361 361 360 357 354 351 348 344 341 338
323 322 317 308 295 290 295 304 303 304 307 309 311 309 316 315 325 328 336 347 350 354 357 361 365 364 364 363 362 361 361 361 361 361 361 362 362 362 361 361 360 357 354 351 347 344 341 339 337
319 321 308 301 296 292 296 304 306 307 310 309 308 312 317 318 325 327 338 347 350 351 353 361 365 364 364 363 362 361 360 361 361 361 361 362 362 361 360 360 359 356 352 348 344 343 343 341 339
313 312 310 298 295 301 304 306 309 309 310 311 310 310 319 325 325 329 338 347 349 349 353 362 364 364 363 363 362 361 361 361 361 362 361 362 362 360 359 360 358 356 352 347 345 346 345 344 342
310 307 298 296 298 303 308 309 308 306 307 308 310 308 315 322 326 334 337 343 346 346 354 358 363 364 364 364 363 362 361 361 361 362 362 362 361 360 359 359 358 356 353 350 347 346 346 346 346
303 306 295 294 299 306 310 311 310 307 307 308 310 310 314 320 321 324 338 335 344 344 354 356 362 363 363 363 362 362 361 361 361 362 361 361 360 359 358 358 357 355 353 351 349 348 347 347 347
301 298 296 298 301 304 308 312 313 310 311 308 311 310 314 317 319 320 336 336 340 347 352 353 356 361 363 362 361 361 361 361 361 360 360 360 359 358 357 356 356 355 353 351 350 349 347 346 346
303 300 297 299 299 301 309 310 310 308 310 316 318 309 308 316 320 320 328 333 346 350 351 350 354 357 357 359 361 361 361 361 360 360 360 359 358 357 356 353 354 354 353 352 351 350 349 348 347
306 295 294 298 301 303 309 307 311 311 309 313 316 316 319 321 319 318 318 329 346 351 349 348 350 352 352 354 360 360 362 361 360 360 359 356 350 351 352 352 352 353 353 352 351 351 350 349 349
300 296 297 303 305 303 306 307 308 309 308 309 313 319 322 319 316 316 315 317 331 347 347 346 346 348 348 355 354 353 357 355 354 354 353 350 346 346 349 350 352 353 353 352 352 351 351 350 341
300 296 301 304 306 308 306 306 309 307 305 308 309 314 318 316 315 315 315 314 317 345 346 344 346 346 345 346 351 351 352 351 350 350 349 345 344 343 345 341 344 345 350 345 347 346 344 341 337
296 301 303 304 307 306 305 307 306 306 310 314 314 315 315 314 313 313 313 316 322 331 342 342 344 345 343 344 348 346 347 346 346 345 347 344 339 336 339 340 340 342 342 341 337 339 337 336 334
296 299 303 305 306 306 307 305 305 306 309 314 316 316 314 313 314 313 314 316 319 323 334 337 345 343 342 344 347 345 343 344 343 344 345 346 339 340 338 340 340 341 341 341 338 336 335 335 335
298 299 299 301 302 303 302 303 304 307 309 309 313 314 314 313 314 312 312 313 324 326 329 337 347 345 344 350 348 346 339 343 344 344 345 345 345 339 343 340 344 343 343 343 340 337 336 337 336
299 295 298 299 299 298 301 298 299 305 308 306 307 312 315 314 314 314 312 314 322 324 328 331 341 349 346 346 348 349 350 342 342 345 345 347 345 346 340 345 342 342 342 342 340 339 340 338 338
294 293 288 295 299 301 297 292 301 304 304 304 306 307 309 312 313 312 314 319 320 324 324 328 339 347 346 348 349 348 348 347 345 345 347 349 347 346 349 344 344 342 341 340 338 335 332 332 333
290 286 289 293 300 299 297 294 301 304 304 302 304 305 306 306 311 312 316 319 320 322 322 325 330 336 346 346 348 346 346 346 346 344 347 349 350 351 347 347 344 343 341 340 339 335 333 331 333
287 288 291 291 296 298 296 296 300 302 303 302 302 303 305 306 308 314 319 321 323 323 324 324 329 333 344 345 345 344 342 343 342 341 341 349 351 350 348 347 344 343 342 339 335 332 333 333 332
294 293 292 295 299 296 295 296 298 300 300 299 299 302 303 306 308 310 318 321 321 321 321 324 327 327 336 341 340 340 337 339 341 340 339 340 347 350 348 344 344 345 341 336 334 332 330 329 332
294 291 290 295 298 296 295 294 297 300 299 299 300 301 303 304 306 309 315 315 316 320 321 319 320 329 328 342 341 341 341 341 339 340 340 340 342 344 349 347 344 342 338 337 335 333 331 331 334
293 291 291 291 296 296 294 291 294 298 300 301 302 302 304 304 305 307 313 314 316 316 317 318 321 322 325 329 335 340 342 345 342 339 338 339 340 340 342 344 344 341 340 337 336 337 335 331 332
290 296 295 294 291 285 293 283 291 296 297 299 301 302 301 304 306 306 310 311 314 316 317 316 319 320 324 323 326 325 331 332 336 335 340 339 339 337 338 342 343 341 341 339 337 337 337 333 329
293 297 294 294 289 286 289 285 289 294 294 296 299 302 303 303 303 305 308 311 311 312 314 319 319 320 322 323 325 325 327 329 329 331 332 343 343 340 339 339 341 342 340 340 339 338 339 337 335
301 297 292 290 286 280 287 286 287 290 293 296 301 302 303 302 304 305 307 308 309 309 310 313 317 318 322 322 322 323 322 325 325 325 327 331 333 339 342 341 342 340 341 341 337 338 338 337 338
297 292 282 278 278 279 289 287 288 295 299 300 300 303 301 305 304 306 306 306 307 307 308 312 312 313 318 319 321 325 326 327 325 325 325 325 326 329 340 343 341 340 342 341 341 338 341 341 341
292 291 283 276 275 280 290 285 289 299 302 303 303 301 303 300 302 304 306 306 307 308 309 311 314 315 317 319 320 322 323 326 328 328 326 325 326 326 329 334 343 343 343 342 342 339 337 339 342
292 289 294 286 287 283 285 290 295 299 300 303 302 301 299 298 300 303 304 305 308 307 310 310 314 314 316 317 318 319 324 323 322 323 324 331 329 330 330 332 335 340 343 341 340 338 337 341 344
293 295 286 286 278 277 283 285 286 294 297 299 300 300 300 301 301 302 303 304 306 308 309 311 312 311 312 312 315 322 322 325 324 325 325 326 328 331 331 331 330 333 336 348 350 348 348 346 349
288 287 290 289 286 281 278 282 295 294 296 298 300 301 300 301 301 301 302 303 305 306 309 310 311 312 313 314 313 314 315 320 324 326 327 328 329 330 332 333 334 333 333 337 349 350 350 348 349
294 289 290 282 283 285 284 283 297 296 296 299 300 302 303 300 300 301 302 304 304 305 306 309 312 311 311 314 316 315 315 316 318 319 321 323 324 329 331 334 333 334 335 334 336 344 349 347 347

GFSSGP_sfc_thetae_078.txt.gz
Theta_e
327 318 317 312 298 295 293 298 304 303 303 305 315 320 318 320 318 311 337 344 354 358 361 363 364 363 363 362 361 360 360 359 360 361 361 361 361 361 361 361 360 358 356 354 350 347 342 339 338
324 319 315 305 293 289 294 300 301 302 305 306 311 315 317 316 327 336 337 348 354 358 360 360 363 362 362 362 360 360 360 360 360 360 361 361 360 360 360 360 359 356 353 350 346 343 339 337 336
314 318 307 299 292 291 294 300 302 307 308 307 305 315 317 318 326 329 341 348 354 356 358 361 364 362 361 361 360 359 360 360 360 360 361 361 360 359 359 360 358 354 351 348 345 341 340 338 337
309 308 307 297 294 300 302 304 305 306 308 308 308 312 318 324 327 336 346 349 351 352 357 363 363 362 361 361 360 360 360 360 360 360 361 360 359 359 359 359 357 355 350 347 344 343 342 339 338
308 304 297 294 297 301 307 309 307 306 305 305 312 311 313 319 332 343 345 346 345 349 355 361 363 362 362 362 360 360 360 360 360 360 360 360 359 358 359 358 356 355 351 347 344 345 345 343 342
301 301 293 292 297 304 307 310 307 310 310 311 308 311 313 319 324 333 345 344 345 348 355 359 363 361 361 361 360 359 359 360 360 360 360 360 359 358 358 357 356 354 352 350 348 347 345 344 344
298 295 291 295 297 301 306 310 309 309 312 313 309 309 312 314 316 321 339 345 343 349 351 357 358 359 361 361 359 359 359 359 359 359 359 359 358 357 357 356 355 354 351 350 349 347 346 345 345
300 297 293 295 297 298 307 307 307 307 309 316 315 308 307 313 317 319 326 340 342 348 349 352 356 357 356 359 360 359 359 359 358 359 359 358 357 357 356 353 353 353 352 350 350 349 348 347 346
302 291 290 294 297 300 307 303 309 311 307 314 316 314 317 317 316 315 331 342 344 347 347 349 353 355 354 354 358 359 361 360 359 359 359 354 350 350 352 351 353 353 352 351 351 350 349 348 347
297 290 294 299 301 300 304 305 306 306 306 307 310 317 318 317 313 313 313 339 342 343 345 346 349 351 353 355 355 356 358 357 356 356 355 351 347 345 349 350 352 353 352 352 351 351 351 349 339
296 294 298 300 303 303 303 305 307 304 301 306 307 312 315 314 312 312 312 318 343 345 345 345 346 349 351 352 352 352 354 354 353 352 350 346 345 345 345 341 344 343 349 342 345 343 342 340 338
292 298 300 301 303 303 302 306 305 304 305 311 311 313 314 312 311 311 314 321 342 344 344 344 344 345 345 350 350 351 350 350 348 349 347 344 339 337 338 337 338 338 340 340 338 337 336 336 336
291 295 300 302 302 302 304 303 303 304 307 310 310 313 312 312 311 310 313 319 330 335 342 342 344 343 341 346 346 348 348 348 347 345 346 344 337 335 336 336 336 338 338 339 336 334 334 333 333
295 295 296 297 298 299 300 302 303 305 308 308 309 309 312 312 310 309 311 318 323 329 338 340 343 343 340 345 342 343 344 346 346 345 345 343 339 336 335 335 338 337 338 338 337 336 334 332 333
297 292 294 295 296 296 298 295 297 302 304 304 305 308 310 313 313 311 312 316 322 324 330 339 342 342 340 344 344 342 340 342 342 343 343 344 341 336 337 338 338 339 340 339 338 336 336 334 336
292 289 285 292 297 298 296 291 299 301 301 302 303 305 310 312 312 313 311 312 320 323 325 330 345 342 342 345 346 345 342 342 342 343 343 344 344 342 336 337 341 340 339 339 337 337 335 333 332
287 284 287 290 296 295 294 292 298 301 300 300 302 302 305 309 311 311 313 314 319 320 322 324 333 336 340 343 347 345 345 341 342 343 344 344 344 345 345 341 340 341 339 337 337 335 332 329 329
284 285 288 288 293 293 291 292 298 300 299 300 301 302 302 303 306 311 312 316 319 319 321 322 328 332 340 341 343 342 341 344 342 343 344 345 345 345 344 344 343 342 339 337 336 334 333 331 330
291 290 289 293 295 293 292 292 295 297 297 298 299 298 300 301 306 313 317 321 321 320 320 322 323 324 332 339 337 336 336 338 341 341 339 348 347 348 347 345 343 342 338 337 336 333 330 328 329
293 290 289 292 295 293 292 291 295 296 297 297 297 298 300 300 304 313 316 318 317 318 319 321 325 325 324 336 338 336 336 337 338 340 341 340 342 348 347 345 343 342 340 336 335 332 329 329 330
292 289 289 289 293 293 291 289 292 296 297 299 299 300 300 301 302 310 314 314 316 317 317 316 317 320 323 326 333 338 337 340 335 335 336 339 339 342 347 347 345 341 342 340 336 334 331 331 328
287 296 295 293 289 284 291 282 289 292 294 297 297 296 297 300 302 308 312 311 315 316 315 315 317 319 319 320 322 327 332 331 335 335 336 338 339 338 339 345 346 344 342 338 336 336 334 331 327
293 298 295 294 288 284 286 281 288 291 291 294 295 297 298 300 301 305 310 311 312 314 312 315 315 315 317 317 319 321 321 326 329 330 331 336 338 339 337 337 340 342 340 338 337 335 334 334 331
300 295 292 291 285 280 286 283 286 288 291 293 298 301 302 302 300 304 309 311 310 311 313 314 315 315 317 318 316 318 319 320 323 323 325 329 336 338 338 338 338 340 340 338 337 336 336 336 336
294 288 281 278 280 281 288 284 286 292 295 297 298 299 301 303 300 307 308 307 308 306 309 313 313 312 317 318 319 319 319 320 321 321 320 320 322 323 334 339 338 339 339 339 339 336 335 337 337
290 287 279 275 275 280 289 284 288 295 298 300 301 299 300 301 303 306 306 307 307 306 307 309 309 309 313 314 315 315 318 320 322 322 322 321 321 322 325 330 340 339 339 339 339 338 338 338 338
291 287 293 285 285 281 283 288 294 297 297 300 300 301 300 298 303 304 305 306 304 305 305 307 309 310 313 315 315 315 317 318 318 319 321 322 325 327 328 328 331 336 339 340 339 338 337 338 338
292 294 283 285 272 277 282 285 285 291 293 298 297 297 300 301 301 301 303 304 304 305 306 307 310 311 313 314 314 316 317 319 320 320 320 321 323 325 326 328 327 328 331 332 338 338 338 337 338
287 287 287 285 281 274 277 280 293 292 295 295 299 300 298 302 300 301 301 304 305 305 306 308 310 311 309 309 310 313 316 319 320 322 324 324 325 328 329 330 331 330 330 331 331 334 340 340 337
292 289 287 279 280 285 283 283 296 296 297 296 296 301 302 302 302 302 303 301 301 302 304 306 310 309 309 310 310 310 310 310 312 314 317 318 319 322 325 326 329 330 331 330 332 332 333 336 342

GFSSGP_sfc_thetae_081.txt.gz
Theta_e
324 318 315 309 297 294 290 296 301 301 301 310 317 318 318 319 317 309 337 344 353 356 359 362 363 363 362 362 360 359 359 359 360 360 360 360 361 361 361 360 360 357 356 353 349 346 342 340 339
319 315 312 302 293 289 292 298 299 301 304 305 309 313 314 316 329 335 336 349 352 356 358 359 363 362 362 361 359 358 358 358 359 359 359 359 360 360 360 360 358 356 353 349 346 343 340 338 336
310 315 305 298 291 291 294 298 301 304 305 306 304 315 315 318 329 333 341 351 354 355 358 358 362 362 362 360 359 358 358 358 359 360 359 359 359 359 359 359 357 353 350 347 344 342 341 339 338
307 306 305 296 294 298 300 302 303 306 305 309 309 310 316 322 323 336 347 353 353 355 357 361 361 361 361 360 359 359 358 358 359 360 359 359 358 359 358 358 356 354 349 346 343 343 343 342 340
306 302 295 293 297 301 305 308 306 304 304 308 311 309 312 318 339 343 346 350 350 353 356 359 361 361 361 360 360 359 359 358 359 359 358 358 358 358 358 357 355 353 349 346 343 343 345 344 342
301 300 292 291 297 303 305 308 308 307 306 307 309 309 310 317 335 340 344 345 349 351 356 358 361 360 360 359 359 358 358 358 359 359 359 358 357 357 357 356 355 353 351 349 346 346 345 344 343
297 295 291 292 297 300 305 308 306 306 308 308 311 307 310 313 316 342 341 341 346 351 355 356 358 359 360 359 358 358 358 358 358 358 358 357 357 357 356 356 354 353 351 350 349 347 345 344 344
300 297 290 293 295 297 305 306 305 305 306 313 314 308 306 312 316 340 341 339 342 348 353 355 355 356 356 357 359 358 358 358 357 358 358 357 356 356 356 352 353 353 351 350 349 348 346 345 344
301 291 288 293 296 299 304 302 307 309 305 308 310 314 317 316 322 333 335 336 342 345 348 353 352 353 353 354 357 358 358 358 357 357 357 354 349 350 351 350 352 353 351 350 350 349 348 347 346
295 288 292 298 300 299 301 300 303 304 304 304 306 313 316 315 313 333 334 336 339 341 344 350 351 352 351 353 353 354 355 354 354 353 353 349 345 345 348 349 352 352 352 350 350 350 349 347 338
295 291 295 299 301 300 300 301 304 303 300 302 304 308 313 312 310 324 336 338 339 342 344 347 349 351 350 350 352 352 353 353 353 353 352 347 345 345 345 341 344 341 347 340 344 342 342 339 337
290 297 298 299 301 300 299 303 302 302 304 307 308 310 311 312 309 309 316 333 340 342 342 345 348 348 349 351 351 351 350 351 350 350 350 345 342 340 340 338 336 335 337 337 336 337 336 337 338
290 293 296 298 299 299 301 300 301 302 305 307 308 308 310 310 309 309 318 330 341 341 342 343 346 346 346 348 349 349 349 349 350 350 348 344 339 337 336 335 334 334 334 335 335 334 334 334 333
293 294 295 296 295 296 297 299 299 302 306 306 307 307 307 311 312 308 314 328 339 340 341 342 343 344 344 346 345 347 349 348 347 347 347 345 340 334 332 333 333 333 334 335 335 334 333 332 332
294 290 293 293 295 293 296 294 295 300 304 303 304 304 305 309 311 309 311 324 336 336 341 340 341 343 341 344 344 345 345 346 345 346 345 345 341 336 333 331 333 336 335 335 335 335 334 332 333
290 287 284 290 295 296 294 289 297 300 298 299 302 302 304 306 309 312 310 317 324 329 334 339 342 341 340 343 343 342 343 343 343 344 345 345 343 338 334 333 333 335 336 336 336 336 334 334 334
285 282 284 289 293 294 293 289 296 299 298 298 299 300 302 304 307 310 312 310 320 325 329 334 339 339 338 339 343 342 341 341 341 341 341 343 344 342 336 335 336 338 336 336 336 335 334 331 330
283 284 286 286 292 291 291 290 294 297 297 297 297 299 299 302 304 308 311 311 318 321 325 331 338 337 337 340 342 341 340 338 341 341 341 341 342 342 341 339 337 337 336 335 334 334 333 332 330
289 287 287 291 295 290 290 291 293 295 294 295 295 297 298 299 304 305 308 312 317 317 320 325 330 332 339 338 339 337 338 338 337 339 342 342 342 342 342 342 342 342 338 337 336 334 333 331 330
290 287 287 291 294 290 290 290 293 293 294 295 296 297 297 296 300 303 311 314 316 317 318 320 322 325 334 338 335 336 335 336 337 337 337 341 345 344 343 341 340 342 340 337 335 333 330 328 329
289 287 287 288 292 291 289 289 290 294 294 296 297 297 297 298 300 305 312 314 314 316 318 319 321 320 323 334 337 336 334 337 332 334 335 337 340 343 347 344 343 341 341 340 337 334 331 329 328
286 294 295 293 288 282 289 282 289 291 292 294 296 295 296 296 299 301 310 311 313 316 316 317 318 319 320 325 329 333 332 331 333 332 334 335 337 338 342 345 344 342 341 339 339 337 334 331 328
291 297 294 293 287 282 285 280 288 288 289 292 294 296 297 299 297 300 307 311 314 313 313 313 315 315 316 316 320 322 322 326 327 328 330 333 335 336 338 340 341 345 343 342 339 335 333 333 331
298 293 291 289 284 279 285 284 286 289 290 292 294 297 300 300 300 299 305 311 311 310 310 312 312 312 314 314 315 317 317 318 319 322 324 326 329 334 336 336 336 341 342 341 339 339 336 333 333
292 285 278 277 277 280 287 284 285 291 294 294 294 295 297 299 298 298 302 307 309 309 310 311 312 312 314 315 314 314 314 315 316 317 319 318 320 322 326 334 334 335 336 336 336 336 336 336 334
288 287 279 274 276 280 287 280 286 293 296 298 298 297 298 297 296 298 304 308 310 311 311 312 311 310 314 315 315 316 317 317 317 318 318 318 317 318 321 323 333 335 336 336 336 335 333 334 335
289 284 288 281 281 277 281 286 292 295 296 298 298 297 297 297 298 299 304 308 310 307 310 310 308 308 311 313 312 313 314 315 317 318 319 320 319 324 326 325 326 331 336 337 334 334 332 334 335
290 292 281 281 277 275 278 282 284 290 293 295 297 297 297 298 297 298 300 302 302 304 307 306 308 308 309 311 312 313 314 316 317 316 316 317 318 320 322 324 325 325 328 328 327 330 335 334 335
286 284 284 284 283 278 273 278 291 293 295 294 296 298 298 298 299 300 302 302 303 306 304 306 307 308 308 310 311 312 313 314 316 317 318 319 320 323 325 326 328 328 328 328 328 327 330 333 333
289 286 285 276 276 283 279 280 294 294 294 297 296 299 302 303 300 301 304 304 303 300 301 304 306 307 309 310 310 311 313 314 315 316 318 320 319 319 322 320 320 321 323 325 327 328 330 329 329

GFSSGP_sfc_thetae_084.txt.gz
Theta_e
324 314 315 307 297 294 290 294 299 300 300 307 312 316 318 318 315 308 336 345 351 352 359 361 362 362 362 361 361 361 360 361 361 361 360 360 360 361 361 361 360 358 356 353 350 347 344 344 345
316 313 310 301 292 288 290 296 297 300 303 304 304 311 313 313 330 333 335 350 351 355 358 358 362 361 361 360 360 360 360 360 360 360 360 360 361 361 360 360 359 356 354 350 347 344 341 341 339
309 313 304 297 290 290 293 298 298 303 305 305 304 313 314 316 325 333 340 351 354 354 357 358 362 361 361 360 359 359 359 359 359 359 359 359 360 359 359 359 358 354 351 348 344 342 343 342 341
307 306 303 296 293 297 298 303 303 304 306 309 308 309 315 320 321 338 349 353 352 353 355 361 362 360 360 360 359 358 358 359 359 359 359 359 359 358 358 358 357 354 350 347 343 344 344 343 342
306 301 294 292 295 300 304 306 308 303 303 307 309 308 313 319 340 346 350 351 350 352 354 359 361 360 360 359 359 358 358 358 359 359 359 358 358 358 357 357 355 354 352 347 343 344 345 344 344
299 299 291 289 296 302 305 306 307 306 305 307 308 308 309 315 336 341 348 348 351 351 354 357 360 360 359 359 358 357 357 357 358 358 358 358 357 357 357 356 355 353 351 349 346 346 344 343 342
297 294 290 291 296 299 304 306 304 304 306 305 308 306 309 311 325 340 344 346 350 353 354 355 356 358 359 359 358 357 356 356 356 357 357 357 356 357 356 356 354 354 352 350 349 346 345 343 342
298 295 289 292 295 297 304 304 303 303 305 310 310 306 306 312 319 339 339 342 346 351 352 352 354 355 355 355 358 357 356 356 356 356 356 356 356 356 356 353 353 353 351 350 349 347 346 344 343
301 291 288 292 295 298 303 299 303 307 304 308 308 307 313 316 329 335 333 336 342 349 351 352 352 354 354 353 355 357 357 357 356 356 356 353 351 352 351 351 352 353 351 350 349 348 346 345 345
296 288 291 296 298 298 299 298 301 301 302 303 304 309 313 313 317 332 332 332 338 343 348 350 350 352 352 353 352 352 353 354 353 352 352 349 347 347 348 349 352 353 352 350 349 348 348 347 340
292 289 293 298 300 300 299 299 302 299 298 302 302 305 308 312 311 321 332 333 336 341 346 349 349 351 350 350 351 352 352 352 352 351 350 346 345 346 347 344 347 346 349 343 347 345 344 342 340
291 296 297 295 299 297 298 301 300 300 301 305 305 306 308 308 309 314 327 334 335 338 343 348 349 349 350 349 349 350 350 350 350 351 351 347 342 341 341 341 340 340 339 339 338 339 340 339 340
289 292 294 296 295 295 298 297 298 298 303 305 305 306 306 307 308 309 316 331 337 338 341 346 348 347 349 348 349 349 348 349 348 349 349 348 343 339 339 338 337 336 336 337 337 337 337 337 337
292 292 293 294 294 295 295 297 297 299 303 302 303 303 303 307 309 308 309 321 338 340 340 344 346 347 348 349 348 348 349 349 349 349 349 348 345 341 338 336 335 334 335 336 337 337 337 336 336
292 289 292 292 293 293 294 292 294 299 301 300 301 302 302 304 308 309 310 324 339 340 341 341 344 346 346 347 347 347 348 349 348 348 350 348 345 341 338 336 335 335 335 336 337 338 337 336 336
288 286 283 290 292 295 293 287 295 298 297 297 299 300 302 302 306 309 309 318 332 338 339 341 343 343 344 345 345 346 346 348 347 347 347 348 347 344 340 337 335 335 336 336 336 337 336 336 337
284 280 282 288 292 292 290 288 295 298 296 296 297 298 299 301 303 305 310 310 319 333 338 338 340 339 340 342 343 343 344 346 345 343 343 344 346 345 341 338 337 335 336 337 337 337 338 337 336
281 282 284 285 291 289 289 289 293 295 295 296 296 296 297 299 301 304 306 310 312 322 330 338 339 339 339 339 341 340 338 340 340 340 342 342 344 345 341 339 335 337 337 335 337 337 338 337 336
288 286 285 289 293 289 289 290 292 293 293 293 294 295 296 297 300 302 304 307 309 317 321 329 336 337 337 336 337 338 337 336 338 340 341 341 341 343 342 341 340 337 336 337 338 337 337 336 335
288 285 285 289 292 289 289 290 291 292 292 294 294 295 296 296 298 300 301 304 312 314 320 324 333 335 337 339 339 339 339 338 338 339 340 341 341 342 341 340 341 342 340 340 338 337 334 335 332
287 285 286 287 292 291 289 289 289 292 293 294 295 296 296 297 297 299 301 308 310 312 317 322 327 332 338 339 337 335 337 336 334 336 338 340 342 343 343 342 340 340 342 341 340 338 336 335 333
284 290 291 292 288 283 289 282 289 291 291 292 294 295 295 296 298 298 300 303 311 313 315 319 324 326 333 337 337 335 334 334 334 334 337 338 340 342 345 345 343 342 342 340 341 340 338 335 331
288 293 293 292 287 283 285 280 286 290 290 291 295 294 296 297 297 298 300 302 308 313 314 316 318 319 323 334 338 336 332 333 332 332 333 335 337 339 339 342 344 342 342 341 341 339 338 336 336
296 292 289 287 283 278 284 282 283 286 289 291 295 296 297 298 297 299 300 301 305 311 312 313 316 316 317 321 325 329 329 327 326 326 328 330 333 335 337 338 338 336 337 337 339 339 337 336 336
290 285 278 276 277 279 285 282 285 290 294 294 296 298 298 296 297 298 298 299 302 308 310 312 312 312 313 315 317 318 319 319 320 321 322 323 325 328 332 336 336 337 337 340 340 336 335 335 334
286 286 279 273 275 280 285 280 284 292 294 297 298 297 297 297 297 297 299 299 301 307 310 313 311 311 312 313 313 315 315 315 316 317 318 320 320 322 326 328 335 337 338 338 338 338 336 335 335
288 284 288 281 279 275 280 284 290 293 294 296 296 298 297 298 298 297 300 301 302 307 311 313 312 313 314 315 315 315 316 317 318 319 320 320 321 322 324 327 328 330 337 338 337 335 335 335 335
291 292 282 279 271 271 277 279 282 287 290 295 295 296 297 298 298 298 299 301 302 305 309 312 313 311 314 316 314 315 314 316 317 318 319 320 321 324 325 326 328 329 330 332 331 331 334 335 336
287 285 284 282 279 272 274 277 287 289 292 292 294 297 298 299 299 299 301 303 301 304 304 307 309 310 312 313 314 314 314 316 317 318 319 319 321 323 326 328 330 328 328 328 329 330 331 333 334
289 286 285 277 276 283 280 280 292 290 291 293 294 297 298 301 300 299 302 304 306 306 303 306 307 309 310 312 314 313 314 314 316 317 318 321 323 325 326 325 322 322 323 324 324 324 326 328 328

GFSSGP_sfc_thetae_087.txt.gz
Theta_e
326 318 323 317 306 307 302 304 308 308 309 314 312 323 323 324 320 318 345 348 350 358 362 360 362 363 363 363 363 363 362 362 362 362 361 361 361 361 361 361 361 359 356 353 350 349 348 349 351
318 319 319 312 303 299 301 305 306 309 312 313 310 318 320 320 332 339 342 349 352 359 361 359 362 362 362 362 362 362 362 362 362 361 361 360 361 361 361 361 360 357 354 351 348 345 345 345 347
314 318 314 309 303 299 301 305 308 312 314 314 314 319 320 321 328 339 346 352 353 358 360 361 362 361 361 361 361 361 361 361 361 361 361 360 361 360 360 360 359 355 352 349 346 344 345 344 343
314 317 312 305 300 302 303 308 311 311 314 316 315 314 322 324 327 344 351 354 354 356 359 361 361 361 361 361 360 360 360 360 360 360 360 360 360 359 359 359 358 356 352 348 347 345 345 344 342
314 312 305 302 301 304 307 310 312 310 311 314 315 314 319 327 347 352 353 354 352 355 358 361 361 360 360 360 359 360 360 359 359 360 360 359 359 358 358 358 357 355 353 350 346 346 346 345 344
309 310 302 298 301 304 308 311 311 310 311 313 313 314 317 326 344 351 353 353 352 354 359 360 361 360 359 359 359 358 358 358 358 358 358 358 358 357 357 357 356 354 353 350 348 347 346 345 344
306 305 301 301 300 302 306 311 309 308 310 310 313 311 318 320 337 351 353 354 353 355 358 360 358 359 359 358 358 357 357 357 358 357 357 357 357 357 357 356 355 354 352 350 349 347 346 345 343
308 306 298 300 299 300 307 308 310 309 308 314 314 309 310 318 326 348 350 353 352 353 355 358 358 355 354 356 358 357 357 357 357 357 356 356 356 356 356 354 354 354 352 351 349 347 346 345 343
306 301 297 298 299 301 307 305 310 311 309 310 312 313 315 321 334 341 344 347 348 349 353 356 355 355 354 353 355 356 357 357 356 357 356 354 350 352 353 351 353 354 352 350 349 348 346 345 344
303 299 298 302 304 303 305 305 306 305 306 307 309 313 316 317 325 333 338 339 342 345 349 354 355 355 354 351 354 353 352 352 351 353 354 351 350 351 348 351 352 354 352 351 349 349 348 345 340
300 298 300 302 304 305 304 304 306 304 302 306 306 309 313 314 316 324 336 340 340 343 347 351 356 356 354 351 353 353 353 353 353 353 354 353 350 350 349 347 348 348 350 344 344 344 342 342 343
297 300 301 302 304 303 301 304 302 303 305 308 309 311 312 312 314 315 325 338 341 341 347 351 355 355 354 354 352 352 352 353 352 352 355 352 349 349 348 346 345 348 345 346 345 342 344 346 347
298 299 300 302 301 301 302 300 301 302 306 309 309 310 310 312 314 317 320 328 342 342 344 348 353 355 354 357 353 353 353 353 352 353 354 352 348 348 347 347 345 344 345 343 343 343 344 347 348
298 298 300 301 301 301 300 302 301 304 308 307 308 309 310 311 314 316 319 321 339 345 346 349 351 355 354 355 357 355 355 353 353 352 353 353 351 350 346 346 345 344 344 343 343 343 345 347 348
299 297 298 299 301 300 301 297 298 304 305 305 307 308 309 310 312 315 319 323 330 345 349 348 351 354 355 354 355 356 354 353 353 353 355 353 352 352 349 345 345 344 345 345 345 346 347 346 347
296 295 293 298 298 300 299 294 300 304 303 303 304 306 307 310 311 314 316 322 327 339 348 350 350 351 353 354 355 355 354 353 352 352 353 353 352 353 350 347 346 346 345 343 343 344 344 345 345
294 290 291 295 299 299 298 295 301 305 303 303 305 306 306 307 310 314 316 317 323 330 346 348 350 350 352 353 353 354 356 353 353 354 351 352 353 353 352 349 348 346 344 343 342 342 344 344 347
289 290 291 292 297 298 297 297 301 304 303 302 304 305 306 307 310 313 314 315 318 325 339 350 350 351 352 351 351 350 350 350 352 351 351 352 349 352 353 351 349 345 343 343 342 343 344 345 346
293 292 291 295 299 295 297 297 300 303 303 304 305 306 307 308 311 313 314 315 316 321 328 340 347 350 349 347 345 345 345 346 348 350 351 351 351 352 351 350 350 345 344 345 346 343 344 344 347
293 292 292 296 298 296 297 297 301 302 303 304 304 305 306 309 310 312 315 317 317 320 327 331 340 350 348 346 345 346 345 345 345 347 350 351 350 351 350 350 346 345 342 346 346 345 340 343 345
294 292 293 293 296 299 297 295 298 301 302 304 305 306 307 307 308 311 313 315 318 320 324 328 335 345 349 350 346 346 347 346 342 343 345 347 348 348 349 348 349 348 347 344 348 347 346 343 345
291 296 295 294 293 289 296 287 296 299 300 301 304 306 305 306 308 309 311 314 317 320 323 326 332 340 347 350 348 347 343 340 343 343 345 347 349 348 348 349 348 349 349 349 349 349 347 344 341
294 296 295 295 294 293 293 290 294 298 297 300 302 304 307 308 309 308 309 311 313 317 319 326 329 332 342 348 350 347 347 346 347 346 347 350 349 349 348 350 351 350 346 346 342 336 336 334 330
299 297 296 295 293 286 292 291 292 294 297 299 302 304 306 306 308 309 310 312 312 314 316 323 327 330 335 342 346 348 349 347 344 345 345 346 348 349 350 349 351 353 350 348 343 335 332 333 331
297 294 287 285 285 285 292 289 292 297 300 300 301 303 306 307 307 308 309 309 311 312 315 319 325 328 332 337 343 347 349 350 346 346 345 344 343 344 347 349 348 348 349 348 346 343 338 333 336
295 294 288 281 283 286 292 286 292 299 301 302 303 305 305 306 308 308 309 310 312 314 315 315 320 325 329 332 339 342 344 343 342 342 341 341 341 342 346 346 347 347 347 346 347 343 342 342 342
294 291 295 289 289 285 288 292 296 298 298 301 302 302 303 306 307 308 310 311 311 314 316 316 319 323 327 328 330 330 329 331 330 333 335 334 336 335 335 337 339 342 345 347 347 344 345 345 345
296 298 289 291 281 279 285 286 287 292 295 299 299 301 303 306 307 309 309 311 313 314 317 319 320 321 325 325 325 325 327 328 330 331 331 333 333 334 335 335 337 338 341 343 343 341 342 343 343
293 292 292 291 289 282 280 284 294 295 296 297 299 301 303 305 307 308 308 309 313 314 315 317 319 320 322 323 325 325 325 326 328 330 331 332 333 334 334 334 336 338 337 337 337 336 335 335 334
294 294 294 287 284 287 286 284 296 297 298 300 299 301 304 305 306 309 309 309 312 314 313 316 318 318 319 320 319 322 323 326 327 330 331 332 332 333 334 336 335 331 329 329 327 324 325 324 326

GFSSGP_sfc_thetae_090.txt.gz
Theta_e
332 326 328 323 311 312 311 312 314 312 313 318 320 327 326 328 324 323 350 349 348 354 362 362 363 365 366 365 364 363 362 361 361 361 361 361 361 362 362 362 361 359 357 354 351 350 351 351 353
324 324 325 320 308 307 310 313 312 314 317 319 319 323 325 325 334 341 344 349 352 357 363 360 363 364 364 365 364 362 362 361 361 361 361 361 361 362 362 362 361 358 355 352 350 349 350 351 353
322 323 317 313 309 307 309 312 313 315 318 319 318 325 325 325 333 342 349 350 354 358 361 361 362 363 364 364 363 362 362 361 362 362 361 361 361 361 361 361 360 357 353 350 347 347 346 347 349
321 321 319 308 306 309 309 313 314 314 318 320 320 317 326 335 336 348 350 350 353 355 358 361 361 362 362 363 363 362 362 362 362 362 361 361 361 361 360 360 359 357 353 350 348 347 346 344 342
320 318 309 307 307 309 311 314 315 313 315 317 319 316 321 341 351 352 351 351 353 354 356 362 361 361 362 362 362 362 362 361 362 362 361 361 361 360 359 359 359 357 354 351 347 347 347 346 344
312 314 306 305 306 309 313 315 315 314 315 316 316 317 321 330 341 351 353 354 353 353 357 361 360 361 360 361 360 360 360 360 361 360 360 360 360 359 359 358 357 356 354 352 348 348 347 346 346
309 308 305 307 307 306 311 316 313 313 314 315 317 314 321 323 328 348 354 356 353 354 355 361 358 359 360 359 359 359 359 359 359 359 358 358 358 358 358 357 357 355 354 351 349 348 347 346 343
311 308 304 306 305 305 312 313 315 313 312 318 318 315 317 321 330 340 351 354 352 352 352 358 359 355 354 355 359 358 358 358 358 358 358 358 358 357 357 355 355 354 352 351 350 348 347 345 344
312 304 301 301 302 305 311 311 315 315 313 314 316 316 320 322 323 330 342 349 350 348 351 355 356 356 354 352 354 357 357 358 358 358 358 355 353 354 355 351 355 353 352 350 349 348 347 346 344
307 303 303 307 307 306 308 309 309 308 309 310 312 316 318 320 321 321 328 339 347 347 348 352 355 356 354 351 355 354 351 352 352 352 356 354 352 350 346 350 354 353 351 350 350 349 347 343 337
307 302 307 307 309 309 308 308 310 307 306 310 310 313 316 317 319 319 321 332 340 347 348 350 357 358 356 352 353 352 350 350 351 352 354 356 349 350 347 346 348 347 349 343 343 342 340 339 342
302 306 307 307 308 308 306 308 306 308 308 312 312 313 314 315 317 319 321 328 337 344 347 351 355 359 360 354 352 353 349 348 347 348 355 355 349 349 347 343 343 345 343 343 343 340 343 346 350
302 304 305 307 306 307 307 305 305 306 310 312 313 313 313 315 317 320 322 323 327 341 347 350 354 359 362 361 353 354 353 349 350 350 352 352 349 351 347 345 344 344 343 344 343 342 343 348 352
304 304 304 305 305 306 304 304 306 307 310 310 311 312 313 314 316 318 321 324 326 330 343 352 354 358 360 358 362 358 358 352 351 349 351 355 350 352 345 346 346 344 343 342 342 342 342 348 351
304 300 303 304 305 304 306 302 303 307 308 308 309 311 312 313 315 316 319 322 325 331 343 351 355 358 360 358 358 359 355 354 351 350 358 357 357 354 353 345 345 344 346 347 346 345 347 350 350
301 301 298 304 303 304 303 298 304 307 307 307 308 309 310 312 314 317 318 321 324 328 333 344 350 355 358 360 358 358 355 354 352 353 353 357 358 357 353 347 345 346 348 345 342 341 342 344 346
300 295 296 298 303 302 302 299 304 308 308 307 309 310 310 312 314 317 319 320 322 325 328 333 348 353 356 360 358 359 362 356 353 353 353 356 355 355 354 349 348 353 347 345 343 342 342 340 343
296 295 296 296 301 302 301 301 305 307 307 308 308 309 310 311 313 317 318 320 322 326 330 333 340 354 358 358 358 356 354 355 355 354 353 359 357 353 355 351 354 354 348 346 346 350 344 342 340
298 297 296 299 302 301 300 301 304 307 307 307 309 310 311 312 315 317 318 320 323 326 330 333 335 354 356 353 352 352 350 352 352 355 358 356 355 353 353 347 352 355 351 350 355 349 347 339 344
298 296 297 300 302 301 300 300 304 306 307 308 308 309 310 312 313 315 317 319 321 324 329 334 335 342 353 352 356 354 353 351 351 351 357 356 356 356 352 344 348 355 349 354 354 353 341 340 343
298 296 297 297 300 302 300 299 302 306 307 308 309 311 311 312 312 314 316 317 319 321 324 327 334 339 346 353 352 354 354 351 348 348 350 354 355 356 358 355 354 355 349 345 351 351 348 338 344
295 301 299 297 297 293 301 291 300 303 304 306 308 310 310 311 313 314 315 317 319 319 321 323 332 336 338 350 346 352 346 343 347 349 349 351 354 352 352 355 353 355 350 349 350 350 349 346 344
298 301 299 299 297 297 297 294 299 303 301 305 307 307 309 311 312 312 314 316 318 320 320 323 329 332 337 343 352 347 350 345 348 348 355 355 355 354 350 352 352 353 351 354 356 353 353 350 346
302 300 300 300 298 291 296 295 296 300 301 304 306 307 307 310 311 312 315 317 317 320 321 323 325 330 334 337 346 353 353 353 346 349 348 348 349 350 351 349 352 353 353 351 351 351 351 347 343
301 298 291 290 291 290 299 295 297 302 304 304 303 305 308 310 310 311 313 314 317 319 321 323 324 324 330 334 338 346 354 358 356 354 349 350 347 347 354 356 357 355 357 356 354 350 346 346 342
300 299 292 285 288 291 297 292 297 303 306 306 305 307 308 309 310 310 312 315 316 318 320 322 324 325 326 330 335 341 348 348 349 353 349 348 348 357 359 357 357 356 356 355 356 353 352 349 345
298 295 301 294 295 291 294 298 302 303 302 302 303 305 306 308 309 310 312 315 316 318 320 321 324 326 326 328 333 338 345 349 349 355 354 350 357 350 352 354 353 353 353 353 353 349 350 350 349
299 302 294 294 285 284 291 292 293 298 299 300 301 303 306 307 308 310 312 314 316 318 320 322 325 325 326 327 332 336 343 346 347 348 348 347 347 345 345 346 348 350 350 351 351 349 350 349 349
297 295 296 296 293 286 285 290 299 297 300 300 302 304 305 306 307 309 311 314 316 318 319 320 324 324 325 328 331 333 334 334 335 334 334 336 338 337 336 338 339 340 343 346 347 346 344 344 346
298 296 296 291 289 292 290 290 302 300 301 301 302 304 305 308 309 310 311 314 315 316 317 319 320 322 323 325 329 328 328 329 332 332 332 334 334 335 333 334 335 336 338 342 340 339 337 337 336

GFSSGP_sfc_thetae_093.txt.gz
Theta_e
332 329 328 324 313 316 312 315 320 315 315 320 322 324 326 328 327 326 350 346 348 357 360 362 366 367 367 366 364 363 362 361 361 362 362 362 363 363 363 363 362 360 357 354 352 351 351 352 353
326 326 325 319 311 309 312 318 315 318 320 322 322 323 324 327 336 342 346 346 350 357 360 359 365 366 366 366 364 363 362 361 361 361 362 362 362 362 362 362 361 359 356 352 350 350 351 351 352
326 325 318 314 311 309 311 317 318 319 321 321 320 327 327 328 336 344 349 349 351 356 358 362 364 365 366 366 364 363 362 361 362 362 361 362 362 362 362 361 361 357 354 351 349 349 350 351 352
321 321 319 310 309 314 316 318 319 318 320 322 322 320 333 343 343 349 349 350 352 353 356 361 363 364 365 365 364 363 362 362 362 362 361 361 362 361 361 361 360 357 353 349 347 347 346 347 348
321 318 311 310 310 315 316 318 318 317 318 319 321 319 326 337 348 349 349 350 351 352 355 363 362 364 364 364 364 363 363 362 362 362 362 361 361 361 360 361 359 357 353 350 346 345 346 345 342
313 316 308 307 311 316 316 318 318 317 318 319 318 319 323 330 343 348 350 352 353 352 355 362 361 362 363 363 363 363 362 362 362 362 362 361 361 360 360 360 358 357 354 351 347 346 346 345 344
309 309 307 309 311 313 315 319 316 317 318 317 320 316 323 326 333 347 351 354 352 353 353 360 357 361 362 362 361 361 361 361 362 361 360 360 360 360 359 359 357 355 354 351 349 347 346 345 343
313 311 306 309 308 310 316 317 318 316 316 322 320 315 319 324 328 338 347 350 350 351 351 357 356 354 356 359 361 360 360 360 360 360 360 359 358 357 357 357 356 354 352 350 349 347 346 346 346
314 305 304 305 308 310 316 314 319 320 316 318 320 319 322 324 325 327 337 343 346 348 350 355 353 353 353 351 357 359 359 360 359 359 359 356 353 355 354 352 355 354 351 349 348 348 348 346 346
307 302 303 308 310 308 311 313 315 314 314 314 316 319 321 322 323 323 325 334 342 345 347 351 355 355 354 350 356 354 355 357 358 358 359 355 352 353 348 350 355 354 351 350 349 349 347 342 335
308 302 307 308 311 311 309 310 313 310 309 313 313 316 318 319 321 322 323 324 331 343 347 348 356 359 355 351 351 352 349 349 352 355 359 358 351 351 347 346 347 348 349 342 343 341 339 337 337
305 309 308 309 310 309 308 311 309 310 311 314 315 316 316 317 318 320 323 325 326 335 346 349 353 361 364 354 351 353 349 349 348 348 360 357 352 355 353 343 347 348 340 343 343 337 343 342 344
306 307 309 310 309 308 309 307 308 309 312 313 314 314 314 315 317 320 323 325 327 330 343 349 353 362 366 367 355 354 355 348 349 350 355 354 351 355 350 350 345 344 340 341 341 342 345 343 348
308 307 307 308 308 308 305 306 307 309 312 312 313 313 315 315 317 319 321 324 327 329 333 348 352 364 362 363 366 362 362 355 350 350 351 355 356 356 348 349 345 343 343 342 343 345 343 344 348
308 303 305 306 307 306 308 304 305 310 312 310 311 313 314 315 317 317 320 324 326 328 333 337 353 357 365 364 363 362 357 356 353 351 355 355 358 359 353 348 348 348 350 353 350 346 347 344 348
303 304 299 306 307 307 305 299 307 310 309 309 310 311 312 314 316 318 319 322 325 327 330 339 345 352 362 365 363 359 358 356 354 354 355 357 356 358 356 349 348 348 353 349 344 343 340 340 342
303 298 300 302 307 305 304 301 307 309 309 309 310 312 312 313 316 319 320 321 323 325 328 330 337 342 356 365 362 363 363 359 357 357 355 358 357 355 355 349 349 355 348 347 345 341 345 341 343
298 299 300 300 304 304 302 302 307 309 309 309 311 311 312 312 314 318 319 321 323 325 330 337 339 348 357 359 364 358 359 359 356 355 356 358 359 358 355 351 348 352 348 346 344 347 345 342 341
302 300 300 302 305 303 303 303 306 309 309 309 310 311 313 313 316 318 319 321 322 326 329 335 337 346 345 348 349 352 352 354 356 358 360 358 359 357 357 352 352 351 348 350 352 349 349 343 346
301 299 299 302 305 304 303 302 306 308 309 310 310 311 312 313 315 316 319 321 322 325 333 336 338 343 343 338 352 351 354 353 356 358 360 362 361 358 357 354 352 353 351 352 350 353 346 345 347
301 299 299 299 303 305 302 300 303 307 309 310 311 312 313 313 314 316 317 319 321 322 328 330 338 343 344 347 340 350 357 356 350 353 357 357 360 360 360 357 357 353 352 347 355 354 350 341 345
297 303 301 300 298 294 304 294 303 306 307 309 311 312 313 313 314 315 316 318 319 321 323 326 334 336 336 347 339 343 339 344 347 349 353 358 361 358 358 359 357 349 350 348 353 355 351 347 340
299 304 302 301 299 299 299 296 301 306 305 308 310 312 312 314 313 314 315 316 318 320 321 325 335 339 339 341 345 337 340 339 345 348 354 359 359 360 356 359 360 351 353 354 352 355 354 349 343
304 302 302 302 300 293 298 298 299 302 305 308 311 310 311 311 312 314 316 317 318 320 321 324 330 336 337 338 341 346 345 347 344 346 346 352 350 357 357 356 358 359 355 352 354 357 357 351 349
303 299 292 292 292 292 302 299 301 306 308 308 308 309 310 311 312 312 313 313 316 318 320 321 324 328 332 335 337 340 344 350 350 351 348 350 349 353 356 356 356 356 357 354 357 358 357 356 351
301 300 293 287 289 293 301 295 300 308 309 310 310 309 309 311 311 311 312 313 314 316 319 320 322 325 326 329 334 337 342 338 346 351 351 350 350 353 358 357 356 357 355 354 356 354 353 354 351
300 297 302 296 297 293 296 300 306 308 308 307 305 307 308 309 310 311 311 313 315 316 318 320 322 323 326 327 334 337 339 344 342 350 352 350 349 350 356 356 354 351 342 345 349 350 354 355 353
301 304 294 296 288 286 292 295 296 301 303 305 304 305 307 308 309 310 311 313 314 316 319 321 322 322 325 327 330 331 336 341 345 351 349 348 350 348 344 352 343 338 323 324 337 348 352 354 349
298 298 298 297 295 289 287 292 304 301 304 304 305 306 306 308 308 309 312 314 314 316 317 319 320 321 323 325 329 332 334 337 343 345 348 349 348 345 342 343 347 339 324 325 341 343 348 346 348
302 299 298 293 292 295 294 293 306 307 305 304 304 306 307 309 309 310 312 313 313 314 316 317 320 320 322 322 324 326 327 334 338 341 342 344 341 344 340 339 339 342 342 345 343 342 341 341 341

GFSSGP_sfc_thetae_096.txt.gz
Theta_e
330 327 327 322 311 313 309 312 318 317 315 320 322 321 322 328 329 326 349 349 354 355 362 364 366 366 365 364 363 362 361 361 361 361 362 362 363 364 364 363 362 360 357 355 353 352 352 353 354
324 324 323 316 308 306 309 316 315 319 319 321 321 320 321 325 339 342 339 350 355 357 361 362 366 366 365 364 363 362 361 361 361 361 362 362 363 363 363 362 362 359 356 353 352 352 352 352 353
323 324 315 311 308 306 309 317 318 319 321 320 319 325 331 330 341 343 345 351 355 355 358 364 366 365 365 365 363 362 362 361 362 362 362 362 363 362 362 362 361 358 354 351 351 352 353 353 353
320 318 315 306 306 311 314 319 319 318 320 322 322 324 334 343 343 344 346 349 352 351 354 363 365 365 365 365 364 362 362 362 362 362 362 362 362 362 361 361 361 358 355 352 351 352 352 353 353
319 315 307 306 308 313 317 319 319 317 318 320 321 324 328 340 346 346 347 349 348 351 358 362 364 365 365 365 365 363 362 362 362 362 362 362 361 361 361 361 359 357 355 352 350 349 349 348 348
310 313 303 304 309 314 317 319 318 318 319 319 319 321 322 338 342 344 347 348 349 352 361 360 363 364 364 364 364 363 362 362 362 362 362 362 361 360 361 360 359 357 355 352 350 348 347 347 346
307 307 304 306 308 311 316 320 316 316 317 318 321 317 322 327 339 345 348 349 350 354 361 360 357 362 364 363 362 362 362 361 361 361 361 361 361 360 360 359 358 356 355 352 350 348 347 346 345
309 307 304 306 307 308 317 318 319 317 316 322 322 315 316 323 329 340 345 346 347 349 358 358 357 356 359 361 362 362 361 361 361 361 360 360 360 359 359 357 357 356 354 352 350 348 348 346 345
312 303 302 303 306 309 315 315 319 321 317 318 319 320 322 324 325 326 336 341 343 346 351 355 351 354 354 356 360 361 361 361 361 360 360 357 355 355 355 354 356 356 354 352 350 348 348 347 346
306 301 302 309 310 309 312 313 315 314 316 315 317 320 321 322 322 322 324 333 339 342 345 353 352 352 351 349 358 359 359 359 359 358 359 357 355 354 350 352 356 356 354 353 351 349 349 346 335
306 301 305 307 309 309 309 309 313 310 310 314 313 316 319 320 323 321 322 323 326 342 344 350 357 356 351 349 356 354 354 357 358 359 359 357 354 352 350 350 349 350 353 345 346 344 340 336 334
303 307 306 307 310 310 308 310 308 310 310 314 315 316 316 316 318 318 319 323 325 327 341 350 357 358 356 353 354 353 349 351 352 355 358 356 353 351 349 346 346 346 345 340 340 336 337 336 338
304 306 308 309 309 309 310 307 307 309 313 314 314 314 314 315 317 320 321 323 327 330 335 349 355 359 361 362 357 354 350 349 349 351 352 352 351 350 349 344 346 345 342 341 339 340 338 340 342
307 307 307 308 308 308 306 306 307 308 312 312 312 312 313 314 316 319 322 328 333 336 339 344 358 362 363 359 363 370 358 351 350 348 348 351 352 348 348 350 344 346 339 341 339 341 344 344 343
308 304 305 306 307 305 307 303 303 309 310 310 311 312 313 315 316 318 323 335 334 333 339 343 346 365 362 363 362 364 365 357 355 349 350 350 350 351 350 346 348 343 343 342 342 344 348 345 347
303 303 298 304 306 306 305 297 306 311 309 308 309 310 312 315 315 320 323 337 332 335 336 339 338 352 363 362 363 360 360 358 355 351 351 352 349 354 354 349 345 348 351 349 348 344 343 342 341
302 296 298 301 307 306 304 300 306 310 309 308 310 311 312 313 317 321 324 330 335 337 333 337 341 339 349 362 362 363 361 359 356 355 350 351 350 351 354 347 347 350 349 349 344 344 342 339 341
297 297 299 299 305 305 302 302 305 308 308 309 310 311 312 313 315 322 322 325 330 334 332 332 336 340 346 345 360 362 361 358 358 356 351 353 352 350 350 348 346 346 343 340 343 341 341 338 340
301 300 299 303 305 303 302 302 304 308 308 308 309 311 313 314 317 319 323 330 330 333 336 339 342 347 344 342 347 354 353 356 356 356 356 356 353 352 349 346 344 347 341 340 340 340 338 337 340
301 298 298 302 305 303 302 301 305 307 308 309 309 311 313 315 317 319 324 326 329 331 336 337 340 342 346 343 341 349 352 353 355 357 358 356 355 353 352 347 347 343 342 341 340 338 335 337 338
300 299 299 298 302 304 302 300 302 306 309 310 311 313 314 314 315 319 320 324 326 330 333 331 339 339 346 346 343 340 341 349 351 352 353 355 355 356 354 353 347 347 346 342 343 343 339 334 339
297 303 301 300 298 293 302 292 301 305 306 309 311 311 312 314 316 317 317 321 326 326 329 332 339 342 338 342 337 337 332 331 341 349 351 353 357 355 354 354 353 347 348 346 346 346 345 343 336
299 303 301 301 298 297 297 294 299 305 303 307 311 312 314 315 315 314 314 319 320 324 324 332 339 340 338 341 340 334 330 328 333 334 340 350 356 355 354 354 354 351 349 350 347 348 347 346 338
304 301 301 300 298 291 296 296 296 301 305 308 311 312 313 312 312 313 315 319 320 320 322 328 332 335 341 337 336 337 336 335 333 332 336 336 349 352 352 354 354 353 351 347 345 346 349 346 342
302 298 290 289 290 289 299 296 300 308 309 309 309 311 312 311 311 312 313 313 318 317 320 324 325 326 335 333 334 334 333 335 334 336 336 336 341 346 349 352 351 352 352 351 345 345 347 347 344
299 298 292 285 288 291 300 294 299 309 311 311 311 311 311 310 311 312 312 315 313 316 320 321 322 325 329 330 330 334 333 331 332 334 336 339 339 341 350 351 351 352 352 352 345 345 346 348 346
298 294 300 294 296 291 295 299 305 308 308 310 309 309 308 309 312 311 311 314 315 317 321 323 321 322 327 328 330 333 334 333 332 334 337 337 344 343 342 343 347 348 349 350 349 341 323 323 341
301 303 293 294 286 286 292 294 296 302 304 306 307 306 308 310 309 310 311 313 317 318 323 322 325 322 324 328 327 325 327 331 333 333 334 337 339 344 345 343 331 327 324 329 326 325 322 324 322
299 296 297 297 295 288 287 292 305 303 305 305 307 308 308 308 308 309 311 313 314 316 315 318 320 320 323 324 323 325 327 327 329 331 335 336 339 342 342 338 333 330 324 327 326 322 321 320 320
302 299 298 291 291 295 293 292 306 308 306 308 306 306 307 309 309 310 310 312 313 315 315 315 322 319 320 324 323 325 326 328 327 327 328 331 329 337 342 331 323 323 324 323 324 319 322 321 320

GFSSGP_sfc_thetae_099.txt.gz
Theta_e
330 319 319 314 302 301 299 304 312 312 312 312 316 315 327 330 329 320 346 354 356 359 362 363 364 364 364 363 362 361 361 361 361 361 362 363 363 362 362 361 361 361 358 356 354 352 353 354 355
322 319 316 309 298 294 300 309 310 311 313 315 316 325 330 328 336 338 343 354 357 358 359 361 364 363 363 363 362 361 361 361 361 361 361 363 363 363 362 362 361 359 355 353 352 352 353 354 353
323 319 308 303 297 296 298 309 313 315 317 316 316 330 330 331 339 338 349 355 356 355 357 362 364 363 363 363 361 361 361 361 361 361 361 362 362 362 361 361 360 358 353 351 351 352 354 354 353
314 310 307 297 295 302 306 311 314 316 317 317 326 326 334 342 339 342 351 353 352 352 360 364 364 363 363 363 362 361 361 361 361 361 362 362 362 361 361 361 359 357 354 351 351 354 354 355 355
311 306 296 295 298 306 310 314 317 317 314 315 326 325 329 338 342 343 349 350 349 353 359 362 364 364 363 363 362 361 361 361 361 361 362 362 361 360 360 360 359 357 355 353 350 351 350 350 350
302 305 293 292 300 308 312 315 315 314 315 317 320 321 325 338 339 340 344 347 348 356 358 360 364 364 363 363 362 361 360 360 360 361 361 361 360 360 360 359 358 356 354 352 351 348 346 345 344
300 299 295 298 301 305 311 318 310 311 312 312 320 314 317 329 336 340 341 345 354 356 356 358 360 363 363 362 361 361 360 360 360 359 359 360 360 359 359 358 358 356 354 351 349 347 345 344 343
304 301 296 298 300 301 310 315 314 312 313 318 318 312 308 318 331 339 340 351 354 355 353 353 356 359 358 360 362 361 360 360 359 359 359 359 359 359 359 356 356 356 354 351 349 347 345 344 344
306 296 295 298 300 304 310 305 316 317 313 315 316 317 318 319 319 316 329 337 352 354 351 351 352 353 354 356 360 361 362 361 360 360 359 357 354 354 356 355 356 356 354 352 350 348 346 345 345
299 295 297 304 305 304 307 307 306 311 312 313 314 317 318 318 315 314 314 331 338 349 349 349 349 350 350 357 356 356 358 358 357 357 356 353 349 351 353 353 356 355 354 353 351 349 348 347 334
297 296 301 304 307 308 306 305 307 305 303 309 311 313 315 315 312 312 312 313 317 338 349 347 348 348 347 348 355 354 355 355 355 354 354 352 351 350 350 347 350 348 352 346 347 344 341 335 331
295 302 303 304 306 305 303 306 306 307 306 311 310 314 312 310 309 312 313 312 313 316 338 346 346 346 345 345 351 351 352 353 353 353 353 351 349 346 346 344 344 343 344 339 337 336 335 332 330
298 300 304 306 305 304 305 305 304 304 310 311 311 313 311 310 312 310 313 313 313 319 325 346 346 346 345 344 349 348 348 350 352 352 353 353 349 347 344 343 342 342 341 338 333 333 332 331 329
300 301 302 303 302 304 301 303 304 305 308 308 308 307 309 309 309 309 312 312 316 322 326 336 349 348 347 347 347 347 346 346 347 348 350 353 351 346 343 341 341 340 340 339 332 333 331 331 332
302 297 300 301 302 300 303 299 301 305 307 305 306 308 309 309 310 309 311 315 316 318 322 324 326 354 353 348 350 356 353 347 344 345 347 349 347 343 342 341 339 340 339 337 333 330 333 334 334
297 294 289 298 302 303 301 294 302 306 305 304 305 307 309 309 309 310 313 313 314 314 318 322 332 331 337 351 352 352 355 353 349 343 344 346 346 346 343 343 340 338 339 333 335 332 333 336 335
294 288 291 295 302 301 300 294 302 306 305 304 304 305 307 307 309 310 311 313 314 317 317 321 322 330 329 330 347 354 353 352 351 349 345 345 346 346 348 344 342 341 339 340 338 336 335 333 332
290 291 293 294 300 301 297 296 301 304 304 304 304 305 306 307 309 311 311 312 317 321 321 321 323 329 333 331 339 351 353 352 349 350 349 345 346 345 346 347 341 341 341 339 338 335 336 333 334
297 295 294 297 301 298 297 297 299 302 302 302 302 304 305 306 309 311 314 318 321 322 323 323 321 326 325 324 326 338 344 349 350 350 351 347 347 346 344 345 342 342 340 338 337 334 332 334 332
298 295 293 297 301 297 295 295 299 301 301 301 303 303 305 306 308 310 315 315 315 316 318 318 320 321 323 329 326 328 335 342 349 352 350 350 349 347 345 344 343 342 340 337 335 335 332 332 331
296 294 294 294 299 298 296 293 296 301 302 303 304 305 306 306 306 311 311 311 312 314 314 316 319 321 322 322 325 325 324 325 332 343 349 350 350 349 347 345 343 341 340 338 337 335 333 330 330
291 299 299 298 294 286 295 285 293 298 300 303 304 303 304 306 308 309 309 309 311 312 313 312 316 322 320 321 323 322 322 320 323 326 333 343 349 350 349 347 345 341 342 338 338 338 335 333 328
295 300 297 297 292 289 292 286 290 297 297 300 302 305 305 305 307 307 308 309 310 310 310 316 320 318 319 323 325 322 322 321 320 320 322 327 330 346 350 348 348 345 342 341 338 337 337 336 333
301 297 295 293 289 283 289 289 289 294 298 302 307 307 307 306 305 307 308 308 308 309 309 312 312 315 321 320 320 320 320 323 324 324 325 326 326 327 337 347 347 348 348 342 341 339 339 338 337
296 290 282 281 281 282 293 290 292 299 305 306 304 305 304 304 304 304 305 305 306 305 307 311 310 311 312 319 318 321 322 321 322 324 326 327 327 327 327 338 344 345 347 349 343 343 341 342 341
294 291 283 278 280 285 295 288 293 303 306 307 310 306 304 303 303 304 304 304 304 304 307 310 311 311 314 316 317 317 321 321 320 322 324 326 327 329 330 331 336 342 344 344 346 343 341 343 344
296 291 295 289 289 284 289 293 299 304 304 305 306 305 301 303 303 304 305 305 305 306 306 309 309 308 311 315 318 323 321 318 321 322 323 324 328 330 332 335 335 337 342 342 341 340 339 325 324
298 301 290 289 280 279 287 289 291 298 301 303 303 302 301 301 300 302 302 304 305 306 308 309 308 311 313 316 316 317 316 317 321 319 322 324 326 329 330 332 334 336 330 333 330 329 324 323 323
296 295 294 293 291 281 280 286 299 300 302 301 302 303 300 299 300 301 302 303 305 306 307 307 309 311 310 314 314 314 316 319 319 320 320 323 323 323 323 324 329 333 328 329 331 330 324 323 320
296 296 296 288 285 287 285 288 303 302 301 302 303 303 303 303 303 303 302 302 304 305 306 306 308 310 311 312 314 314 316 317 317 317 315 317 317 321 319 321 322 327 330 325 327 322 322 319 319

GFSSGP_sfc_thetae_102.txt.gz
Theta_e
331 318 314 312 301 298 295 301 308 310 310 313 328 328 326 327 325 318 345 351 358 358 360 362 363 363 362 362 361 361 360 360 361 362 362 361 361 361 361 362 362 362 359 356 353 353 354 354 354
325 318 313 306 296 291 294 304 306 310 313 323 331 331 328 325 338 342 346 356 358 359 359 360 363 362 362 361 361 361 360 360 360 361 362 362 361 361 361 360 360 357 355 353 352 353 353 353 352
319 317 304 300 294 292 295 303 308 313 317 313 325 331 331 330 341 342 351 356 358 357 358 360 363 362 362 361 360 360 360 360 360 361 362 362 362 361 360 360 359 356 353 351 351 352 353 353 353
312 306 305 295 293 299 302 306 308 312 316 324 329 326 333 341 338 348 354 356 354 356 359 362 362 362 362 361 361 360 360 360 360 361 361 361 361 361 360 360 358 356 353 351 352 352 353 353 353
308 302 296 292 294 301 307 308 309 312 312 322 328 325 327 339 348 352 352 352 352 355 359 361 362 362 362 361 361 360 360 360 360 361 361 360 360 360 360 359 358 356 354 351 350 351 353 354 353
301 300 291 291 297 307 307 310 311 315 323 325 327 325 326 344 345 348 351 349 355 355 358 360 363 362 361 361 360 360 359 359 360 360 360 360 359 359 359 359 358 356 354 352 350 350 348 347 346
300 296 293 294 299 303 307 309 309 310 312 313 321 319 322 332 345 347 348 349 355 356 355 358 360 362 362 361 360 359 359 359 359 359 359 359 359 359 359 358 357 355 353 352 350 348 346 344 343
303 298 293 296 299 299 306 307 306 310 311 320 320 311 310 317 337 344 345 349 352 353 353 355 357 360 359 358 360 359 359 359 358 358 358 358 358 358 358 355 356 355 354 352 350 348 346 344 343
305 296 293 295 299 301 307 304 309 311 311 314 316 315 317 317 319 340 346 347 350 351 351 353 355 356 356 357 359 360 361 360 359 359 358 355 354 354 354 354 356 356 354 352 350 349 347 345 345
298 296 301 304 303 301 305 305 305 306 306 310 312 316 316 316 314 316 342 344 346 347 348 350 352 353 354 358 357 357 357 357 356 355 354 352 350 351 353 353 356 355 354 352 351 349 348 346 333
295 294 302 303 305 307 306 305 304 305 302 304 304 309 311 312 310 311 323 343 346 349 348 348 349 350 351 352 355 355 356 355 355 354 353 351 350 350 350 348 350 349 352 344 346 344 341 336 332
292 299 301 303 305 304 305 311 306 308 307 309 308 309 309 308 307 307 309 310 324 346 348 347 347 347 349 351 352 352 353 352 351 352 352 349 348 345 345 345 344 345 344 341 340 338 336 334 331
293 297 301 304 304 303 305 303 304 305 308 310 309 309 307 306 307 307 308 309 315 319 338 345 346 345 346 345 350 350 350 352 352 352 352 350 347 344 344 343 343 342 341 340 336 335 334 332 331
297 298 299 302 302 303 300 299 302 305 309 308 307 305 305 307 308 307 307 308 318 322 332 343 342 342 342 342 347 347 348 350 350 351 351 351 349 347 344 341 341 340 340 339 335 332 328 328 327
297 293 296 299 300 299 302 298 299 306 307 305 305 304 306 307 309 308 309 313 316 317 323 338 345 345 342 341 345 344 343 346 347 349 350 352 351 348 346 342 340 340 339 336 335 329 328 327 328
294 292 288 295 300 301 300 294 301 305 304 303 304 303 305 307 307 306 310 313 312 315 321 323 340 341 341 343 350 351 346 342 343 344 346 349 351 350 344 344 341 340 339 337 335 332 327 328 332
290 287 289 294 300 300 298 294 301 304 302 301 302 302 305 305 308 308 310 312 312 313 319 321 323 322 326 330 333 345 352 351 347 344 341 343 347 349 347 344 343 340 337 337 334 333 331 327 329
287 288 291 291 296 297 295 294 299 302 301 302 302 302 303 304 305 308 308 313 315 317 318 320 326 328 327 325 325 333 347 347 348 346 345 343 344 345 344 344 342 340 340 337 335 333 332 330 330
294 292 292 295 298 296 295 296 299 300 300 300 301 302 303 304 307 309 311 318 319 319 318 318 320 322 321 320 318 319 328 341 346 347 348 346 343 344 342 342 342 339 339 339 337 336 332 332 328
295 292 292 295 298 295 293 294 296 298 298 299 300 301 302 303 305 310 314 313 314 314 314 315 316 315 319 321 323 324 326 327 334 341 345 349 344 344 343 342 340 341 339 338 337 335 334 329 329
294 292 292 293 297 295 293 291 293 298 300 301 301 302 303 304 304 309 309 309 312 312 313 316 315 316 318 320 319 318 318 318 319 323 333 341 349 345 345 345 342 340 341 340 338 336 334 331 328
290 297 296 295 292 285 293 283 289 295 297 299 301 300 300 303 305 309 307 307 309 310 311 310 317 319 318 318 317 318 317 316 319 320 323 324 327 336 344 345 344 341 341 340 340 336 334 333 330
294 298 296 295 290 287 289 284 288 294 294 297 299 302 303 302 306 306 306 308 308 308 308 315 317 314 315 318 320 317 315 317 318 319 321 322 322 324 328 337 342 344 341 341 339 337 334 335 332
300 295 292 290 287 281 287 287 286 291 294 297 302 302 303 302 304 305 306 306 306 307 308 311 312 314 315 319 314 314 314 314 315 318 318 320 323 325 325 326 331 334 341 342 340 339 336 335 334
294 287 280 279 279 280 289 287 287 295 300 302 300 300 301 302 302 302 303 304 304 304 305 309 307 308 310 312 316 315 315 316 316 317 318 319 320 323 324 326 326 328 335 338 341 340 338 336 335
291 288 281 277 278 281 291 286 291 301 303 303 304 302 303 301 301 302 303 303 303 304 304 308 308 308 309 310 312 314 314 316 318 318 319 320 319 320 324 326 328 329 330 333 336 339 338 339 337
295 290 292 286 286 282 286 291 296 301 302 303 302 300 301 302 302 303 302 302 302 302 304 307 307 308 307 308 310 312 318 317 314 315 319 317 319 323 323 325 326 328 331 334 335 334 334 335 329
297 300 289 286 279 278 285 287 289 296 298 300 300 300 300 299 300 302 302 301 302 302 304 304 307 306 305 311 315 316 315 314 314 316 316 317 318 320 320 320 320 321 322 325 330 330 326 327 325
296 292 292 290 286 279 279 284 297 299 300 300 300 303 303 301 301 300 300 300 300 301 302 304 304 307 309 312 311 311 312 314 316 316 318 314 315 316 317 319 319 317 317 321 324 327 328 325 325
293 292 293 288 285 284 281 283 300 301 300 299 300 301 302 301 300 301 302 303 303 303 304 305 305 305 305 306 308 311 311 313 315 316 316 314 313 314 313 316 316 316 316 316 320 325 327 327 325

GFSSGP_sfc_thetae_105.txt.gz
Theta_e
334 319 312 310 300 298 294 299 307 307 308 324 324 325 325 326 322 312 342 351 355 356 359 361 362 362 362 361 360 360 360 360 360 360 361 361 361 362 361 361 361 359 357 355 352 353 354 354 354
326 317 310 303 295 291 293 301 303 308 313 329 328 329 327 325 340 340 343 355 354 357 358 359 362 361 361 361 360 359 360 360 360 360 360 360 360 361 361 361 361 359 357 354 352 353 353 353 353
316 315 303 299 292 291 295 301 305 308 314 314 324 330 330 330 342 342 351 355 356 355 357 359 362 361 361 360 360 359 359 359 360 360 360 359 360 360 359 359 359 356 354 352 352 353 353 353 352
312 306 302 296 293 297 303 303 305 307 311 322 328 325 331 339 341 349 356 356 354 354 356 361 361 361 360 361 360 359 359 359 360 360 360 359 359 360 359 359 358 356 352 351 351 352 353 353 352
307 302 295 291 293 299 307 306 306 305 308 322 327 324 326 343 351 353 354 354 352 353 356 359 361 361 361 360 360 359 359 359 359 360 360 359 360 359 359 359 357 355 354 352 351 352 354 354 353
299 301 291 290 295 303 307 307 306 307 323 325 325 325 326 345 347 350 351 350 354 353 355 357 361 361 360 360 360 359 358 358 359 359 359 360 359 359 359 358 357 355 354 353 351 352 352 352 351
296 296 292 294 297 299 307 305 309 305 312 315 325 321 325 339 346 349 348 351 352 354 354 355 356 359 360 360 359 359 358 358 358 358 358 358 358 358 358 357 356 355 354 353 352 350 349 348 347
300 297 293 296 297 298 307 303 304 305 308 318 322 315 317 335 345 347 345 349 350 351 352 353 354 355 356 356 359 359 358 358 357 358 357 357 357 357 357 355 355 355 353 352 350 349 348 346 344
302 292 291 295 298 299 307 302 307 308 307 311 314 317 319 333 343 339 343 345 348 349 348 351 353 354 354 354 356 358 359 359 358 357 357 354 351 352 353 354 354 355 354 352 351 349 347 346 345
295 294 298 302 303 300 305 304 304 304 306 305 310 314 315 337 338 338 340 341 344 345 347 349 351 353 353 354 353 353 354 354 354 353 352 350 348 348 351 352 355 355 355 353 351 350 348 346 332
293 297 304 304 306 305 306 306 306 304 302 304 303 307 310 310 322 338 339 342 344 346 347 349 350 352 351 352 353 354 354 354 353 351 351 348 348 346 347 346 348 346 351 344 345 342 340 335 332
291 297 302 307 311 308 303 308 310 313 307 308 307 308 307 308 308 317 337 342 343 345 346 347 348 349 349 349 352 351 351 352 352 352 351 347 345 343 344 343 342 342 341 340 337 336 335 333 331
291 297 301 302 305 305 307 307 311 309 313 308 307 308 306 306 307 307 318 320 331 345 346 345 346 346 347 345 348 348 350 350 349 351 351 349 346 344 345 344 343 342 342 340 336 335 333 332 330
295 298 299 301 301 303 304 302 302 309 313 309 307 305 304 305 307 305 305 309 313 332 342 346 345 345 344 341 345 346 347 349 349 350 350 350 347 344 343 343 343 342 341 341 339 335 332 329 327
298 294 297 298 299 299 302 298 299 306 307 306 307 304 304 305 305 306 307 314 318 322 327 338 342 342 342 341 344 344 344 346 346 347 348 349 348 345 344 343 342 343 341 338 335 333 330 328 327
292 291 286 295 298 300 300 293 301 305 304 304 303 303 302 303 305 305 307 313 315 320 332 337 343 340 339 340 342 342 343 341 343 344 346 349 349 349 345 345 342 342 340 338 336 336 332 329 329
288 285 287 291 298 298 298 294 300 304 302 301 301 301 302 302 305 306 309 311 313 318 323 330 337 338 337 339 344 347 343 340 340 342 339 343 348 350 348 345 345 341 338 337 337 335 332 332 327
285 287 289 290 295 296 293 294 298 300 300 300 300 300 301 301 304 306 307 309 310 316 317 321 323 324 326 326 327 334 343 347 347 345 342 342 343 344 343 346 344 340 337 335 335 334 332 332 331
292 290 290 294 297 295 293 293 297 300 297 297 299 300 301 301 304 305 308 313 314 315 319 320 319 318 319 316 315 317 320 329 338 344 346 345 343 342 341 341 340 337 337 337 335 334 331 330 327
293 290 290 294 297 294 292 293 296 296 297 299 300 300 301 302 304 309 314 315 316 316 316 317 319 319 318 320 321 320 322 324 326 328 329 335 342 342 341 340 339 339 339 338 336 334 334 333 331
292 290 291 291 295 295 292 290 292 297 298 299 299 300 301 302 302 307 312 313 312 313 312 313 313 314 316 318 317 315 315 314 315 316 321 325 331 336 339 340 339 338 338 338 339 337 334 333 333
289 295 295 294 290 285 292 283 289 293 295 298 299 299 300 301 302 306 309 308 309 310 312 312 311 314 316 315 314 313 311 311 314 316 319 319 322 324 330 331 333 336 338 338 339 339 336 335 331
292 297 295 294 289 286 287 284 288 292 293 295 298 299 301 301 301 305 308 309 308 309 308 309 316 314 313 315 315 315 313 313 313 314 316 317 319 321 324 325 326 327 332 338 338 338 336 335 334
297 293 290 288 286 280 285 285 285 289 292 294 298 301 301 301 300 303 305 306 305 304 308 313 312 311 312 315 315 313 312 311 310 312 314 315 319 320 323 324 323 323 324 326 332 338 337 336 336
292 285 280 279 279 279 287 285 287 294 299 300 299 299 299 299 300 301 302 302 303 304 305 308 309 310 312 315 313 312 312 311 311 313 313 315 317 318 318 319 320 322 324 326 328 331 334 333 335
290 286 280 277 277 280 289 283 290 299 300 300 299 298 299 300 301 302 303 303 303 303 303 305 305 305 308 309 310 312 311 312 313 314 316 316 317 316 318 320 321 321 324 326 328 329 331 333 332
291 287 290 284 284 281 284 289 294 299 299 300 300 300 298 299 299 299 300 300 300 300 301 301 305 305 306 306 306 308 310 311 314 316 315 317 316 318 319 320 318 319 319 320 321 323 325 328 328
296 297 286 284 279 277 282 285 286 294 295 298 299 299 299 299 298 298 299 299 299 299 300 301 302 303 304 305 306 310 311 314 314 311 313 314 316 316 318 316 316 316 317 317 316 318 322 324 326
292 288 289 288 284 278 278 283 295 298 297 297 296 297 297 297 298 299 300 301 301 302 302 302 303 303 303 303 304 306 308 309 311 311 314 315 313 314 315 314 315 315 314 313 314 316 320 322 323
293 290 290 283 283 281 279 282 298 296 295 296 295 296 297 297 297 298 300 301 301 300 301 301 301 302 302 303 302 302 303 304 305 308 312 315 312 313 313 313 313 314 314 312 312 312 316 316 317

GFSSGP_sfc_thetae_108.txt.gz
Theta_e
333 322 312 309 299 297 293 298 304 305 309 322 326 322 319 323 318 311 342 350 354 355 356 358 362 362 362 362 361 361 360 361 361 361 361 361 361 362 362 361 361 360 357 354 353 353 354 354 354
326 316 308 302 295 290 293 300 302 305 309 311 319 326 326 325 339 340 342 353 354 356 356 358 362 361 362 361 360 360 360 360 360 360 361 361 361 361 361 361 360 358 357 353 352 354 354 354 353
316 312 302 297 291 291 294 300 302 306 309 307 311 329 329 330 341 341 349 353 355 355 357 357 361 361 361 360 360 359 359 359 359 360 361 361 361 360 360 361 360 358 356 352 352 353 355 355 354
309 304 301 294 292 295 299 302 304 304 307 310 315 324 329 341 342 347 354 354 353 354 356 360 361 361 361 360 360 359 359 359 359 359 360 360 359 359 359 360 359 357 354 352 353 355 355 355 354
304 300 293 290 293 297 303 305 304 303 305 313 326 323 325 343 350 353 353 353 351 352 355 358 361 361 360 360 359 359 358 359 359 359 359 359 359 359 358 358 357 356 355 353 352 353 354 355 354
297 297 289 289 294 299 306 308 304 304 316 323 324 323 325 346 349 351 353 350 352 352 356 356 360 360 360 360 359 358 357 358 359 359 359 359 359 359 358 358 356 355 354 354 353 354 354 353 353
295 293 290 292 296 298 305 305 302 303 307 314 325 320 326 340 346 350 350 350 351 353 354 354 356 358 360 359 358 358 357 357 358 358 358 359 358 358 358 358 357 355 354 354 353 353 352 352 351
297 295 290 294 297 297 308 304 305 301 305 319 323 318 323 336 346 345 347 348 348 350 351 351 353 354 355 355 359 358 357 357 357 357 357 358 357 358 358 355 355 355 354 353 353 352 350 348 348
299 290 289 293 298 299 305 304 308 307 305 311 312 316 321 342 343 340 344 345 346 348 347 348 348 350 351 352 356 358 358 358 357 357 357 354 352 353 354 354 353 356 355 353 352 350 348 348 346
293 288 291 298 302 300 304 307 305 305 305 303 308 312 335 341 339 337 340 340 343 344 346 349 349 349 349 352 351 352 354 354 354 353 353 351 349 349 351 352 354 354 355 354 352 351 350 348 338
290 289 298 302 305 306 307 308 310 308 301 306 303 306 319 327 335 336 338 340 342 344 346 349 349 350 349 349 350 351 351 352 351 351 351 349 348 349 350 348 348 350 350 349 347 345 344 340 337
287 294 301 303 307 309 307 307 308 308 309 311 306 305 307 320 327 334 336 339 340 343 345 347 349 349 349 350 351 350 350 352 351 352 349 347 346 346 347 347 347 346 346 345 344 341 340 338 337
289 293 297 302 306 307 310 308 307 309 312 312 306 306 304 306 316 323 338 340 342 342 344 344 348 348 349 347 351 349 348 350 349 350 352 350 345 344 345 345 345 345 345 344 342 341 339 336 335
293 294 295 298 299 304 303 305 308 309 312 311 310 306 303 304 305 305 317 333 336 343 344 345 345 347 347 346 348 349 349 349 348 349 350 349 348 345 344 344 344 343 343 344 343 340 339 336 334
294 288 293 297 301 301 305 300 301 306 310 307 306 306 304 303 304 305 305 308 317 332 340 343 343 345 344 345 346 347 347 349 350 349 350 350 349 346 345 343 342 344 344 342 341 340 337 334 333
290 289 283 291 300 300 301 292 301 306 307 306 310 309 304 304 304 305 306 309 314 318 326 332 345 341 340 341 345 345 346 347 347 348 349 349 350 349 346 344 343 345 344 342 340 339 336 335 334
285 282 284 289 296 298 297 294 301 304 306 305 307 308 307 301 302 304 306 312 315 321 330 334 338 339 339 340 343 343 344 343 343 345 345 347 349 350 349 348 347 346 342 340 340 340 338 338 335
283 284 286 289 292 297 295 295 300 302 302 302 304 305 304 302 302 304 305 312 315 322 328 336 337 338 338 341 341 344 342 341 341 341 342 343 344 346 349 349 348 345 341 339 338 338 338 336 337
289 288 288 291 296 294 293 294 296 299 297 297 299 300 301 301 304 304 307 309 314 317 323 329 329 331 332 327 325 329 336 339 343 345 346 346 343 343 342 342 343 343 340 342 338 337 335 336 335
291 288 288 292 296 294 293 293 296 298 297 297 299 300 300 300 302 305 308 311 314 316 320 320 323 321 319 319 318 319 324 326 327 331 332 337 341 342 341 340 339 340 340 340 340 339 338 337 334
290 288 288 290 293 294 292 290 293 298 298 299 298 299 300 300 301 307 310 310 313 314 316 316 316 317 318 321 318 316 315 316 317 319 322 326 331 334 337 338 339 339 338 338 339 339 337 335 338
287 293 293 292 289 285 292 283 289 293 295 298 298 298 300 301 301 302 309 310 311 314 314 315 315 315 317 318 315 313 311 311 313 315 318 321 324 326 329 330 330 333 336 336 337 340 339 337 330
291 295 293 292 287 286 287 284 288 292 293 296 297 300 301 303 303 302 306 312 310 310 310 311 312 315 316 315 314 313 313 313 315 316 317 318 321 324 326 327 327 326 326 332 336 337 338 338 334
296 290 288 286 284 280 285 285 285 289 293 297 299 301 301 301 302 302 305 307 305 306 308 312 314 314 314 315 315 314 314 313 313 314 315 317 319 322 325 326 324 325 325 325 327 330 334 335 335
290 285 279 278 278 279 286 285 286 294 299 299 299 299 300 300 300 301 302 303 304 306 309 313 312 311 312 313 316 314 314 312 313 312 313 315 318 320 321 321 322 323 324 325 326 327 329 332 333
288 285 280 277 276 279 288 283 289 299 299 298 298 298 299 298 298 300 300 301 301 301 301 302 304 305 305 308 310 310 311 311 312 313 314 316 318 320 321 321 323 324 323 324 326 326 327 330 331
290 286 288 282 282 280 283 287 295 298 298 299 299 299 297 297 297 297 298 298 299 300 300 300 301 303 305 305 306 308 310 311 311 313 315 317 319 320 320 321 322 321 321 321 321 319 321 324 325
293 294 286 283 278 277 281 284 285 293 294 296 296 296 296 297 298 299 300 301 301 301 302 303 303 303 304 304 304 306 307 309 311 312 313 314 317 318 320 320 320 318 318 319 319 317 318 320 322
291 288 288 287 283 278 278 282 292 293 294 293 294 295 295 296 297 298 299 300 300 301 301 302 302 303 303 304 304 304 304 305 306 308 311 313 316 317 317 318 318 317 317 317 316 315 317 318 318
292 290 289 283 282 281 279 281 294 292 293 293 294 296 296 297 296 297 298 298 299 299 300 301 302 301 302 303 303 302 303 303 303 304 306 308 310 313 315 316 316 316 316 316 314 314 315 315 315

GFSSGP_sfc_thetae_111.txt.gz
Theta_e
333 325 320 319 307 308 306 309 312 313 315 326 319 329 326 328 324 322 350 354 355 358 362 360 362 363 363 363 363 362 362 362 363 362 361 361 361 362 362 362 362 361 358 355 354 355 355 355 355
324 319 318 314 304 302 307 310 308 313 315 317 317 331 330 328 341 344 346 355 357 359 360 358 362 362 363 362 361 361 362 362 362 362 361 361 362 362 362 361 361 358 356 354 353 354 354 354 354
319 316 311 308 304 302 306 309 311 313 315 314 314 334 333 331 343 345 352 356 358 358 359 359 362 362 362 361 360 360 360 360 361 361 361 361 361 361 361 361 360 358 356 353 353 354 356 355 354
316 314 311 303 301 304 307 310 311 311 315 315 315 327 336 345 345 349 355 357 356 357 358 360 361 361 361 361 360 360 360 360 361 361 361 361 361 360 360 360 360 358 356 352 353 355 356 356 355
314 310 303 301 302 304 308 311 311 311 311 315 323 328 332 347 353 356 355 355 354 356 357 359 360 361 361 361 360 359 359 359 360 360 361 360 360 360 360 359 358 356 354 353 353 354 356 356 355
307 308 299 298 301 304 308 311 311 310 311 325 329 330 333 351 353 354 355 354 355 356 357 357 360 360 360 360 359 358 358 358 359 359 359 359 358 358 358 358 357 357 356 355 355 355 355 354 354
305 303 300 300 301 303 306 312 310 309 311 323 332 328 335 347 354 356 355 355 356 357 356 356 356 359 360 359 358 358 357 357 357 357 357 358 358 358 358 358 357 356 355 354 354 354 354 353 353
307 304 300 301 300 303 309 308 310 310 310 317 327 324 329 345 354 355 354 353 354 355 354 355 356 353 354 357 359 358 357 357 357 357 357 357 357 358 358 355 356 354 354 353 353 353 352 351 350
306 300 298 300 301 304 309 312 312 313 314 316 317 319 329 349 351 350 349 349 351 352 354 354 352 354 354 354 355 357 357 358 357 357 358 355 353 356 357 356 354 354 353 352 351 351 350 349 348
302 298 300 305 306 306 309 313 312 312 313 314 318 321 344 347 346 344 344 343 346 348 351 353 353 353 353 351 356 355 354 354 354 354 355 352 354 354 352 354 355 354 354 354 353 352 351 348 339
301 297 303 304 307 310 309 312 316 312 311 314 315 316 333 344 344 343 342 342 344 348 351 352 355 355 352 350 353 354 354 355 356 356 357 356 353 353 351 351 351 353 353 349 350 349 346 344 343
297 300 302 304 309 311 309 312 314 315 314 318 318 314 314 327 343 343 342 343 344 347 350 353 355 355 355 352 352 353 352 354 354 355 357 355 353 353 353 351 351 352 350 350 350 347 348 347 345
298 301 301 305 307 310 312 311 312 316 320 321 318 317 316 316 320 344 347 346 346 346 349 352 356 356 356 356 354 354 353 353 354 355 356 355 352 352 352 352 352 352 352 351 351 350 349 348 347
301 301 302 303 307 311 309 311 312 315 319 319 317 316 317 317 317 318 341 347 348 349 349 352 354 357 358 357 357 356 356 356 356 356 357 358 355 354 353 352 351 351 351 351 351 351 351 350 349
301 297 299 302 303 305 311 307 308 314 317 317 315 315 316 318 320 314 319 339 350 351 353 353 353 356 357 357 357 357 356 356 355 356 359 358 356 352 354 353 353 353 354 354 353 352 352 350 349
297 297 293 299 302 305 308 300 311 315 313 313 311 311 314 317 321 318 316 321 340 349 351 355 353 353 355 356 356 356 356 356 356 356 357 357 356 355 353 354 354 355 355 353 352 351 349 349 348
294 290 292 295 302 302 305 300 307 310 309 310 313 312 315 318 319 319 317 318 324 329 335 348 355 353 354 355 354 356 358 356 356 356 356 357 356 356 356 355 355 358 354 353 353 352 350 348 348
291 291 292 293 298 301 299 298 304 307 307 306 312 314 313 313 316 318 318 318 324 330 337 342 347 351 352 352 353 353 354 355 355 355 355 357 357 357 357 356 357 356 353 351 350 349 350 348 347
297 294 294 296 299 298 298 299 302 305 308 307 308 308 310 311 314 316 315 318 322 330 337 344 345 349 348 347 348 348 348 350 350 352 354 353 353 353 354 353 352 352 349 349 349 347 344 343 347
296 294 295 297 299 298 298 298 302 304 304 305 306 307 311 311 312 314 315 319 324 333 337 344 346 348 349 348 344 347 348 349 352 354 356 356 353 350 348 347 344 345 342 344 343 343 338 338 343
295 294 295 295 298 300 298 296 298 302 304 304 304 307 308 309 310 311 314 318 323 330 335 339 343 344 342 340 334 334 334 335 336 337 337 340 342 343 343 341 342 342 341 334 338 338 339 333 336
293 298 297 296 295 291 297 290 298 301 300 302 304 304 305 307 310 312 316 317 321 326 329 332 333 335 335 336 335 340 331 327 328 329 330 333 334 334 337 339 339 340 335 336 334 334 336 337 331
296 300 298 297 296 294 294 292 297 298 298 301 304 307 308 309 309 310 311 318 319 322 323 327 328 329 331 333 335 329 331 327 328 328 332 334 334 335 335 337 337 336 333 335 336 336 336 334 333
300 297 296 295 295 289 294 293 294 296 298 302 305 306 306 308 308 310 313 316 317 320 322 325 327 329 330 330 330 333 334 331 326 328 326 327 328 331 334 335 336 335 333 333 332 334 335 335 335
298 295 289 287 287 287 292 292 295 298 302 303 304 305 306 306 308 309 312 314 317 320 321 324 325 321 323 324 325 326 326 327 328 330 326 328 326 328 335 336 335 331 333 333 332 333 332 332 330
298 296 290 283 285 288 293 290 295 302 303 303 305 306 306 305 306 306 308 309 310 311 312 314 315 317 318 319 319 321 323 321 323 324 324 323 324 326 333 335 334 332 332 331 332 329 328 330 329
297 294 296 291 290 290 292 295 301 302 302 304 304 304 304 306 307 307 308 309 310 312 312 314 314 314 314 314 316 317 319 320 321 323 325 324 326 326 328 331 332 331 332 331 331 326 327 328 328
300 300 293 294 286 284 289 291 294 299 300 302 302 303 304 305 305 306 306 307 308 309 310 311 311 311 311 312 313 312 313 314 315 316 316 318 322 324 326 328 329 330 330 330 329 326 327 326 324
297 296 296 296 293 287 285 290 300 301 302 301 302 303 303 304 304 305 305 306 306 307 307 308 308 309 309 310 311 311 311 312 312 312 313 314 315 316 315 318 323 326 327 327 326 326 325 323 324
298 296 298 294 290 292 292 291 300 302 302 303 302 302 303 303 304 304 304 305 305 305 305 306 307 307 307 308 309 309 310 310 310 310 311 312 312 313 313 313 314 315 317 323 324 323 322 321 321

GFSSGP_sfc_thetae_114.txt.gz
Theta_e
333 326 325 321 312 314 313 314 321 318 321 329 323 324 328 331 326 327 354 354 352 357 364 362 364 365 365 365 365 363 362 361 362 362 362 361 362 363 363 363 364 362 359 357 357 356 354 354 354
327 322 322 319 309 309 312 319 317 320 322 323 323 324 332 329 342 347 350 355 356 360 364 361 363 364 364 364 363 362 363 362 362 361 361 361 362 363 362 362 362 360 357 354 354 355 355 355 354
323 321 315 314 312 308 312 317 320 321 323 321 319 332 335 334 345 348 354 356 357 360 362 362 363 363 363 362 363 362 362 362 362 362 362 362 362 362 362 362 360 358 356 353 353 354 355 354 354
320 319 316 308 309 314 315 318 319 318 322 322 321 321 340 347 347 350 355 356 356 357 359 362 362 362 362 362 362 362 362 362 362 362 362 362 362 361 361 361 359 358 356 353 354 355 355 355 354
320 317 307 306 309 315 315 320 319 317 319 320 323 321 334 348 353 353 354 353 352 355 358 361 362 362 362 362 362 361 361 361 361 362 362 362 361 360 361 360 359 358 356 353 354 355 356 356 355
312 314 305 304 308 315 316 319 318 318 319 320 326 325 336 354 354 352 354 353 352 355 359 359 361 361 361 361 360 359 359 360 361 361 361 361 360 360 360 360 358 357 355 353 353 354 354 354 354
307 308 304 307 309 311 314 316 316 317 316 323 333 328 340 349 356 355 356 353 353 357 357 357 355 360 360 360 359 359 358 359 359 359 359 359 359 359 359 358 356 354 353 352 352 352 352 352 351
309 308 304 306 307 308 315 312 318 316 315 327 331 327 332 350 358 356 356 353 352 355 355 355 353 352 355 358 359 359 358 358 358 358 358 358 358 358 357 356 355 354 352 351 351 351 350 350 349
311 303 301 304 306 309 315 313 320 319 318 323 326 325 340 353 356 354 353 351 349 350 353 353 350 350 352 353 356 358 358 358 358 357 358 355 350 353 356 354 356 355 354 352 351 350 349 347 348
305 300 302 308 310 310 314 314 319 316 317 320 325 323 346 351 351 348 346 345 345 347 350 352 352 351 351 349 356 354 353 353 352 352 355 350 350 353 351 355 356 354 354 354 353 352 350 347 337
304 300 305 306 311 312 311 313 318 317 315 318 317 318 324 344 347 346 344 344 345 347 350 352 355 356 353 351 353 351 352 352 354 355 357 353 350 352 350 348 351 352 352 348 351 350 348 342 340
301 304 305 306 310 310 309 314 314 319 319 322 322 322 321 323 326 344 345 345 345 347 349 353 357 357 356 352 352 353 353 353 354 356 361 357 355 355 353 350 350 352 350 350 349 346 348 347 347
302 303 305 306 307 309 312 311 313 316 322 321 323 322 321 322 324 326 331 349 349 348 351 353 356 359 358 356 353 354 354 354 356 357 359 357 355 355 356 355 355 354 354 353 354 354 354 354 354
305 304 305 306 306 307 309 312 313 315 322 321 322 321 325 325 325 326 323 333 352 352 353 354 356 360 360 358 359 356 357 356 356 357 358 360 357 357 356 356 355 355 354 354 353 353 354 353 353
304 300 303 304 305 305 307 306 310 317 319 320 322 322 322 325 325 326 328 326 338 353 356 356 357 360 362 361 360 360 358 357 356 357 360 361 362 361 361 356 355 354 356 357 357 356 356 354 353
299 300 296 302 303 305 306 301 310 316 317 318 321 319 322 323 322 327 330 331 327 338 355 359 356 357 362 362 361 360 359 359 358 358 359 362 362 362 360 355 355 357 358 357 357 356 354 353 353
299 294 295 298 304 303 303 300 307 314 316 316 319 319 321 322 322 327 330 330 327 329 348 355 361 358 360 363 361 362 363 360 359 359 359 361 360 359 358 356 358 362 359 358 357 356 355 353 352
294 294 296 296 301 302 301 302 305 310 312 314 317 319 319 320 324 326 326 327 324 328 335 348 355 361 363 361 362 360 359 359 360 359 358 359 357 359 359 359 360 360 358 353 352 353 352 349 349
299 298 296 299 302 301 300 301 304 308 310 312 316 318 319 323 326 326 326 325 323 328 336 341 345 356 359 357 354 354 353 356 357 358 359 360 360 361 360 359 359 359 350 349 350 348 345 342 343
299 297 297 300 302 302 300 300 304 307 308 311 314 317 318 322 323 323 322 325 323 331 337 345 349 354 355 353 354 353 354 356 356 356 358 360 359 359 360 358 348 347 340 347 345 344 336 333 336
298 297 297 297 301 302 300 299 302 306 309 312 314 315 320 320 321 318 320 323 324 328 335 341 352 353 354 356 355 354 356 355 353 355 357 359 360 357 350 346 342 342 341 331 340 338 336 327 329
296 301 300 298 297 293 302 293 301 305 306 309 311 312 315 319 318 316 316 319 324 326 332 342 348 352 354 353 349 351 346 344 347 350 348 345 344 341 341 341 339 342 334 339 334 333 333 332 326
299 302 300 299 298 297 298 295 300 305 303 306 309 310 312 316 314 311 313 317 321 325 332 338 344 347 348 349 350 348 347 342 336 333 339 344 341 338 334 337 337 338 335 338 337 335 335 330 326
304 301 301 300 298 291 296 296 296 301 303 306 310 311 311 312 313 315 316 319 322 324 328 333 338 339 342 340 340 338 334 334 330 330 328 327 328 331 336 334 338 339 339 336 335 337 336 334 331
302 299 291 289 290 289 298 295 296 305 308 309 310 311 313 313 314 315 317 318 322 325 327 329 332 331 332 333 333 333 334 333 333 334 329 330 326 327 339 338 340 336 339 338 339 339 336 334 331
300 300 293 285 287 290 298 292 300 308 309 311 312 311 313 312 313 313 315 316 317 319 322 325 326 325 326 328 328 330 331 327 328 331 330 329 328 329 336 335 338 339 338 336 340 335 332 337 331
300 297 302 295 296 291 295 299 304 307 308 309 310 311 311 312 313 314 315 315 315 316 319 320 321 320 320 322 323 323 324 324 324 326 327 326 331 329 332 333 333 335 336 338 342 333 336 335 335
302 304 295 296 287 286 292 295 296 303 305 308 309 310 311 311 311 311 312 313 313 314 314 316 317 317 318 319 320 319 320 321 321 321 322 323 324 324 325 327 331 333 334 336 340 336 337 336 331
299 299 300 299 296 289 287 293 306 306 307 308 309 310 310 310 310 310 310 312 312 313 313 314 313 314 315 316 316 317 317 318 318 318 319 320 321 321 320 321 321 322 326 332 336 335 333 331 332
301 300 300 296 293 296 296 294 308 309 309 309 309 310 310 311 311 311 311 311 311 311 312 311 312 311 313 313 314 314 315 316 316 316 317 318 318 318 318 317 318 318 318 321 323 327 330 330 330

GFSSGP_sfc_thetae_117.txt.gz
Theta_e
333 330 329 324 313 316 312 314 321 319 320 328 327 323 326 331 333 329 354 352 352 359 363 362 366 366 367 366 365 363 362 361 361 363 362 361 363 363 363 364 363 360 359 359 357 355 355 354 353
328 327 324 320 312 308 312 318 318 322 325 326 325 325 324 328 345 347 349 349 354 359 363 361 365 365 366 366 364 362 362 362 362 362 362 362 363 363 363 363 362 360 357 356 356 354 354 354 353
326 325 316 314 312 308 311 319 321 324 326 324 323 326 332 336 346 349 355 352 356 358 360 364 364 365 365 365 364 362 362 362 362 362 362 363 363 363 362 362 361 358 356 353 354 354 354 354 354
319 320 317 309 309 315 316 319 324 323 324 326 324 320 338 349 348 352 354 353 354 355 358 362 363 364 364 365 364 363 363 362 362 362 362 363 363 362 362 362 360 357 354 352 353 353 354 353 352
319 317 310 308 309 315 321 322 323 321 323 323 324 322 332 349 352 353 351 351 351 352 359 359 362 363 364 364 364 363 363 362 362 362 362 362 362 361 361 360 358 357 355 352 352 353 354 353 352
311 313 306 305 309 314 318 323 322 321 323 324 322 323 332 353 350 351 351 350 350 351 360 357 362 362 362 363 362 362 361 362 362 362 362 362 361 361 360 359 358 358 355 353 353 354 354 353 353
308 307 303 306 308 311 315 323 319 320 321 322 328 324 340 349 352 353 352 350 351 354 357 356 355 360 361 361 361 361 361 361 361 361 361 361 360 360 359 358 358 356 355 353 353 354 353 353 352
309 307 304 305 305 308 317 320 319 320 320 326 333 325 329 348 355 355 353 350 350 352 355 354 353 353 354 357 360 360 360 360 360 360 360 360 359 358 358 358 357 355 353 352 352 352 352 351 351
312 302 300 303 305 308 316 317 320 322 321 324 329 327 340 354 355 352 351 349 349 348 353 352 350 349 349 350 355 358 357 358 359 359 359 356 351 354 355 353 357 356 353 352 351 351 352 351 351
306 302 302 307 309 310 313 315 317 319 317 321 326 325 345 351 352 348 347 346 346 345 349 349 349 349 349 348 355 352 351 351 351 351 355 351 349 351 347 353 358 356 355 354 354 354 352 348 337
306 301 306 307 310 312 312 313 317 315 317 321 323 323 335 344 347 345 345 346 345 346 348 349 351 355 350 348 354 349 351 350 350 351 356 354 347 350 348 351 353 354 353 347 350 349 347 342 340
303 306 306 307 309 309 309 314 314 316 320 324 326 324 326 334 339 343 344 343 345 346 348 350 352 355 357 350 352 350 350 351 351 352 359 356 350 353 349 344 345 352 346 350 348 346 349 347 346
304 305 307 308 308 309 311 311 312 314 319 325 327 324 324 325 328 332 336 338 342 346 348 350 355 359 361 361 352 353 354 352 354 355 358 356 353 358 354 353 349 349 349 348 349 349 351 350 352
307 306 306 307 307 307 307 309 311 313 318 323 324 325 325 325 327 328 330 332 336 339 351 353 354 362 359 360 365 356 357 356 355 355 356 361 359 364 355 356 354 353 352 351 351 351 353 352 353
306 303 305 306 306 305 307 303 305 314 318 318 321 324 324 328 328 326 330 332 334 334 347 355 357 360 363 360 360 360 356 355 354 354 362 361 363 363 364 354 354 353 357 356 356 356 356 354 354
301 302 297 304 305 306 306 299 306 311 315 315 318 320 324 325 326 325 328 333 335 330 334 351 355 358 362 364 362 358 358 358 356 357 357 360 362 363 365 357 355 356 359 357 358 357 353 353 353
301 295 297 299 305 304 303 300 306 311 311 314 317 320 322 325 327 328 328 331 332 334 334 337 358 358 361 367 364 365 369 361 359 359 358 364 360 360 361 356 356 364 358 358 356 351 353 348 349
296 296 298 298 303 303 301 301 305 308 310 312 316 317 320 324 325 326 327 332 332 331 334 337 354 360 363 363 365 362 360 360 360 359 358 361 360 359 361 355 366 364 363 355 350 356 352 348 347
301 300 299 301 304 302 301 301 304 307 308 309 313 317 319 322 327 326 327 330 332 330 338 340 345 359 361 357 354 354 351 354 354 355 361 360 360 359 360 357 360 360 359 357 353 350 351 343 344
300 299 299 302 304 303 301 300 304 306 307 309 312 314 316 320 322 326 327 331 332 332 334 341 344 350 356 355 359 351 351 348 351 352 364 358 360 360 360 361 358 361 349 355 350 350 340 335 336
299 298 299 299 302 304 302 299 302 305 307 309 312 313 314 317 320 325 327 328 329 327 336 336 343 352 357 357 354 355 357 354 350 350 354 358 360 359 360 361 356 351 348 337 351 345 346 330 330
296 302 301 300 299 293 302 292 299 303 305 307 309 311 314 319 321 325 328 329 327 325 332 333 346 355 355 358 358 357 351 345 344 349 349 356 360 360 359 352 346 350 339 346 341 338 340 339 327
298 303 302 301 298 298 298 294 299 304 302 305 310 313 316 316 320 325 326 326 321 325 327 336 349 353 356 359 357 350 352 346 351 345 356 356 355 348 340 341 341 346 339 343 347 346 345 332 329
304 302 302 301 299 291 296 294 295 299 303 307 310 313 313 315 322 323 321 322 322 323 330 340 346 348 351 351 354 356 352 348 338 340 335 334 334 337 338 334 343 347 345 344 340 345 345 341 336
303 299 292 289 290 289 299 296 298 304 305 308 311 314 315 315 317 318 319 318 324 324 329 334 339 341 344 343 342 341 341 341 340 337 331 333 328 328 344 346 347 339 347 345 345 345 344 343 336
301 300 292 286 287 291 298 293 300 307 308 313 314 315 316 317 318 319 321 324 326 328 330 332 332 330 332 333 333 333 333 331 332 335 334 332 331 332 345 338 338 339 339 343 346 339 339 340 339
300 297 303 295 297 293 295 300 306 309 310 312 313 314 315 316 317 318 319 321 322 323 324 325 324 323 325 326 327 327 327 327 327 328 329 325 335 329 332 333 335 337 338 340 343 338 340 341 340
302 304 295 298 288 287 293 293 297 304 307 310 311 313 314 316 316 316 316 317 318 319 320 321 321 320 320 321 323 322 323 323 323 324 325 326 327 326 326 327 328 331 333 337 341 337 339 339 336
299 298 301 301 298 291 288 292 305 306 309 310 312 313 314 314 314 314 315 316 316 317 318 318 318 317 318 318 318 319 319 319 321 321 322 322 325 323 322 322 323 324 327 330 332 334 337 336 335
303 301 300 297 293 297 297 297 307 305 311 313 312 313 314 314 314 314 314 315 315 315 315 315 315 315 315 316 316 316 317 318 320 318 321 320 320 320 319 319 319 319 320 324 325 325 325 327 330

GFSSGP_sfc_thetae_120.txt.gz
Theta_e
326 322 325 323 310 311 308 312 317 317 320 325 328 323 321 330 327 326 345 349 356 356 360 362 366 367 367 366 364 363 361 360 362 362 361 363 363 364 364 363 363 362 360 359 358 356 355 353 353
321 325 325 316 307 305 307 316 314 318 324 327 325 324 322 330 339 343 342 353 356 359 360 361 366 366 367 365 364 362 361 360 362 362 361 363 363 364 364 364 363 361 359 358 356 354 354 354 353
322 323 314 310 307 304 307 315 318 322 326 325 322 326 326 338 345 345 346 355 357 359 360 363 365 365 366 365 364 362 361 361 362 362 362 363 363 363 363 363 362 359 357 355 355 354 355 354 354
314 315 315 306 305 312 313 317 320 322 325 326 324 320 340 347 346 350 348 355 354 354 358 363 364 364 365 364 363 362 362 362 362 362 362 363 363 362 362 363 361 359 355 354 354 354 354 354 353
314 311 305 305 306 311 317 320 320 320 323 323 323 319 328 346 353 352 349 353 351 351 359 360 363 364 364 364 363 362 362 362 361 362 362 363 362 361 362 361 360 358 355 353 354 355 355 355 353
306 308 300 301 306 311 315 319 319 320 322 323 322 321 331 349 350 348 349 350 351 355 358 358 363 364 363 363 363 362 361 361 361 361 362 362 361 361 361 360 359 359 357 355 355 355 356 356 355
304 304 299 301 303 308 312 318 316 319 321 321 326 320 334 345 347 348 349 349 351 358 355 356 358 362 363 363 362 362 361 361 361 360 360 361 360 360 360 359 359 359 357 356 355 356 355 355 354
307 305 301 302 302 303 313 316 318 318 319 326 327 322 333 339 341 346 346 346 349 354 352 353 355 356 359 360 362 362 361 361 360 360 360 360 360 360 359 358 358 358 356 355 354 355 354 354 353
310 300 298 300 302 305 312 311 320 323 320 322 324 326 342 348 344 333 333 343 345 350 351 351 349 351 352 354 359 360 361 361 360 360 360 357 353 355 355 354 356 357 356 354 354 354 354 353 353
305 300 300 305 306 305 310 311 314 318 316 317 322 328 338 338 335 330 328 340 342 345 348 349 348 348 346 347 356 356 357 356 356 354 356 352 350 352 349 352 357 357 357 355 354 354 353 351 340
305 300 304 305 307 308 308 309 313 312 313 319 319 325 329 332 329 328 330 344 342 344 347 347 351 350 347 346 351 349 349 349 350 351 354 352 347 352 347 350 350 353 355 350 351 350 347 341 339
301 305 305 306 308 308 306 309 310 312 315 320 323 326 327 338 332 339 340 339 336 339 347 348 351 350 353 351 349 349 349 349 349 350 355 349 351 354 348 349 351 352 350 347 346 346 347 344 343
303 304 306 308 307 307 308 306 308 310 316 320 324 325 325 329 335 337 340 341 339 336 336 346 352 354 354 361 353 349 351 350 351 351 354 352 350 355 354 353 348 350 347 347 348 346 349 349 348
304 305 306 307 306 307 304 305 307 310 316 317 321 324 325 326 329 330 334 337 340 343 338 338 338 357 357 362 359 353 353 353 354 354 354 356 355 361 356 357 359 358 357 352 348 350 353 353 352
304 301 304 305 306 305 306 302 303 310 314 314 314 324 324 326 328 329 331 337 339 341 338 338 340 336 355 356 363 359 359 357 354 357 359 357 361 364 359 360 357 358 358 359 358 358 357 355 353
301 301 296 303 305 306 305 297 304 309 311 311 314 316 323 324 328 330 330 335 339 336 336 337 342 337 342 354 358 359 361 360 363 358 363 360 361 361 364 360 360 358 361 357 355 356 355 351 349
298 293 295 298 305 304 303 299 305 309 308 308 310 316 320 324 328 332 330 332 336 341 333 335 335 333 337 357 358 361 367 366 359 362 360 359 361 360 359 360 358 362 358 354 357 353 351 351 351
293 295 297 297 301 303 301 300 304 307 307 308 309 312 316 321 325 329 331 332 337 340 329 331 337 338 349 338 353 355 360 358 363 363 363 360 358 359 361 356 360 361 354 355 355 354 353 351 347
299 298 298 301 303 301 300 300 303 306 306 306 308 311 313 318 324 330 330 330 333 336 333 335 338 341 347 338 350 351 354 358 359 361 364 360 358 359 360 358 360 359 356 354 354 352 352 350 348
298 297 297 301 305 303 301 300 303 305 306 307 308 309 312 317 320 327 327 329 330 333 334 340 343 350 359 363 365 363 355 357 355 357 359 361 358 360 360 359 358 354 350 353 352 349 344 341 340
298 296 297 298 303 304 302 299 301 305 307 308 309 311 312 313 319 325 327 326 327 331 336 336 342 346 356 361 358 358 362 357 356 355 359 356 359 361 360 359 355 354 351 348 352 349 344 336 336
295 300 300 299 298 293 302 291 300 303 304 307 308 309 311 313 318 319 326 325 326 329 333 338 336 347 358 362 359 357 353 351 350 352 355 359 359 358 358 358 355 354 348 344 341 348 343 341 330
298 302 300 300 297 297 297 294 298 304 302 305 308 309 311 314 315 315 320 329 328 328 330 333 343 349 352 357 358 352 349 352 352 354 355 358 359 359 357 356 346 347 345 341 341 342 344 335 332
303 300 300 300 297 290 295 294 295 299 302 307 311 311 312 314 317 321 326 329 328 328 330 327 334 350 352 356 353 353 352 348 343 347 346 347 348 345 343 342 344 344 344 343 341 342 341 339 335
300 297 290 289 289 288 297 294 297 306 308 309 310 310 313 314 318 320 320 324 323 325 327 337 341 344 348 350 350 346 343 339 341 340 337 337 336 339 342 343 343 343 344 342 342 342 342 340 337
297 297 291 285 287 290 298 292 298 308 310 311 311 313 315 316 318 319 319 318 322 324 329 328 338 335 339 336 330 334 332 337 330 333 331 331 331 333 340 339 339 339 340 341 343 343 339 337 336
297 295 301 295 296 292 296 299 306 308 307 307 308 313 314 317 319 319 322 323 323 325 331 331 330 331 331 331 332 332 332 331 330 329 329 328 329 326 328 330 330 333 334 336 338 335 333 335 336
301 303 294 296 287 285 292 295 296 302 304 308 310 313 314 316 316 317 319 320 321 325 326 326 324 323 324 325 326 323 324 325 326 327 327 328 328 328 327 327 328 328 329 329 329 328 330 332 332
298 297 299 299 297 289 288 292 306 304 307 302 311 313 313 313 313 314 316 317 317 318 317 320 321 321 321 321 323 323 322 322 324 324 324 323 323 321 321 321 321 320 321 323 323 324 325 323 323
301 299 299 294 293 295 292 289 309 308 307 306 310 312 313 313 313 313 313 315 315 316 316 316 319 317 318 320 321 321 320 322 322 322 322 323 321 321 319 319 318 318 318 319 318 318 318 318 317

GFSSGP_sfc_thetae_123.txt.gz
Theta_e
321 313 313 312 302 300 297 303 312 312 314 321 322 318 325 329 323 316 336 352 355 356 362 364 365 364 364 364 363 361 360 361 361 361 361 362 363 362 361 361 362 362 361 359 358 356 354 354 355
317 319 316 309 297 293 298 308 308 313 320 322 322 320 330 324 328 333 340 354 354 356 359 362 365 365 363 363 362 360 359 361 361 361 361 362 362 363 362 361 362 362 358 357 355 354 354 353 354
320 318 306 301 296 295 298 308 311 315 323 321 318 322 336 332 335 338 347 354 355 354 358 362 365 365 364 364 362 360 360 361 361 361 361 361 362 362 362 361 361 361 358 357 355 355 356 355 355
307 304 306 296 295 302 305 310 313 315 321 323 322 322 340 347 343 348 353 356 353 353 358 363 364 365 364 363 362 360 360 361 361 361 362 361 362 362 362 361 360 359 358 355 355 357 357 356 356
305 299 295 294 298 304 309 312 314 313 316 319 322 316 333 340 346 352 352 354 352 353 358 361 364 364 364 363 362 361 361 360 361 361 362 361 361 361 361 361 359 358 357 356 356 357 356 356 355
296 297 288 291 297 305 309 313 313 312 317 319 318 319 334 342 341 349 351 350 352 355 356 360 364 363 363 362 362 361 360 360 360 361 361 361 360 360 360 359 359 358 357 357 357 357 356 355 354
295 291 289 291 295 300 307 313 312 310 312 318 320 319 334 337 339 342 346 348 355 354 354 357 360 362 363 362 361 360 360 359 359 359 360 360 359 359 359 358 359 359 357 355 356 356 355 354 354
299 294 290 294 294 295 304 308 313 311 313 321 323 318 330 339 343 342 339 352 351 351 352 353 356 358 359 359 361 360 360 360 359 359 359 359 359 359 358 356 358 358 357 355 355 355 354 354 352
301 293 291 293 296 298 303 304 310 315 315 319 321 337 343 344 347 343 340 337 345 349 348 350 352 354 356 357 360 360 361 360 359 359 359 356 352 354 355 355 357 357 356 355 354 354 354 353 352
295 292 293 299 300 299 302 303 305 307 315 315 320 343 345 343 342 340 334 338 340 344 345 347 347 349 351 356 356 356 357 356 355 355 355 351 346 349 352 353 356 356 356 355 354 353 353 353 342
294 293 299 300 303 303 302 303 305 303 304 311 313 334 338 336 338 336 333 340 337 340 345 345 344 344 343 349 352 353 353 353 352 351 351 346 346 348 348 345 348 348 354 348 349 348 346 342 338
293 298 301 302 304 303 302 304 304 303 304 310 315 332 332 331 331 333 332 329 337 335 338 345 343 342 339 348 346 344 346 345 345 345 348 344 341 341 342 343 344 346 346 344 341 342 342 340 337
295 297 301 303 304 303 304 303 302 302 307 309 320 326 328 327 328 329 331 336 338 337 336 342 342 339 341 345 341 342 342 342 342 342 347 342 340 341 341 343 343 344 345 345 340 340 340 340 339
297 298 300 301 301 303 301 302 301 304 306 309 315 319 326 326 328 327 329 333 336 338 336 340 340 339 341 344 341 342 343 343 344 343 347 345 343 341 343 341 344 343 345 343 341 340 339 342 342
298 295 297 299 300 298 301 297 299 304 305 306 308 311 319 330 332 332 334 334 333 336 338 339 341 340 336 338 344 345 345 345 346 345 347 347 346 343 349 343 343 347 347 344 342 344 347 346 346
296 293 289 295 299 301 299 293 300 304 303 303 307 308 317 319 325 332 330 328 327 332 334 340 347 341 340 337 337 340 341 348 348 349 348 348 351 352 353 349 352 349 347 345 345 344 344 345 345
292 287 288 292 299 299 298 294 300 303 303 302 303 304 305 315 319 323 326 328 328 330 333 334 336 339 339 336 336 336 335 336 352 352 353 350 352 353 351 351 349 349 349 346 340 332 333 343 344
288 288 291 291 296 297 294 295 299 302 302 301 302 304 304 304 316 323 323 324 328 328 329 332 334 336 337 335 334 334 332 333 349 351 355 353 353 352 350 351 349 349 347 342 338 330 331 343 339
295 293 291 295 298 295 295 294 297 300 300 299 300 301 303 304 309 323 324 324 326 322 326 328 329 331 336 335 331 330 329 336 339 353 355 355 355 352 346 344 343 347 347 344 345 342 341 342 337
294 292 292 296 299 296 294 294 297 299 299 301 301 301 301 303 306 321 322 326 322 321 323 327 330 335 333 335 333 328 327 337 343 353 350 354 352 342 336 337 334 344 343 339 341 340 336 333 330
293 292 292 293 298 299 296 292 296 300 300 301 301 302 303 303 304 308 323 322 323 319 325 328 330 335 328 329 329 327 325 334 325 345 349 348 349 347 342 339 346 346 344 339 339 339 333 327 327
290 297 297 296 292 287 295 285 293 298 299 300 301 300 301 303 305 308 320 319 320 320 326 327 328 335 337 341 336 331 336 338 342 343 347 347 340 330 347 348 347 346 338 336 334 341 335 331 326
294 299 296 295 291 288 291 286 290 296 297 299 304 307 307 302 304 309 320 321 321 323 326 328 336 340 344 343 344 340 338 339 342 342 340 342 347 348 351 348 346 342 335 331 330 327 334 331 325
300 296 294 293 289 283 289 288 288 292 296 302 307 306 309 309 312 315 317 321 316 319 319 320 336 338 342 345 344 341 334 334 330 334 334 338 339 338 341 342 340 334 334 331 331 329 329 329 326
295 289 281 280 281 282 292 289 291 300 305 306 307 306 307 309 310 312 314 316 319 320 326 325 327 334 330 327 327 325 327 329 325 325 326 326 328 328 328 330 330 332 333 332 332 331 330 330 327
292 290 282 278 281 285 294 287 291 305 307 308 308 309 310 309 310 311 316 318 320 321 323 326 326 324 323 322 321 321 322 322 321 319 321 321 319 321 321 322 322 324 327 329 329 329 330 331 329
293 289 292 287 291 286 289 296 302 304 304 305 307 309 310 313 315 316 317 317 318 318 318 319 319 318 317 319 319 318 317 317 317 318 318 319 320 320 320 320 319 321 322 322 322 322 324 327 326
296 296 288 286 282 279 286 292 294 298 299 302 305 307 309 311 312 313 314 315 317 318 319 318 317 318 315 313 314 314 313 313 314 313 313 313 313 313 314 315 315 315 316 317 317 318 319 318 320
292 291 291 291 290 281 281 289 302 303 306 302 306 308 307 307 307 309 311 312 311 313 314 315 314 312 311 311 310 310 310 311 312 312 312 313 313 313 313 314 313 313 313 313 313 313 315 315 315
297 293 294 287 287 291 287 287 303 304 305 306 310 310 306 306 306 307 308 308 308 307 307 309 309 308 308 309 310 309 309 310 310 310 311 312 310 311 312 312 312 312 312 311 311 311 311 311 311

GFSSGP_sfc_thetae_126.txt.gz
Theta_e
323 312 310 310 301 298 294 300 306 308 310 315 321 323 325 325 322 316 335 350 354 358 362 362 363 364 364 362 361 360 360 359 360 360 361 360 360 360 361 362 363 362 359 358 357 355 354 355 355
319 316 313 306 296 291 294 302 305 309 313 318 329 329 329 324 328 330 333 353 355 359 361 360 363 362 363 362 360 360 360 359 359 360 361 361 360 360 361 361 362 361 359 357 355 354 353 353 354
314 314 305 300 293 291 295 304 307 312 315 316 317 335 328 324 331 332 347 352 356 358 360 360 362 362 363 362 360 359 360 359 359 360 361 361 360 360 360 361 361 360 357 355 354 353 353 353 353
304 303 302 295 293 298 302 306 308 310 313 316 320 332 339 342 339 342 352 353 352 355 359 364 363 362 362 362 360 359 360 360 359 360 361 361 361 361 360 360 360 360 358 355 354 355 355 355 355
301 296 292 291 295 300 306 308 308 308 310 312 317 319 333 340 350 351 351 351 350 353 359 362 363 362 362 362 361 360 360 360 359 360 360 361 361 361 361 360 359 359 358 356 354 356 356 356 355
295 293 285 287 293 302 305 309 308 308 310 312 316 332 332 340 342 350 351 348 352 353 358 359 364 363 362 361 360 360 359 359 360 360 360 360 360 360 361 360 358 357 357 356 356 356 355 354 353
293 288 285 287 290 295 302 307 305 307 308 310 317 329 334 337 342 343 349 352 354 355 356 358 360 361 362 360 359 359 359 359 359 359 359 359 359 359 359 358 358 357 356 356 357 356 355 354 353
297 292 286 289 291 291 299 303 305 302 306 314 322 329 327 336 341 343 343 347 349 352 355 355 358 360 358 357 360 359 359 359 358 359 359 358 358 358 358 355 357 357 356 355 355 355 355 354 353
299 289 285 289 291 293 299 299 307 308 306 308 326 336 337 341 344 340 336 338 344 349 349 354 354 356 358 355 358 359 360 359 359 359 359 355 353 353 355 354 357 358 356 355 355 354 354 353 352
292 290 290 296 297 294 298 299 301 304 304 304 328 338 340 341 340 338 337 334 338 342 346 350 353 353 354 357 355 354 356 355 354 353 353 350 347 348 352 354 357 357 356 355 354 353 353 352 343
291 291 296 297 300 300 300 300 301 301 300 302 309 336 340 339 338 339 336 333 332 340 346 348 349 351 352 353 353 354 354 354 352 351 351 346 346 346 348 346 348 347 353 346 349 346 345 341 340
290 294 296 296 300 300 299 303 301 301 301 306 310 338 339 337 335 335 331 334 335 337 343 347 347 346 348 352 352 351 352 351 348 348 348 344 340 340 341 342 341 343 343 342 341 340 340 339 338
290 294 296 298 299 300 302 300 301 300 304 305 327 335 334 332 334 333 334 336 335 333 337 344 344 342 339 346 347 348 347 346 346 343 346 343 339 337 340 339 340 343 341 342 340 337 338 337 337
294 296 296 297 297 299 299 300 300 303 304 306 327 329 331 329 330 331 333 333 335 336 333 341 341 341 344 342 339 341 343 344 343 342 344 345 339 339 339 337 341 340 342 342 341 337 337 336 338
296 291 294 295 295 296 300 297 298 303 304 302 311 325 326 327 327 329 331 331 334 336 334 339 339 341 341 345 342 339 342 342 340 341 342 345 341 338 340 339 340 341 343 341 341 338 338 338 341
293 289 287 293 295 297 297 292 300 302 302 301 303 309 324 326 327 326 330 332 334 332 332 335 345 341 340 339 340 341 337 337 341 345 344 346 345 342 340 343 340 343 344 343 344 345 344 342 343
289 287 286 290 295 296 294 292 298 302 302 300 300 304 315 326 328 331 332 331 333 330 331 334 341 340 339 338 339 338 336 336 336 338 344 348 348 347 344 347 348 350 346 343 337 332 336 335 338
287 286 287 288 293 293 292 291 297 300 301 300 300 301 302 319 327 332 332 326 327 328 329 330 335 334 339 338 336 335 334 336 338 337 338 337 336 345 348 350 346 345 342 335 334 330 331 331 337
294 290 289 291 295 292 291 292 294 298 297 298 298 299 300 301 317 328 327 324 325 326 328 330 330 332 333 332 330 329 328 334 334 333 337 334 334 339 347 347 343 344 344 339 333 332 330 330 338
293 289 289 293 295 292 292 291 294 296 297 298 299 299 300 300 305 321 319 322 324 325 326 328 329 329 332 331 330 328 327 333 332 334 336 338 334 332 346 340 338 335 342 342 340 338 336 336 335
294 290 290 290 294 295 293 289 292 297 297 298 299 299 299 300 300 316 318 321 318 319 323 326 326 328 330 330 326 322 327 325 322 329 333 335 336 338 335 335 334 334 339 340 340 339 335 331 329
290 295 294 293 290 284 292 282 289 294 296 298 298 296 298 299 300 311 318 320 315 317 323 326 328 330 329 328 325 321 320 320 321 323 330 338 338 341 335 332 328 335 340 341 337 338 335 330 326
293 297 294 293 289 286 288 285 288 293 294 298 301 303 303 301 301 303 316 319 318 320 324 324 329 331 329 326 325 323 321 325 328 322 324 334 334 338 342 343 341 340 339 333 333 333 335 331 327
299 295 293 293 286 281 286 286 285 289 293 299 302 304 306 308 309 311 314 315 316 321 330 335 336 332 334 335 333 329 329 328 327 330 329 333 337 334 335 336 340 337 336 332 331 329 329 330 326
295 288 281 278 279 279 289 286 287 293 298 302 301 303 305 307 309 312 314 319 323 324 323 324 322 320 321 322 323 323 322 320 319 319 320 321 322 321 322 325 326 327 329 329 329 328 328 326 324
291 289 280 277 279 281 290 283 288 302 304 305 307 309 311 311 312 314 316 317 317 318 319 320 319 317 318 318 318 319 319 316 317 318 318 316 316 318 319 319 321 321 322 322 321 321 322 324 324
292 287 292 285 287 283 287 294 300 302 304 306 307 308 309 311 312 313 314 315 315 315 315 314 314 314 314 316 316 316 317 314 313 314 314 313 312 316 314 314 314 315 315 315 315 315 316 317 318
295 295 287 284 280 278 286 291 292 297 300 304 303 304 306 308 310 311 313 314 314 313 314 314 313 311 312 314 315 315 315 314 312 312 312 312 312 313 313 313 313 313 314 312 311 310 312 312 313
290 290 288 289 287 280 280 290 302 302 303 302 303 304 304 306 306 307 307 307 308 309 309 307 307 307 309 311 310 310 310 310 312 310 311 309 309 309 310 310 310 310 309 308 306 307 309 308 308
297 289 290 284 285 288 285 290 302 303 304 306 307 306 304 305 304 304 304 304 304 304 304 304 304 304 304 307 308 308 307 307 306 307 308 307 306 306 306 306 306 307 306 305 304 305 305 305 302